Date StartTime U_cm/s V_cm/s W_cm/s Ustd_cm/s Vstd_cm/s Wstd_cm/s Uvar_(cm/s)^2 Vvar_(cm/s)^2 Wvar_(cm/s)^2 KE_(m/s)^2 TurbulentKE_(m/s)^2 HorizWindSpeed_cm/s FrictionSpeec_cm/s DragCoef SpeedOfSound_m/s SonicTemperature_C Pressure_mb 
01/23/2015  00:00:00      -59.395      -27.686       -8.590       11.486       10.121        7.543      131.936      102.427       56.890        0.233        0.015       65.531        4.080        0.004      331.627       -0.235      872.887
01/23/2015  00:01:00      -44.596      -25.940      -10.644       21.619       14.862        6.831      467.384      220.865       46.662        0.175        0.037       51.591        5.806        0.013      331.644       -0.208      872.908
01/23/2015  00:02:00      -15.178       -8.827       -0.485       13.230        6.304        8.148      175.024       39.738       66.395        0.029        0.014       17.559        7.746        0.195      331.639       -0.217      872.923
01/23/2015  00:03:00      -14.329       -4.138       -4.385        5.788        4.383        2.717       33.503       19.211        7.381        0.015        0.003       14.915        2.653        0.032      331.837        0.109      872.902
01/23/2015  00:04:00      -25.259       -0.465       -4.431        4.516        2.565        2.288       20.398        6.580        5.234        0.035        0.002       25.263        1.668        0.004      331.925        0.250      872.862
01/23/2015  00:05:00      -44.202      -12.798       -6.741        9.836        8.483        6.835       96.747       71.968       46.711        0.119        0.011       46.018        5.407        0.014      331.829        0.097      872.834
01/23/2015  00:06:00      -53.260      -15.685       -7.764        7.093       10.898        7.311       50.310      118.763       53.444        0.168        0.011       55.522        5.048        0.008      331.667       -0.169      872.808
01/23/2015  00:07:00      -52.227      -13.629       -4.165       11.776       11.851        6.684      138.674      140.435       44.679        0.163        0.016       53.976        4.942        0.008      331.692       -0.128      872.798
01/23/2015  00:08:00      -74.337      -14.972       -5.332       15.098       14.556        6.832      227.961      211.872       46.672        0.313        0.024       75.830        4.583        0.004      331.712       -0.096      872.801
01/23/2015  00:09:00      -63.127      -36.353        2.125       26.960       17.816       13.543      726.834      317.393      183.414        0.327        0.061       72.846       12.983        0.032      331.678       -0.152      872.805
01/23/2015  00:10:00      -64.607      -25.580        0.192       23.958       18.266       12.887      573.990      333.645      166.073        0.295        0.054       69.486        9.729        0.020      331.646       -0.205      872.803
01/23/2015  00:11:00     -101.246      -20.927       -4.976       14.253       12.836        9.537      203.159      164.771       90.946        0.559        0.023      103.386        6.906        0.004      331.738       -0.054      872.806
01/23/2015  00:12:00     -117.200      -22.491       -8.703       13.209       11.650        9.404      174.481      135.714       88.426        0.736        0.020      119.339        5.602        0.002      331.747       -0.039      872.808
01/23/2015  00:13:00     -119.969      -12.706      -11.010       24.145       15.060       11.451      582.987      226.813      131.118        0.781        0.047      120.639        9.440        0.006      331.570       -0.330      872.787
01/23/2015  00:14:00     -123.786      -22.794       -7.429       25.030       17.265       12.367      626.510      298.068      152.940        0.849        0.054      125.867       13.487        0.011      331.490       -0.462      872.756
01/23/2015  00:15:00      -98.966      -25.656       -1.826       23.077       18.146       14.673      532.538      329.274      215.291        0.577        0.054      102.237       13.257        0.017      331.447       -0.533      872.723
01/23/2015  00:16:00      -88.475      -23.128        1.255       32.928       22.899       19.784     1084.221      524.387      391.414        0.518        0.100       91.448       18.727        0.042      331.532       -0.391      872.685
01/23/2015  00:17:00      -65.060      -29.568       -1.696       20.937       17.616       12.690      438.338      310.333      161.038        0.301        0.045       71.464       10.362        0.021      331.657       -0.186      872.658
01/23/2015  00:18:00      -53.198      -30.152       -2.715       19.670       12.770        8.314      386.907      163.074       69.128        0.218        0.031       61.149        7.468        0.015      331.747       -0.039      872.649
01/23/2015  00:19:00      -64.429       -6.954       -1.079       17.740        8.189        7.014      314.705       67.054       49.198        0.232        0.022       64.803        7.258        0.013      331.770       -0.002      872.659
01/23/2015  00:20:00      -62.164       -5.839       -7.438       14.994       12.290       10.221      224.812      151.055      104.468        0.222        0.024       62.437        7.056        0.013      331.763       -0.012      872.670
01/23/2015  00:21:00      -58.292      -23.111       -7.356       14.076       17.060       10.104      198.133      291.053      102.089        0.229        0.030       62.706        5.651        0.008      331.772        0.002      872.684
01/23/2015  00:22:00      -61.012      -12.969       -4.971       22.062       16.808       13.512      486.730      282.505      182.582        0.243        0.048       62.376       11.755        0.036      331.821        0.082      872.682
01/23/2015  00:23:00      -83.504      -17.619       -6.769       25.661       17.698       13.157      658.499      313.236      173.111        0.424        0.057       85.343       12.194        0.020      331.790        0.032      872.695
01/23/2015  00:24:00      -86.690      -19.122       -2.544       21.592       20.257       12.371      466.221      410.344      153.053        0.446        0.051       88.774       11.443        0.017      331.730       -0.066      872.714
01/23/2015  00:25:00      -73.671       -6.483       -2.117       26.770       18.116       16.253      716.640      328.188      264.146        0.339        0.065       73.956        7.575        0.010      331.581       -0.311      872.724
01/23/2015  00:26:00      -56.142      -14.414       -3.908       16.482       16.860       12.406      271.657      284.245      153.906        0.204        0.035       57.963        9.134        0.025      331.409       -0.595      872.729
01/23/2015  00:27:00      -50.911      -14.448       -9.752       20.129       15.334        9.176      405.162      235.130       84.204        0.181        0.036       52.922        8.036        0.023      331.432       -0.558      872.728
01/23/2015  00:28:00      -66.736      -27.999       -3.953       19.296       23.895       12.716      372.326      570.993      161.708        0.318        0.055       72.372        9.376        0.017      331.402       -0.605      872.733
01/23/2015  00:29:00      -43.380        9.805       -0.882       28.937       18.282       14.744      837.329      334.245      217.375        0.168        0.069       44.474       16.535        0.138      331.391       -0.624      872.754
01/23/2015  00:30:00      -49.835      -18.099        0.327       30.751       24.565       11.874      945.618      603.420      140.989        0.225        0.085       53.020        7.998        0.023      331.379       -0.646      872.772
01/23/2015  00:31:00      -85.177      -31.246       -9.980       21.193       19.624       11.080      449.159      385.084      122.766        0.464        0.048       90.727        5.821        0.004      331.268       -0.826      872.785
01/23/2015  00:32:00      -88.884      -19.840      -12.719       20.747       18.423       15.217      430.452      339.399      231.557        0.473        0.050       91.072       11.741        0.017      331.254       -0.849      872.774
01/23/2015  00:33:00     -102.934      -41.940      -12.440       21.049       18.563       15.887      443.046      344.574      252.403        0.677        0.052      111.151       11.746        0.011      331.225       -0.897      872.776
01/23/2015  00:34:00     -108.429      -39.720       -8.712       19.465       25.959       13.767      378.881      673.865      189.525        0.733        0.062      115.475        9.012        0.006      331.232       -0.885      872.782
01/23/2015  00:35:00     -118.162      -25.373       -9.601       23.093       23.013       16.310      533.273      529.592      266.021        0.801        0.066      120.855       11.130        0.008      331.187       -0.960      872.789
01/23/2015  00:36:00     -112.330      -32.987       -2.219       29.782       28.422       20.302      886.978      807.813      412.177        0.791        0.105      117.073       13.411        0.013      331.181       -0.969      872.790
01/23/2015  00:37:00      -87.295      -47.175        2.115       33.355       35.131       19.969     1112.583     1234.161      398.745        0.630        0.137       99.226       14.456        0.021      331.128       -1.055      872.786
01/23/2015  00:38:00      -87.538      -11.745       -4.474       40.228       38.550       22.380     1618.275     1486.081      500.851        0.571        0.180       88.322       17.513        0.039      331.281       -0.804      872.791
01/23/2015  00:39:00     -122.041       -4.628       -9.298       39.964       31.448       17.426     1597.144      988.985      303.672        0.895        0.144      122.129       15.607        0.016      331.344       -0.701      872.792
01/23/2015  00:40:00      -98.874       12.608       -3.757       55.592       32.584       22.445     3090.435     1061.725      503.760        0.730        0.233       99.675       25.477        0.065      331.275       -0.815      872.796
01/23/2015  00:41:00     -106.918       19.827      -12.109       53.047       35.676       25.279     2814.017     1272.780      639.013        0.835        0.236      108.741       22.668        0.043      331.279       -0.807      872.808
01/23/2015  00:42:00     -110.279        4.023       -9.806       33.230       35.072       19.004     1104.264     1230.016      361.166        0.748        0.135      110.352       14.902        0.018      331.241       -0.870      872.795
01/23/2015  00:43:00     -126.272        8.861       -5.753       44.998       36.456       24.041     2024.793     1329.071      577.958        0.999        0.197      126.582       18.455        0.021      331.260       -0.839      872.776
01/23/2015  00:44:00     -109.667      -10.074       -9.434       28.560       28.984       16.017      815.663      840.092      256.548        0.706        0.096      110.128       11.609        0.011      331.299       -0.774      872.743
01/23/2015  00:45:00     -113.588      -12.101      -10.772       29.194       37.377       20.179      852.282     1397.048      407.175        0.791        0.133      114.230       15.193        0.018      331.352       -0.688      872.733
01/23/2015  00:46:00     -129.003        7.041      -15.209       24.785       29.267       18.077      614.308      856.559      326.762        0.936        0.090      129.195       13.142        0.010      331.389       -0.628      872.740
01/23/2015  00:47:00     -106.624      -15.616       -4.347       40.554       27.970       20.883     1644.643      782.317      436.112        0.725        0.143      107.762       18.502        0.029      331.364       -0.669      872.746
01/23/2015  00:48:00     -141.839       11.770      -13.793       38.633       33.022       23.067     1492.529     1090.441      532.070        1.178        0.156      142.326       19.977        0.020      331.343       -0.703      872.736
01/23/2015  00:49:00     -112.965      -25.882       -9.039       43.570       29.994       22.321     1898.331      899.637      498.228        0.840        0.165      115.892       23.444        0.041      331.306       -0.763      872.732
01/23/2015  00:50:00      -96.324       -1.942       -2.938       38.522       32.188       20.273     1483.972     1036.096      410.998        0.611        0.147       96.344       15.569        0.026      331.306       -0.764      872.738
01/23/2015  00:51:00     -130.424      -31.341      -11.254       42.309       41.952       23.631     1790.042     1759.973      558.404        1.111        0.205      134.137       22.807        0.029      331.412       -0.589      872.731
01/23/2015  00:52:00     -153.213        3.052      -17.270       49.464       37.748       27.121     2446.682     1424.909      735.527        1.419        0.230      153.244       25.908        0.029      331.404       -0.602      872.737
01/23/2015  00:53:00     -112.009      -11.177       -9.864       31.374       34.521       19.200      984.316     1191.685      368.632        0.766        0.127      112.565        9.290        0.007      331.407       -0.598      872.734
01/23/2015  00:54:00     -107.237      -14.097      -12.633       31.198       36.670       17.632      973.314     1344.693      310.884        0.724        0.131      108.159       13.640        0.016      331.392       -0.622      872.717
01/23/2015  00:55:00     -118.821      -38.507       -4.510       35.550       38.608       23.971     1263.812     1490.548      574.591        0.947        0.166      124.905       18.631        0.022      331.284       -0.799      872.679
01/23/2015  00:56:00     -102.786       -8.823       -4.698       56.349       39.359       24.576     3175.239     1549.165      603.971        0.800        0.266      103.164       27.873        0.073      331.249       -0.856      872.653
01/23/2015  00:57:00     -101.069      -15.729      -10.468       51.920       44.431       21.680     2695.671     1974.105      470.021        0.786        0.257      102.286       17.316        0.029      331.171       -0.985      872.652
01/23/2015  00:58:00     -167.415       17.312      -22.625       39.720       46.674       27.007     1577.651     2178.436      729.380        1.666        0.224      168.308       13.342        0.006      331.202       -0.936      872.635
01/23/2015  00:59:00     -110.797      -32.786       -7.161       29.068       40.676       22.105      844.923     1654.497      488.614        0.819        0.149      115.546       14.389        0.016      331.172       -0.985      872.564
01/23/2015  01:00:00      -94.920      -19.512      -16.388       48.491       33.846       23.765     2351.342     1145.548      564.794        0.686        0.203       96.905       17.457        0.032      331.121       -1.069      872.495
01/23/2015  01:01:00      -57.488      -22.114       -4.580       46.417       37.995       23.766     2154.564     1443.649      564.831        0.399        0.208       61.595       20.733        0.113      331.143       -1.033      872.472
01/23/2015  01:02:00      -91.502      -50.633       -3.025       54.473       37.728       27.553     2967.313     1423.372      759.169        0.805        0.257      104.577       31.445        0.090      331.114       -1.081      872.495
01/23/2015  01:03:00     -103.132      -25.514      -10.803       47.496       35.770       20.608     2255.911     1279.528      424.675        0.768        0.198      106.241       18.183        0.029      331.158       -1.006      872.530
01/23/2015  01:04:00      -98.969      -65.289      -10.688       36.781       27.037       18.430     1352.809      730.980      339.683        0.830        0.121      118.564       10.122        0.007      331.140       -1.036      872.535
01/23/2015  01:05:00     -126.921      -46.288      -14.637       49.153       24.839       16.904     2416.040      616.964      285.753        1.089        0.166      135.098       14.666        0.012      331.123       -1.065      872.499
01/23/2015  01:06:00     -136.065      -42.053      -12.623       24.708       21.793       15.470      610.502      474.934      239.314        1.088        0.066      142.415        6.651        0.002      331.110       -1.085      872.436
01/23/2015  01:07:00     -145.612      -29.731       -1.061       24.672       22.186       19.789      608.697      492.227      391.615        1.179        0.075      148.616       14.077        0.009      331.217       -0.912      872.416
01/23/2015  01:08:00     -133.017      -18.301       -9.947       14.329       16.431       10.922      205.312      269.974      119.297        0.936        0.030      134.270        6.407        0.002      331.260       -0.839      872.426
01/23/2015  01:09:00     -102.011      -12.392       -4.572       29.005       16.005       14.160      841.294      256.174      200.517        0.594        0.065      102.761       15.468        0.023      331.219       -0.907      872.430
01/23/2015  01:10:00      -91.625      -18.871       -5.899       24.880       14.121       11.184      619.019      199.393      125.081        0.486        0.047       93.548       12.666        0.018      331.246       -0.861      872.407
01/23/2015  01:11:00      -79.815      -29.752       -6.880       11.778       10.299        8.494      138.721      106.069       72.142        0.381        0.016       85.180        6.180        0.005      331.310       -0.756      872.384
01/23/2015  01:12:00      -78.759      -35.898       -6.993       15.601       11.158        9.002      243.391      124.492       81.043        0.399        0.022       86.554        7.523        0.008      331.394       -0.621      872.389
01/23/2015  01:13:00      -94.734      -36.584       -9.763       17.414       18.349       14.372      303.247      336.702      206.551        0.563        0.042      101.553        8.604        0.007      331.360       -0.675      872.365
01/23/2015  01:14:00      -87.820       -5.419      -12.058       15.107       10.222       10.208      228.229      104.489      104.203        0.416        0.022       87.987        7.905        0.008      331.331       -0.722      872.366
01/23/2015  01:15:00      -96.716      -12.972      -13.522       13.652       10.647       10.438      186.384      113.368      108.956        0.506        0.020       97.582        5.135        0.003      331.301       -0.770      872.396
01/23/2015  01:16:00      -98.327      -19.386      -13.070       15.243       15.480       12.376      232.339      239.638      153.155        0.542        0.031      100.219       10.326        0.011      331.302       -0.769      872.415
01/23/2015  01:17:00     -105.699      -17.280      -10.838       17.493       13.792       12.128      306.018      190.230      147.099        0.612        0.032      107.103       10.230        0.009      331.260       -0.838      872.404
01/23/2015  01:18:00     -109.895      -19.986      -13.844       10.546       10.933       10.123      111.226      119.539      102.483        0.650        0.017      111.698        5.707        0.003      331.161       -1.003      872.402
01/23/2015  01:19:00     -108.512      -13.343      -14.675       19.507       13.615       14.114      380.539      185.381      199.213        0.647        0.038      109.329        7.335        0.005      331.100       -1.103      872.439
01/23/2015  01:20:00      -93.542      -18.432      -14.092       25.277       12.969       10.827      638.941      168.197      117.231        0.511        0.046       95.340        7.612        0.006      331.114       -1.080      872.480
01/23/2015  01:21:00      -81.942      -21.978      -16.686       11.747       10.951       10.189      137.985      119.920      103.823        0.392        0.018       84.838        3.911        0.002      331.085       -1.128      872.503
01/23/2015  01:22:00      -61.833      -39.300      -16.032       24.671       20.235       14.833      608.648      409.445      220.024        0.343        0.062       73.265       11.021        0.023      331.158       -1.007      872.519
01/23/2015  01:23:00      -63.552      -20.943       -7.066       23.066       11.255       11.268      532.057      126.681      126.968        0.266        0.039       66.914       10.056        0.023      331.079       -1.138      872.537
01/23/2015  01:24:00      -49.229      -29.430       -2.768       21.640       15.812        8.973      468.272      250.031       80.521        0.205        0.040       57.355        8.669        0.023      331.058       -1.173      872.566
01/23/2015  01:25:00      -49.178      -16.396       -2.330        8.336       13.371        7.406       69.489      178.770       54.851        0.150        0.015       51.840        3.812        0.005      331.061       -1.168      872.590
01/23/2015  01:26:00      -58.937      -14.679      -10.590       13.479       13.513        7.511      181.686      182.606       56.420        0.211        0.021       60.738        3.802        0.004      331.141       -1.036      872.597
01/23/2015  01:27:00      -69.003      -19.248       -8.247        8.183       12.245        9.254       66.962      149.938       85.637        0.275        0.015       71.638        4.581        0.004      331.101       -1.101      872.592
01/23/2015  01:28:00      -68.437      -21.996      -11.629       13.083       12.609        9.641      171.156      158.986       92.950        0.286        0.021       71.885        4.399        0.004      331.073       -1.148      872.595
01/23/2015  01:29:00      -57.469      -29.207       -8.674       18.945       13.828        9.766      358.909      191.213       95.374        0.244        0.032       64.465        3.431        0.003      331.076       -1.143      872.602
01/23/2015  01:30:00      -62.663      -19.747       -8.903        8.356        8.279        6.648       69.821       68.545       44.197        0.229        0.009       65.701        5.361        0.007      331.092       -1.117      872.629
01/23/2015  01:31:00      -48.274      -14.751       -9.879        6.684        8.560        5.019       44.680       73.275       25.195        0.139        0.007       50.478        3.833        0.006      331.137       -1.042      872.663
01/23/2015  01:32:00      -42.489       -6.373      -10.289        9.961        9.434        8.621       99.212       88.993       74.330        0.111        0.013       42.964        5.737        0.018      331.127       -1.058      872.691
01/23/2015  01:33:00      -57.485       -9.295       -9.746        8.536       11.521        7.554       72.871      132.736       57.068        0.187        0.013       58.232        1.740        0.001      331.077       -1.139      872.692
01/23/2015  01:34:00      -57.079      -12.186       -8.934        9.835        8.611        7.757       96.728       74.147       60.173        0.186        0.012       58.365        4.597        0.006      331.046       -1.192      872.677
01/23/2015  01:35:00      -59.815      -20.296       -9.162        8.098        9.175        7.509       65.575       84.176       56.380        0.214        0.010       63.165        4.190        0.004      331.002       -1.267      872.656
01/23/2015  01:36:00      -39.662      -20.449       -6.620       17.333        8.694        7.930      300.445       75.580       62.881        0.124        0.022       44.623        4.462        0.010      331.000       -1.268      872.656
01/23/2015  01:37:00      -68.141       -1.025       -9.484       13.880       11.080        8.572      192.667      122.757       73.480        0.256        0.019       68.148        3.360        0.002      331.042       -1.199      872.661
01/23/2015  01:38:00      -97.951       -5.673      -16.058       15.350       14.071       13.060      235.634      197.995      170.560        0.524        0.030       98.115       10.035        0.010      331.101       -1.101      872.681
01/23/2015  01:39:00     -115.777      -11.809      -17.738       24.258       16.453       15.403      588.446      270.698      237.260        0.748        0.055      116.378       12.626        0.012      330.937       -1.369      872.711
01/23/2015  01:40:00      -86.080      -30.713       -7.338       20.858       19.857       17.624      435.067      394.289      310.608        0.477        0.057       91.395       11.685        0.016      330.892       -1.444      872.743
01/23/2015  01:41:00     -126.266      -25.373       -8.120       27.395       21.615       12.607      750.483      467.229      158.925        0.901        0.069      128.790       10.931        0.007      330.902       -1.426      872.763
01/23/2015  01:42:00     -106.309      -42.599      -10.228       30.480       27.531       19.965      929.020      757.936      398.612        0.765        0.104      114.526       18.239        0.025      330.887       -1.451      872.756
01/23/2015  01:43:00     -122.451      -27.096      -18.192       18.487       16.503       15.512      341.770      272.346      240.623        0.846        0.043      125.413       10.544        0.007      330.918       -1.401      872.741
01/23/2015  01:44:00     -105.945      -15.449      -17.009       21.593       14.590       11.347      466.273      212.872      128.745        0.628        0.040      107.065        4.692        0.002      330.934       -1.376      872.750
01/23/2015  01:45:00     -106.928      -16.937      -15.636       24.054       16.176       12.529      578.609      261.657      156.982        0.648        0.050      108.261        8.136        0.006      330.959       -1.333      872.779
01/23/2015  01:46:00     -102.076      -17.309      -15.735       16.081       19.452       13.221      258.593      378.374      174.782        0.589        0.041      103.534       10.217        0.010      330.965       -1.324      872.812
01/23/2015  01:47:00     -140.131      -41.995      -14.682       15.841       18.936       16.090      250.944      358.569      258.904        1.124        0.043      146.288        7.339        0.003      330.969       -1.318      872.836
01/23/2015  01:48:00     -128.820      -73.881      -16.035       15.881       20.823       14.914      252.211      433.578      222.433        1.161        0.045      148.502       11.915        0.006      330.987       -1.288      872.865
01/23/2015  01:49:00     -136.155      -56.319      -14.137       29.345       21.304       13.536      861.113      453.880      183.226        1.170        0.075      147.343       12.868        0.008      330.960       -1.332      872.891
01/23/2015  01:50:00     -154.704      -33.830      -12.449       18.911       26.092       18.007      357.622      680.790      324.244        1.330        0.068      158.360       13.981        0.008      331.057       -1.174      872.902
01/23/2015  01:51:00     -139.071      -42.234       -5.803       25.505       22.815       16.092      650.518      520.515      258.955        1.129        0.071      145.343       12.195        0.007      331.065       -1.162      872.897
01/23/2015  01:52:00     -136.251      -38.622      -13.174       14.697       16.672       13.217      216.001      277.946      174.686        1.045        0.033      141.619       10.682        0.006      331.057       -1.173      872.881
01/23/2015  01:53:00     -113.932      -39.717       -5.521       23.583       16.249       14.164      556.146      264.041      200.617        0.780        0.051      120.657       14.103        0.014      330.950       -1.349      872.873
01/23/2015  01:54:00     -110.633      -34.658       -5.382       15.154       14.186       10.471      229.636      201.250      109.635        0.701        0.027      115.934        8.330        0.005      331.025       -1.227      872.874
01/23/2015  01:55:00     -103.266      -35.484       -9.445       12.282       15.917        7.941      150.859      253.345       63.063        0.624        0.023      109.193        6.668        0.004      331.123       -1.065      872.881
01/23/2015  01:56:00     -119.504      -18.273      -13.340       10.797       12.291        7.269      116.575      151.062       52.834        0.756        0.016      120.893        3.848        0.001      331.211       -0.920      872.894
01/23/2015  01:57:00     -102.107      -20.716      -10.342       20.707       15.142       12.947      428.787      229.283      167.637        0.589        0.041      104.187        9.823        0.009      331.093       -1.115      872.890
01/23/2015  01:58:00     -100.661      -36.452       -8.163       19.203       14.789       15.073      368.744      218.705      227.190        0.617        0.041      107.058        9.624        0.008      331.064       -1.162      872.865
01/23/2015  01:59:00      -32.428      -35.884        1.357       32.073       26.006       19.560     1028.685      676.317      382.605        0.221        0.104       48.365       19.612        0.164      331.057       -1.173      872.849
01/23/2015  02:00:00      -72.229      -13.174       -5.216       16.201       15.272       11.356      262.457      233.239      128.951        0.302        0.031       73.421        9.007        0.015      331.141       -1.034      872.857
01/23/2015  02:01:00      -48.281      -14.266       -7.805       23.108       17.685       12.230      534.002      312.749      149.583        0.180        0.050       50.344        9.182        0.033      331.146       -1.028      872.879
01/23/2015  02:02:00      -33.993      -13.403      -13.150       11.042       14.259        7.214      121.917      203.314       52.037        0.094        0.019       36.540        5.691        0.024      331.215       -0.914      872.890
01/23/2015  02:03:00      -58.772      -28.007      -11.088       14.237       16.567       10.321      202.689      274.458      106.517        0.247        0.029       65.104        7.175        0.012      331.257       -0.846      872.887
01/23/2015  02:04:00      -65.733      -28.489       -7.082       17.252       11.976        8.879      297.637      143.422       78.839        0.285        0.026       71.641        6.265        0.008      331.255       -0.847      872.876
01/23/2015  02:05:00      -48.895      -37.322       -6.238       18.342       10.422       10.794      336.419      108.608      116.500        0.219        0.028       61.511        7.350        0.014      331.273       -0.816      872.894
01/23/2015  02:06:00      -54.726      -36.545       -1.308       16.929       13.346       10.887      286.604      178.128      118.529        0.246        0.029       65.806        5.457        0.007      331.237       -0.876      872.904
01/23/2015  02:07:00      -89.097      -32.906       -5.004       15.612       11.778        7.576      243.746      138.720       57.390        0.474        0.022       94.980        5.922        0.004      331.254       -0.847      872.919
01/23/2015  02:08:00      -74.258      -34.021       -6.181       19.308       12.662       10.429      372.804      160.338      108.761        0.368        0.032       81.681        4.090        0.003      331.235       -0.880      872.934
01/23/2015  02:09:00      -90.841      -22.877       -6.581       11.344       11.677        6.801      128.681      136.351       46.251        0.456        0.016       93.677        5.218        0.003      331.258       -0.842      872.937
01/23/2015  02:10:00      -77.058      -19.216       -4.885       12.118       10.078        9.625      146.842      101.575       92.648        0.334        0.017       79.418        7.442        0.009      331.244       -0.865      872.948
01/23/2015  02:11:00      -61.842      -13.119       -4.195       11.008        9.087        9.298      121.187       82.580       86.448        0.215        0.015       63.218        6.723        0.011      331.296       -0.782      872.950
01/23/2015  02:12:00      -50.092      -20.195       -7.500        8.928        9.235        6.865       79.716       85.290       47.125        0.159        0.011       54.010        1.906        0.001      331.375       -0.650      872.954
01/23/2015  02:13:00      -54.327      -16.996       -7.307        6.765       10.872        9.839       45.767      118.193       96.800        0.178        0.013       56.923        5.269        0.009      331.362       -0.673      872.963
01/23/2015  02:14:00      -42.592      -20.694       -1.745       16.673        9.477        8.926      277.988       89.820       79.669        0.135        0.022       47.353        5.395        0.013      331.297       -0.778      872.991
01/23/2015  02:15:00      -18.584      -23.017       -5.038       10.719       10.250        5.180      114.903      105.065       26.836        0.057        0.012       29.583        4.382        0.022      331.314       -0.751      872.997
01/23/2015  02:16:00      -29.078      -12.719       -3.840        9.392        7.892        6.328       88.217       62.287       40.045        0.061        0.010       31.738        3.299        0.011      331.309       -0.760      872.994
01/23/2015  02:17:00      -29.338       -1.465       -3.012        7.754        4.082        4.243       60.117       16.666       18.001        0.048        0.005       29.374        1.494        0.003      331.206       -0.929      873.009
01/23/2015  02:18:00      -54.414       -6.838       -7.080       12.523        7.776        6.407      156.821       60.463       41.054        0.166        0.013       54.842        4.479        0.007      331.196       -0.944      873.058
01/23/2015  02:19:00      -84.567      -18.164       -8.903       16.756       13.767        9.335      280.748      189.535       87.149        0.406        0.028       86.495        4.108        0.002      331.160       -1.004      873.104
01/23/2015  02:20:00      -97.290      -25.955       -6.455       12.010       10.368        7.888      144.237      107.492       62.221        0.525        0.016      100.693        6.005        0.004      331.090       -1.118      873.123
01/23/2015  02:21:00      -95.479      -37.891        0.567       28.786       20.926       16.478      828.616      437.909      271.535        0.604        0.077      102.723       13.394        0.017      331.049       -1.187      873.127
01/23/2015  02:22:00     -124.833      -22.506       -7.417       21.420       16.382       12.721      458.828      268.377      161.820        0.852        0.044      126.846       11.765        0.009      331.038       -1.206      873.146
01/23/2015  02:23:00     -124.808       -9.602       -9.754       14.392       19.791       11.839      207.119      391.691      140.165        0.825        0.037      125.177        7.530        0.004      330.923       -1.394      873.153
01/23/2015  02:24:00     -111.986      -35.527       -7.127       19.860       15.328       13.432      394.425      234.936      180.411        0.733        0.040      117.486       12.822        0.012      331.003       -1.262      873.119
01/23/2015  02:25:00      -93.834      -35.435       -5.756       29.285       16.858       13.030      857.605      284.192      169.776        0.570        0.066      100.301       14.302        0.020      331.052       -1.184      873.102
01/23/2015  02:26:00      -99.138      -13.938       -7.494       18.197       15.174       12.720      331.128      230.251      161.807        0.540        0.036      100.113        8.679        0.008      330.997       -1.273      873.140
01/23/2015  02:27:00      -81.078        1.477       -5.717       42.685       21.835       13.167     1821.980      476.775      173.374        0.454        0.124       81.091       10.280        0.016      331.051       -1.183      873.200
01/23/2015  02:28:00      -28.056        7.550       -5.782       16.045       17.596       12.264      257.435      309.629      150.402        0.080        0.036       29.054        8.281        0.081      331.053       -1.180      873.220
01/23/2015  02:29:00       -4.647      -27.434       -4.039       20.217       14.946       18.538      408.733      223.388      343.666        0.088        0.049       27.825       13.899        0.250      331.147       -1.026      873.192
01/23/2015  02:30:00       -8.347      -15.136        8.893        9.400       10.830       15.159       88.367      117.281      229.801        0.041        0.022       17.285       10.644        0.379      331.253       -0.851      873.152
01/23/2015  02:31:00      -19.803       -5.027       -5.378       11.154        8.532        7.796      124.414       72.794       60.775        0.035        0.013       20.431        7.208        0.124      331.231       -0.888      873.141
01/23/2015  02:32:00       -6.741       -3.641        0.405        5.363        6.366        4.937       28.766       40.527       24.379        0.008        0.005        7.662        4.285        0.313      331.239       -0.874      873.164
01/23/2015  02:33:00       -4.641       31.698       -2.019       17.146       22.014       15.690      293.996      484.603      246.164        0.103        0.051       32.036       14.137        0.195      331.136       -1.045      873.190
01/23/2015  02:34:00        5.538       30.063       -2.696       18.967       12.991       10.236      359.758      168.758      104.784        0.079        0.032       30.569       10.108        0.109      330.952       -1.346      873.187
01/23/2015  02:35:00       13.267       47.758       -6.417       15.412       22.391       14.369      237.532      501.374      206.462        0.172        0.047       49.566       13.835        0.078      330.946       -1.353      873.179
01/23/2015  02:36:00       17.605       90.088      -15.240       20.791       25.428       10.523      432.285      646.604      110.738        0.492        0.059       91.792        8.898        0.009      331.073       -1.147      873.218
01/23/2015  02:37:00       16.988      102.801      -18.242       16.641       12.552        9.878      276.913      157.564       97.566        0.586        0.027      104.195        8.104        0.006      331.171       -0.986      873.268
01/23/2015  02:38:00       15.237      108.826      -20.870       12.458       15.305        7.236      155.209      234.229       52.365        0.648        0.022      109.887        5.523        0.003      331.244       -0.865      873.286
01/23/2015  02:39:00       -4.187       85.948      -12.196       18.355       17.623        8.445      336.918      310.571       71.320        0.414        0.036       86.050        7.801        0.008      331.272       -0.819      873.254
01/23/2015  02:40:00      -30.639       57.966       -7.965       23.535       22.999       15.855      553.912      528.936      251.395        0.285        0.067       65.565       11.631        0.031      331.255       -0.849      873.225
01/23/2015  02:41:00      -31.988      -27.406       -2.761       13.896       18.203       17.311      193.106      331.347      299.673        0.130        0.041       42.123       13.958        0.110      331.220       -0.905      873.224
01/23/2015  02:42:00      -18.788       -7.953       -2.893        8.915        7.588       12.968       79.478       57.578      168.177        0.036        0.015       20.402        8.998        0.195      331.051       -1.186      873.225
01/23/2015  02:43:00       -1.407        4.372       -2.515       18.555       13.809        9.833      344.285      190.697       96.688        0.033        0.032        4.593        8.628        3.530      331.335       -0.717      873.232
01/23/2015  02:44:00      -45.859       -8.560       -6.752       10.902        6.517        5.641      118.844       42.471       31.823        0.121        0.010       46.651        3.261        0.005      331.089       -1.122      873.243
01/23/2015  02:45:00      -66.946       -9.074      -12.359       18.388        9.996        9.917      338.132       99.911       98.337        0.263        0.027       67.559        7.617        0.013      330.960       -1.332      873.253
01/23/2015  02:46:00      -80.249      -16.145      -14.950       13.352       14.304        8.573      178.277      204.616       73.496        0.369        0.023       81.857        6.112        0.006      330.853       -1.509      873.262
01/23/2015  02:47:00      -83.738      -11.050      -19.320       10.996       11.174        9.990      120.917      124.857       99.807        0.393        0.017       84.464        2.839        0.001      330.790       -1.611      873.261
01/23/2015  02:48:00      -75.618      -10.813      -14.183       13.018       14.459        9.130      169.461      209.063       83.365        0.325        0.023       76.387        8.545        0.013      330.926       -1.388      873.266
01/23/2015  02:49:00      -60.877      -20.960      -14.882       10.483        8.202        7.421      109.886       67.272       55.073        0.230        0.012       64.384        3.042        0.002      330.866       -1.485      873.279
01/23/2015  02:50:00      -74.350      -23.252      -10.606       15.235       15.257        9.114      232.093      232.769       83.074        0.336        0.027       77.901        6.838        0.008      330.837       -1.536      873.288
01/23/2015  02:51:00      -51.108      -34.346      -15.530       15.397       22.421       14.172      237.080      502.711      200.840        0.249        0.047       61.576       11.554        0.035      330.844       -1.523      873.284
01/23/2015  02:52:00      -65.215      -24.663       -9.544       21.993       20.988       10.286      483.686      440.504      105.797        0.299        0.051       69.723        8.603        0.015      330.826       -1.553      873.275
01/23/2015  02:53:00      -65.813      -34.712      -15.159       10.025       14.202        9.336      100.491      201.698       87.154        0.308        0.019       74.406        1.857        0.001      330.887       -1.452      873.280
01/23/2015  02:54:00      -91.930      -22.999      -16.212       22.447       16.264       12.402      503.860      264.521      153.819        0.508        0.046       94.763        8.582        0.008      330.793       -1.608      873.303
01/23/2015  02:55:00      -95.553      -38.952      -13.907       23.006       21.138       16.524      529.272      446.812      273.037        0.604        0.062      103.187       16.394        0.025      330.725       -1.719      873.346
01/23/2015  02:56:00      -53.910      -38.061       -7.281       22.795       19.549       11.357      519.620      382.171      128.981        0.272        0.052       65.992        9.892        0.022      330.817       -1.568      873.387
01/23/2015  02:57:00      -63.817      -53.032      -14.358       30.047       17.451       15.644      902.807      304.545      244.742        0.427        0.073       82.975       10.034        0.015      330.814       -1.573      873.387
01/23/2015  02:58:00     -123.298      -66.327      -12.391       17.401       17.021       12.565      302.808      289.707      157.867        1.025        0.038      140.006        8.960        0.004      330.837       -1.534      873.348
01/23/2015  02:59:00      -86.332      -50.808       -2.813       27.490       23.659       18.349      755.705      559.764      336.679        0.585        0.083      100.173       14.838        0.022      330.868       -1.484      873.308
01/23/2015  03:00:00      -71.553      -48.625        4.294       36.672       28.175       20.097     1344.870      793.832      403.905        0.502        0.127       86.511       18.726        0.047      330.885       -1.456      873.320
01/23/2015  03:01:00      -81.836      -50.632       -1.701       26.028       18.153       12.181      677.477      329.537      148.385        0.521        0.058       96.233        7.465        0.006      330.959       -1.335      873.362
01/23/2015  03:02:00      -69.930      -37.718       -1.836       35.679       19.217       16.424     1273.020      369.287      269.744        0.411        0.096       79.453       15.978        0.040      330.950       -1.349      873.390
01/23/2015  03:03:00      -81.603      -41.227       -2.749       21.829       20.148       14.786      476.514      405.937      218.638        0.473        0.055       91.426       12.080        0.017      330.955       -1.340      873.384
01/23/2015  03:04:00      -61.189      -47.568       -1.194       33.159       21.489       15.302     1099.519      461.774      234.142        0.390        0.090       77.504       12.161        0.025      330.923       -1.394      873.348
01/23/2015  03:05:00      -73.295      -41.942        3.064       32.692       26.194       16.951     1068.792      686.131      287.335        0.459        0.102       84.447       16.319        0.037      330.894       -1.441      873.331
01/23/2015  03:06:00      -92.252      -36.644       -0.037       22.707       20.967       13.800      515.588      439.616      190.453        0.550        0.057       99.264       11.347        0.013      330.875       -1.472      873.353
01/23/2015  03:07:00      -90.766      -40.331       -9.989       19.953       16.561       11.575      398.110      274.252      133.973        0.539        0.040       99.323        6.703        0.005      330.888       -1.450      873.364
01/23/2015  03:08:00      -45.296      -30.086        5.330       34.437       18.861       15.265     1185.910      355.726      233.034        0.238        0.089       54.377       16.321        0.090      330.896       -1.436      873.350
01/23/2015  03:09:00      -25.131      -30.391        6.194       26.306       20.872       17.660      692.016      435.626      311.875        0.152        0.072       39.436       16.121        0.167      330.964       -1.326      873.340
01/23/2015  03:10:00      -66.515      -33.868       -2.646       24.879       15.966       15.298      618.986      254.909      234.022        0.334        0.055       74.641       14.668        0.039      330.956       -1.338      873.357
01/23/2015  03:11:00      -75.048      -24.448       -4.534       13.997       14.125       10.970      195.929      199.524      120.340        0.338        0.026       78.930        8.036        0.010      331.000       -1.268      873.385
01/23/2015  03:12:00      -82.961      -33.625       -4.908       16.955       11.551       10.254      287.470      133.433      105.152        0.428        0.026       89.516        9.510        0.011      330.997       -1.273      873.400
01/23/2015  03:13:00     -114.736      -26.537       -7.629       16.275       16.971        8.792      264.879      288.030       77.291        0.728        0.032      117.765        6.524        0.003      331.000       -1.268      873.376
01/23/2015  03:14:00     -116.489      -43.086       -1.469       17.517       17.614       15.527      306.842      310.254      241.076        0.814        0.043      124.202        9.986        0.006      330.929       -1.383      873.343
01/23/2015  03:15:00     -105.781      -48.339        4.737       27.350       23.803       19.060      748.048      566.586      363.268        0.761        0.084      116.303       15.668        0.018      330.975       -1.309      873.330
01/23/2015  03:16:00     -117.463      -52.221       -1.106       29.769       21.541       22.234      886.218      464.007      494.348        0.918        0.092      128.548       18.337        0.020      331.044       -1.195      873.332
01/23/2015  03:17:00     -128.276      -57.981        1.359       36.005       25.717       16.407     1296.334      661.381      269.198        1.102        0.111      140.771       19.145        0.018      331.051       -1.185      873.324
01/23/2015  03:18:00     -105.696      -74.119        5.742       44.143       33.371       25.997     1948.628     1113.640      675.820        1.022        0.187      129.094       24.675        0.037      331.034       -1.212      873.290
01/23/2015  03:19:00     -127.583      -75.614        0.070       41.124       29.452       21.836     1691.170      867.441      476.792        1.251        0.152      148.307       23.415        0.025      331.030       -1.218      873.270
01/23/2015  03:20:00     -127.146      -47.933        3.514       41.940       33.757       25.350     1758.959     1139.510      642.643        1.101        0.177      135.881       26.036        0.037      330.918       -1.402      873.279
01/23/2015  03:21:00     -143.858      -47.193       -9.531       32.981       27.285       22.391     1087.778      744.471      501.366        1.267        0.117      151.401       21.154        0.020      330.896       -1.438      873.302
01/23/2015  03:22:00     -137.757      -17.154       -6.264       36.234       28.527       22.544     1312.908      813.784      508.215        1.097        0.132      138.821       20.633        0.022      330.897       -1.435      873.307
01/23/2015  03:23:00     -144.178      -31.019      -11.279       25.169       21.095       15.819      633.469      444.981      250.242        1.160        0.066      147.477       13.433        0.008      330.865       -1.488      873.297
01/23/2015  03:24:00     -107.134      -15.710       -3.371       33.027       30.339       17.492     1090.754      920.449      305.982        0.703        0.116      108.279       16.117        0.022      330.856       -1.503      873.288
01/23/2015  03:25:00     -116.668      -18.076       -4.430       39.503       26.635       19.279     1560.451      709.409      371.674        0.830        0.132      118.060       20.378        0.030      330.780       -1.629      873.295
01/23/2015  03:26:00     -138.946      -10.775       -8.921       30.996       22.080       18.317      960.746      487.526      335.522        1.064        0.089      139.363       15.985        0.013      330.753       -1.673      873.304
01/23/2015  03:27:00     -124.657      -43.159       -5.795       26.789       24.172       17.501      717.672      584.308      306.282        0.952        0.080      131.917       16.233        0.015      330.659       -1.827      873.294
01/23/2015  03:28:00      -84.405      -37.382       -4.259       25.132       31.875       12.884      631.618     1015.999      166.001        0.518        0.091       92.313        8.248        0.008      330.704       -1.753      873.282
01/23/2015  03:29:00      -64.608      -24.577       -2.283       26.718       23.472       13.516      713.864      550.928      182.693        0.312        0.072       69.125        9.314        0.018      330.683       -1.787      873.272
01/23/2015  03:30:00      -64.017      -12.875        5.086       37.316       32.475       16.787     1392.519     1054.657      281.790        0.351        0.136       65.299       18.628        0.081      330.687       -1.782      873.270
01/23/2015  03:31:00      -67.966       -8.782       -5.024       26.178       18.205       17.262      685.303      331.409      297.991        0.302        0.066       68.532       13.996        0.042      330.680       -1.793      873.274
01/23/2015  03:32:00      -45.353       -4.521       -2.044       22.008       17.286       13.169      484.349      298.802      173.417        0.152        0.048       45.578       13.588        0.089      330.642       -1.854      873.263
01/23/2015  03:33:00      -82.654      -18.600      -13.070       19.962       17.028       10.202      398.475      289.958      104.078        0.407        0.040       84.721        8.636        0.010      330.686       -1.780      873.244
01/23/2015  03:34:00      -78.630      -31.317       -5.409       19.966       19.405       11.708      398.626      376.553      137.067        0.405        0.046       84.637        8.779        0.011      330.686       -1.782      873.222
01/23/2015  03:35:00      -52.050      -15.530       -2.717       16.201       13.497        9.421      262.457      182.164       88.755        0.175        0.027       54.317        8.352        0.024      330.702       -1.757      873.226
01/23/2015  03:36:00      -25.646      -11.235       -4.536       20.270        9.361        6.545      410.878       87.629       42.837        0.067        0.027       27.999        5.902        0.044      330.789       -1.615      873.234
01/23/2015  03:37:00      -32.371       -5.567       -7.349        8.565        9.921        6.308       73.360       98.425       39.787        0.067        0.011       32.846        2.812        0.007      330.768       -1.649      873.238
01/23/2015  03:38:00      -48.792      -25.754       -8.596        6.958       12.392        7.951       48.412      153.569       63.219        0.169        0.013       55.172        5.334        0.009      330.849       -1.516      873.221
01/23/2015  03:39:00      -34.952      -21.500       -2.993       20.494       12.087        8.183      420.024      146.092       66.961        0.116        0.032       41.036        6.672        0.026      330.849       -1.515      873.186
01/23/2015  03:40:00      -27.570      -23.213       -7.329       12.053        8.333        7.772      145.267       69.446       60.397        0.081        0.014       36.041        6.185        0.029      330.935       -1.373      873.138
01/23/2015  03:41:00      -10.084      -13.978        0.233        9.768        5.509        8.498       95.420       30.350       72.224        0.025        0.010       17.235        4.255        0.061      331.051       -1.184      873.099
01/23/2015  03:42:00      -32.914      -12.916       -6.419       11.047        7.325        8.905      122.046       53.654       79.297        0.077        0.013       35.358        8.651        0.060      330.960       -1.332      873.089
01/23/2015  03:43:00      -41.608       -9.491      -11.476       10.537        6.604        6.028      111.038       43.610       36.339        0.107        0.010       42.677        4.717        0.012      330.819       -1.566      873.106
01/23/2015  03:44:00      -36.593       -7.934       -5.731        6.016        7.931        6.930       36.194       62.905       48.030        0.079        0.007       37.444        3.003        0.006      330.820       -1.562      873.125
01/23/2015  03:45:00      -17.453        7.037        1.797       15.371       10.794        8.324      236.267      116.516       69.290        0.039        0.021       18.818        3.478        0.034      331.000       -1.267      873.147
01/23/2015  03:46:00       18.299       26.091       11.941       16.746       17.658       15.753      280.444      311.819      248.163        0.100        0.042       31.868        9.310        0.085      331.112       -1.084      873.181
01/23/2015  03:47:00       25.523       41.045       -7.212       12.709       10.830       11.533      161.516      117.279      133.008        0.140        0.021       48.333        6.645        0.019      331.063       -1.163      873.223
01/23/2015  03:48:00        3.100       44.876       -8.575        5.186        5.178        4.896       26.893       26.808       23.971        0.109        0.004       44.983        2.561        0.003      331.057       -1.175      873.239
01/23/2015  03:49:00        3.912       48.760       -4.914        5.103        8.213        4.298       26.044       67.453       18.471        0.126        0.006       48.917        3.685        0.006      331.117       -1.076      873.212
01/23/2015  03:50:00        6.299       33.446       -2.288        5.336        6.425        3.345       28.471       41.284       11.191        0.062        0.004       34.034        1.698        0.002      331.094       -1.114      873.169
01/23/2015  03:51:00        8.169       15.515       -1.666        6.362       14.336        5.673       40.480      205.533       32.183        0.029        0.014       17.534        5.636        0.103      331.005       -1.261      873.153
01/23/2015  03:52:00       17.755       10.838        0.477        8.619        7.305        7.158       74.295       53.361       51.239        0.031        0.009       20.801        4.964        0.057      330.999       -1.269      873.157
01/23/2015  03:53:00        9.989       16.890       -4.061        7.770        8.303        5.707       60.371       68.933       32.570        0.028        0.008       19.623        5.093        0.067      330.976       -1.305      873.170
01/23/2015  03:54:00        3.034       -3.097        0.328        6.504        8.362        5.380       42.305       69.929       28.942        0.008        0.007        4.336        3.536        0.665      330.936       -1.371      873.178
01/23/2015  03:55:00       12.803       20.012       -4.837       14.485       16.860       10.489      209.822      284.273      110.029        0.060        0.030       23.757        9.575        0.162      330.965       -1.324      873.182
01/23/2015  03:56:00       27.010       37.841       -0.771       13.597       18.432       14.257      184.873      339.723      203.274        0.144        0.036       46.492       12.448        0.072      330.884       -1.456      873.198
01/23/2015  03:57:00       37.247       33.211       -5.681       16.437       17.949       12.020      270.183      322.165      144.483        0.163        0.037       49.903       10.657        0.046      330.761       -1.661      873.228
01/23/2015  03:58:00       32.623       22.205        0.980       20.139       15.820       13.382      405.573      250.267      179.071        0.120        0.042       39.463       10.667        0.073      330.686       -1.782      873.251
01/23/2015  03:59:00       44.092       36.297       -2.895       19.599       19.976       13.134      384.117      399.046      172.497        0.211        0.048       57.110       10.034        0.031      330.700       -1.759      873.258
01/23/2015  04:00:00       25.207       29.360       -2.273       15.571       22.180       13.242      242.460      491.959      175.353        0.121        0.045       38.697       12.426        0.103      330.719       -1.729      873.251
01/23/2015  04:01:00       26.800        9.938        3.259       15.211       14.762       12.153      231.376      217.922      147.688        0.071        0.030       28.583       13.388        0.219      330.707       -1.748      873.236
01/23/2015  04:02:00       23.255       12.186        2.879       14.406       12.299        7.073      207.535      151.275       50.024        0.055        0.020       26.255        4.666        0.032      330.752       -1.673      873.222
01/23/2015  04:03:00       15.906        2.911        5.600       12.715       15.849        8.229      161.660      251.189       67.717        0.039        0.024       16.170        8.536        0.279      330.839       -1.531      873.208
01/23/2015  04:04:00        3.154       -7.788        2.293       10.386       19.671       13.350      107.867      386.935      178.214        0.037        0.034        8.403        9.314        1.229      330.779       -1.631      873.189
01/23/2015  04:05:00      -17.966      -31.210       -0.889       30.177       11.048       16.554      910.642      122.058      274.046        0.130        0.065       36.012       11.164        0.096      330.750       -1.676      873.176
01/23/2015  04:06:00      -61.274      -32.926       -4.429       30.209       19.792       14.270      912.558      391.711      203.639        0.318        0.075       69.560        7.495        0.012      330.720       -1.728      873.174
01/23/2015  04:07:00      -90.335      -37.991       -7.115       33.162       22.944       16.295     1099.717      526.444      265.538        0.577        0.095       97.998       13.948        0.020      330.687       -1.781      873.184
01/23/2015  04:08:00      -47.847      -33.171        3.357       24.171       19.823       21.031      584.257      392.963      442.317        0.241        0.071       58.220       16.730        0.083      330.742       -1.690      873.196
01/23/2015  04:09:00      -30.973      -19.034       -7.966       23.097       12.558       12.119      533.464      157.704      146.873        0.111        0.042       36.354        6.802        0.035      330.801       -1.595      873.218
01/23/2015  04:10:00      -20.590      -11.323       -3.262        6.994        7.411        6.310       48.915       54.916       39.810        0.035        0.007       23.498        3.902        0.028      330.855       -1.506      873.238
01/23/2015  04:11:00      -14.408        7.169       -3.343       10.183        7.955        6.512      103.701       63.287       42.401        0.024        0.010       16.093        4.521        0.079      330.834       -1.540      873.252
01/23/2015  04:12:00      -20.584        0.389        0.071       13.685       10.983        7.816      187.289      120.621       61.093        0.040        0.018       20.588        8.762        0.181      330.794       -1.607      873.254
01/23/2015  04:13:00      -13.770       -0.392        3.656        7.445        4.118        5.296       55.430       16.959       28.048        0.015        0.005       13.776        3.896        0.080      330.741       -1.693      873.240
01/23/2015  04:14:00      -11.904       -3.645        0.277        4.197        4.301        4.718       17.612       18.497       22.261        0.011        0.003       12.450        2.099        0.028      330.720       -1.728      873.225
01/23/2015  04:15:00      -12.691        5.623       -4.392        5.752        4.312        5.078       33.081       18.597       25.785        0.014        0.004       13.880        4.141        0.089      330.725       -1.719      873.234
01/23/2015  04:16:00       -6.607        8.876       -9.783        8.675        8.091        4.189       75.259       65.462       17.544        0.019        0.008       11.065        3.512        0.101      330.781       -1.630      873.249
01/23/2015  04:17:00      -12.398        5.459       -0.583        7.460        9.836        5.562       55.649       96.740       30.938        0.018        0.009       13.547        3.977        0.086      330.777       -1.633      873.235
01/23/2015  04:18:00      -43.296      -16.354       -1.267       12.976        6.787        5.855      168.374       46.063       34.286        0.120        0.012       46.281        5.243        0.013      330.671       -1.808      873.191
01/23/2015  04:19:00      -55.582      -23.796       -1.818       16.801       11.159        7.872      282.259      124.531       61.965        0.206        0.023       60.462        8.297        0.019      330.630       -1.872      873.177
01/23/2015  04:20:00      -50.005       -7.960       -7.063       12.269       11.385        7.134      150.529      129.619       50.896        0.147        0.017       50.634        3.579        0.005      330.635       -1.866      873.201
01/23/2015  04:21:00      -18.937        2.630       -4.963       13.172       11.901        7.718      173.505      141.622       59.574        0.038        0.019       19.119        8.143        0.181      330.604       -1.918      873.223
01/23/2015  04:22:00      -41.620       -6.872       -2.755       18.253       18.990        8.951      333.163      360.606       80.117        0.128        0.039       42.184        7.162        0.029      330.577       -1.963      873.228
01/23/2015  04:23:00      -73.647       -5.544       -6.157       31.740       15.751       11.641     1007.452      248.092      135.520        0.344        0.070       73.855        7.318        0.010      330.511       -2.068      873.227
01/23/2015  04:24:00      -52.063       -7.641       -0.040       33.513       15.320       12.893     1123.101      234.700      166.225        0.215        0.076       52.620       13.953        0.070      330.463       -2.148      873.225
01/23/2015  04:25:00      -81.302      -14.915       -6.147       16.564       13.081       11.632      274.381      171.116      135.312        0.373        0.029       82.659        5.682        0.005      330.551       -2.005      873.223
01/23/2015  04:26:00      -48.718      -16.105        2.388       22.623       18.625       11.269      511.787      346.898      126.985        0.181        0.049       51.310       10.207        0.040      330.469       -2.139      873.207
01/23/2015  04:27:00      -54.023      -10.902        4.635       24.016       17.681       13.493      576.760      312.629      182.069        0.206        0.054       55.112       13.158        0.057      330.465       -2.144      873.184
01/23/2015  04:28:00      -41.905       -7.400        7.442       27.473       15.094       13.669      754.744      227.838      186.847        0.152        0.058       42.554       15.174        0.127      330.420       -2.218      873.167
01/23/2015  04:29:00      -55.071       -9.969       -4.992       26.547       17.859       11.303      704.755      318.952      127.767        0.215        0.058       55.966        9.504        0.029      330.501       -2.085      873.159
01/23/2015  04:30:00      -70.934      -22.544       -0.713       28.649       16.134       15.403      820.762      260.292      237.246        0.343        0.066       74.430       14.581        0.038      330.519       -2.056      873.158
01/23/2015  04:31:00      -59.827      -23.357        0.531       23.147       22.774       14.370      535.785      518.651      206.488        0.269        0.063       64.225       13.052        0.041      330.511       -2.070      873.170
01/23/2015  04:32:00      -59.692      -32.384        4.932       26.398       19.093       13.519      696.875      364.528      182.760        0.294        0.062       67.911       14.169        0.044      330.465       -2.147      873.197
01/23/2015  04:33:00      -81.225      -39.541       -4.233       18.603       17.590       10.465      346.075      309.405      109.512        0.447        0.038       90.338        8.957        0.010      330.420       -2.220      873.210
01/23/2015  04:34:00      -84.062      -29.244       -2.220       19.445       21.006       12.398      378.123      441.235      153.700        0.445        0.049       89.004        8.612        0.009      330.436       -2.191      873.199
01/23/2015  04:35:00      -94.661       -8.277       -3.481       30.055       16.306       12.916      903.282      265.879      166.826        0.519        0.067       95.022       11.271        0.014      330.356       -2.324      873.173
01/23/2015  04:36:00     -109.791      -14.865       -9.769       33.871       13.378       15.542     1147.235      178.984      241.550        0.697        0.078      110.793        9.143        0.007      330.293       -2.427      873.136
01/23/2015  04:37:00     -122.536      -12.439       -2.338       31.307       21.694       18.517      980.130      470.629      342.867        0.848        0.090      123.166       18.335        0.022      330.319       -2.385      873.124
01/23/2015  04:38:00     -106.573      -20.349      -10.444       27.240       19.129       17.323      742.041      365.923      300.096        0.664        0.070      108.498       15.321        0.020      330.237       -2.518      873.110
01/23/2015  04:39:00     -129.287       -8.033       -9.999       31.269       18.081       14.683      977.729      326.920      215.586        0.920        0.076      129.536       13.236        0.010      330.303       -2.409      873.108
01/23/2015  04:40:00     -145.305      -35.626      -17.863       14.823       16.143       12.182      219.723      260.610      148.391        1.167        0.031      149.609        3.732        0.001      330.318       -2.387      873.114
01/23/2015  04:41:00     -135.843      -53.564       -9.973       26.656       25.751       19.145      710.530      663.095      366.545        1.158        0.087      146.022       10.044        0.005      330.289       -2.434      873.122
01/23/2015  04:42:00     -129.483      -74.227      -13.187       35.209       32.099       22.826     1239.664     1030.358      521.024        1.262        0.140      149.250       23.180        0.024      330.243       -2.509      873.142
01/23/2015  04:43:00     -145.951      -43.287      -12.381       19.116       18.864       18.248      365.424      355.845      333.002        1.219        0.053      152.235       13.457        0.008      330.232       -2.527      873.168
01/23/2015  04:44:00     -107.099      -26.437       -9.475       22.730       17.783       17.272      516.664      316.252      298.307        0.669        0.057      110.313       13.752        0.016      330.333       -2.362      873.196
01/23/2015  04:45:00     -112.077       -7.742       -6.602       26.343       14.640       13.098      693.979      214.321      171.546        0.687        0.054      112.344        9.419        0.007      330.304       -2.407      873.230
01/23/2015  04:46:00     -101.044      -14.557       -4.601       35.199       21.365       16.398     1238.963      456.474      268.897        0.620        0.098      102.088       13.441        0.017      330.397       -2.255      873.247
01/23/2015  04:47:00      -74.677      -11.902       -3.389       40.775       30.050       21.064     1662.583      902.998      443.704        0.437        0.150       75.620       23.277        0.095      330.370       -2.300      873.226
01/23/2015  04:48:00      -63.298      -15.213       -3.926       30.135       27.979       18.732      908.096      782.837      350.905        0.315        0.102       65.100       13.291        0.042      330.353       -2.327      873.194
01/23/2015  04:49:00      -87.489      -15.729       -2.437       41.442       38.116       24.539     1717.445     1452.819      602.162        0.584        0.189       88.892       24.829        0.078      330.233       -2.526      873.144
01/23/2015  04:50:00     -118.594      -26.222       -4.698       35.227       33.902       18.251     1240.972     1149.373      333.110        0.875        0.136      121.458       13.500        0.012      330.182       -2.609      873.117
01/23/2015  04:51:00     -122.157      -37.197       -7.915       29.138       28.324       17.859      849.020      802.227      318.952        0.917        0.099      127.695       16.086        0.016      330.197       -2.584      873.090
01/23/2015  04:52:00     -143.646      -32.173      -15.018       31.333       19.194       22.975      981.781      368.394      527.836        1.189        0.094      147.205       22.090        0.023      330.220       -2.548      873.076
01/23/2015  04:53:00     -111.783      -38.056       -1.885       36.107       33.383       20.050     1303.717     1114.428      402.012        0.838        0.141      118.083       19.944        0.029      330.203       -2.575      873.066
01/23/2015  04:54:00     -110.313      -36.978       -5.126       43.406       38.082       26.208     1884.083     1450.216      686.839        0.879        0.201      116.345       19.293        0.027      330.180       -2.612      873.082
01/23/2015  04:55:00     -118.803      -29.126      -12.168       51.710       37.544       31.204     2673.941     1409.561      973.672        1.008        0.253      122.321       33.330        0.074      330.196       -2.585      873.110
01/23/2015  04:56:00     -120.877      -37.585       -0.750       41.549       45.632       25.961     1726.312     2082.321      673.961        1.025        0.224      126.586       23.459        0.034      330.162       -2.643      873.141
01/23/2015  04:57:00     -139.850      -40.958      -10.624       32.174       44.083       29.602     1035.137     1943.330      876.290        1.260        0.193      145.725       17.859        0.015      330.246       -2.505      873.147
01/23/2015  04:58:00     -140.490      -43.694       -6.669       46.280       42.556       28.596     2141.802     1811.003      817.712        1.323        0.239      147.128       28.611        0.038      330.173       -2.623      873.162
01/23/2015  04:59:00     -126.521      -29.909       -9.248       27.819       44.231       22.990      773.877     1956.364      528.533        1.012        0.163      130.008       14.474        0.012      330.294       -2.424      873.180
01/23/2015  05:00:00      -82.293      -12.357        2.715       43.690       40.514       23.984     1908.855     1641.364      575.213        0.553        0.206       83.215       24.676        0.088      330.288       -2.434      873.175
01/23/2015  05:01:00     -123.906      -15.009       -0.766       50.500       37.536       27.394     2550.206     1408.941      750.456        1.014        0.235      124.812       31.237        0.063      330.289       -2.434      873.144
01/23/2015  05:02:00     -102.623      -19.411       -0.866       45.310       27.048       21.158     2052.988      731.614      447.663        0.707        0.162      104.443       22.090        0.045      330.180       -2.613      873.106
01/23/2015  05:03:00      -81.937       -1.341       -1.567       46.820       21.280       17.281     2192.132      452.847      298.619        0.483        0.147       81.948       20.368        0.062      330.202       -2.577      873.112
01/23/2015  05:04:00     -117.260       11.531       -9.423       50.586       30.146       18.995     2558.959      908.755      360.823        0.890        0.191      117.825       22.176        0.035      330.348       -2.338      873.132
01/23/2015  05:05:00     -121.215      -12.130       -8.281       44.991       27.067       24.206     2024.178      732.613      585.921        0.913        0.167      121.821       27.562        0.051      330.446       -2.177      873.133
01/23/2015  05:06:00     -109.473       -0.232      -13.131       29.300       24.726       16.108      858.509      611.372      259.466        0.694        0.086      109.474       15.977        0.021      330.452       -2.166      873.136
01/23/2015  05:07:00     -122.389       20.470       -7.914       37.771       38.168       22.818     1426.627     1456.815      520.669        0.943        0.170      124.089       20.581        0.028      330.548       -2.009      873.149
01/23/2015  05:08:00     -117.885       -3.645      -10.802       42.370       33.547       21.020     1795.200     1125.403      441.835        0.869        0.168      117.942       21.709        0.034      330.369       -2.302      873.152
01/23/2015  05:09:00      -65.002      -15.566       -0.433       31.836       23.159       17.800     1013.554      536.323      316.847        0.317        0.093       66.840       13.720        0.042      330.287       -2.437      873.133
01/23/2015  05:10:00     -102.614      -28.139       -4.644       35.992       34.511       17.332     1295.438     1191.025      300.384        0.706        0.139      106.403       14.266        0.018      330.209       -2.564      873.136
01/23/2015  05:11:00      -82.719       -5.421        3.459       47.317       34.471       24.678     2238.896     1188.252      609.013        0.546        0.202       82.897       27.007        0.106      330.086       -2.766      873.159
01/23/2015  05:12:00      -87.730      -28.865       -3.691       31.449       28.983       17.579      989.012      840.037      309.037        0.534        0.107       92.357       12.865        0.019      330.068       -2.796      873.172
01/23/2015  05:13:00      -84.825      -49.302       -0.452       22.205       26.231       18.065      493.073      688.056      326.342        0.557        0.075       98.112        7.594        0.006      330.106       -2.733      873.184
01/23/2015  05:14:00      -16.206      -19.099        2.296       16.356       16.853       14.373      267.512      284.034      206.589        0.070        0.038       25.048       11.786        0.221      330.188       -2.601      873.202
01/23/2015  05:15:00      -43.676      -11.663      -10.430       16.609       14.399       12.113      275.848      207.343      146.723        0.139        0.031       45.206        3.849        0.007      330.241       -2.511      873.218
01/23/2015  05:16:00      -51.141      -24.470      -10.536       17.681       16.741        9.191      312.619      280.277       84.483        0.200        0.034       56.694        7.841        0.019      330.282       -2.444      873.233
01/23/2015  05:17:00      -27.718      -20.274       -2.947       20.029       15.047       14.113      401.142      226.415      199.189        0.101        0.041       34.341       14.478        0.178      330.273       -2.459      873.228
01/23/2015  05:18:00      -27.675        3.385        2.070       13.163       16.553        9.083      173.266      273.998       82.500        0.066        0.026       27.882        7.435        0.071      330.295       -2.425      873.209
01/23/2015  05:19:00      -42.093      -17.750       -7.042       17.829       15.671       11.070      317.889      245.575      122.552        0.141        0.034       45.683        8.580        0.035      330.279       -2.449      873.188
01/23/2015  05:20:00      -26.403      -23.662       -4.251       34.068       12.410       15.392     1160.621      154.018      236.906        0.141        0.078       35.455       17.485        0.243      330.232       -2.527      873.176
01/23/2015  05:21:00      -37.144      -18.850        5.076       25.118       14.601       13.152      630.922      213.203      172.966        0.139        0.051       41.653       11.457        0.076      330.174       -2.622      873.180
01/23/2015  05:22:00      -99.478      -27.245      -16.098       16.701       12.942       13.542      278.939      167.497      183.380        0.576        0.031      103.141        6.116        0.004      330.131       -2.693      873.203
01/23/2015  05:23:00     -115.675      -15.239      -13.560       28.585       19.468       15.171      817.108      379.014      230.158        0.761        0.071      116.674       14.902        0.016      330.080       -2.777      873.234
01/23/2015  05:24:00     -129.986       -7.672      -18.925       15.051       14.200       11.384      226.521      201.633      129.592        0.894        0.028      130.212        7.484        0.003      330.095       -2.751      873.276
01/23/2015  05:25:00     -102.930      -21.881      -16.131       20.076       17.786       12.433      403.056      316.350      154.576        0.610        0.044      105.230        9.027        0.007      330.100       -2.744      873.309
01/23/2015  05:26:00     -107.604      -13.987      -18.253       14.001       14.578       10.561      196.041      212.527      111.538        0.631        0.026      108.509        9.873        0.008      330.157       -2.651      873.334
01/23/2015  05:27:00     -106.096       -0.278      -18.737       11.301       11.800       10.052      127.721      139.233      101.038        0.599        0.018      106.097        4.248        0.002      330.205       -2.571      873.323
01/23/2015  05:28:00      -93.986       -3.989      -16.300       10.776        8.732       11.124      116.131       76.242      123.754        0.472        0.016       94.070        5.057        0.003      330.274       -2.458      873.294
01/23/2015  05:29:00      -88.497       -6.967      -21.198       17.858       11.403       11.676      318.914      130.031      136.321        0.446        0.029       88.771        5.869        0.004      330.287       -2.435      873.273
01/23/2015  05:30:00      -90.034       -7.458      -14.198       26.190       16.033       10.997      685.914      257.048      120.932        0.471        0.053       90.342       10.974        0.015      330.362       -2.314      873.272
01/23/2015  05:31:00      -85.903       -7.593      -12.299       24.957       20.467       14.659      622.845      418.916      214.873        0.442        0.063       86.237        9.434        0.012      330.340       -2.348      873.280
01/23/2015  05:32:00      -79.354      -23.201      -10.799       21.570       20.858       14.320      465.273      435.069      205.067        0.403        0.055       82.676       10.401        0.016      330.369       -2.301      873.288
01/23/2015  05:33:00      -80.097      -35.461      -12.150       18.029       14.864        9.539      325.049      220.952       91.001        0.423        0.032       87.596        6.778        0.006      330.322       -2.379      873.292
01/23/2015  05:34:00     -104.764      -35.845      -10.301       17.880       20.886       13.447      319.693      436.236      180.817        0.665        0.047      110.727        9.559        0.007      330.165       -2.637      873.303
01/23/2015  05:35:00     -106.914      -14.219      -11.524       24.601       15.189       11.863      605.188      230.695      140.729        0.637        0.049      107.855        7.057        0.004      330.114       -2.722      873.323
01/23/2015  05:36:00      -84.067      -14.122       -5.815       22.292       17.402       14.256      496.918      302.845      203.220        0.415        0.050       85.244       11.390        0.018      330.133       -2.690      873.356
01/23/2015  05:37:00      -98.807       -4.587       -3.399       22.168       14.322       11.313      491.414      205.108      127.973        0.531        0.041       98.913       10.510        0.011      330.089       -2.762      873.401
01/23/2015  05:38:00     -104.640       -3.978      -10.008       20.700       10.874       12.915      428.508      118.248      166.801        0.589        0.036      104.715       10.978        0.011      330.058       -2.814      873.436
01/23/2015  05:39:00     -115.359      -14.786      -10.069       22.725       16.167       17.014      516.406      261.385      289.481        0.735        0.053      116.302       14.446        0.015      330.007       -2.896      873.462
01/23/2015  05:40:00     -100.251      -12.938       -5.837       31.499       18.708       15.427      992.176      349.975      237.996        0.592        0.079      101.083       14.254        0.020      330.042       -2.838      873.483
01/23/2015  05:41:00     -103.964       -3.321       -5.389       27.525       16.245       16.653      757.649      263.894      277.313        0.607        0.065      104.018       16.575        0.025      330.063       -2.804      873.497
01/23/2015  05:42:00     -125.056       13.444       -8.320       14.124       10.861        9.811      199.475      117.969       96.251        0.815        0.021      125.777        5.115        0.002      330.060       -2.808      873.503
01/23/2015  05:43:00     -116.869       -0.497       -6.251       23.618       15.489       15.988      557.808      239.910      255.625        0.738        0.053      116.870       13.180        0.013      330.085       -2.767      873.484
01/23/2015  05:44:00      -99.148       -5.325       -1.124       32.822       17.914       17.746     1077.288      320.923      314.916        0.579        0.086       99.291       17.422        0.031      330.063       -2.804      873.478
01/23/2015  05:45:00      -85.477      -13.594       -2.075       22.208       18.029       11.899      493.174      325.028      141.577        0.423        0.048       86.551       11.686        0.018      330.047       -2.830      873.479
01/23/2015  05:46:00      -64.925      -20.190        1.799       22.280       19.620       16.324      496.383      384.962      266.471        0.289        0.057       67.992       14.033        0.043      330.094       -2.753      873.486
01/23/2015  05:47:00      -51.436      -26.505        7.704       29.924       29.388       18.038      895.470      863.644      325.377        0.275        0.104       57.863       17.543        0.092      330.148       -2.665      873.492
01/23/2015  05:48:00      -63.947      -38.218        2.445       26.352       24.243       15.448      694.444      587.704      238.636        0.354        0.076       74.497        8.618        0.013      330.167       -2.634      873.492
01/23/2015  05:49:00      -57.523      -28.429        5.993       26.002       18.376       13.473      676.089      337.673      181.532        0.267        0.060       64.165       14.453        0.051      330.159       -2.647      873.495
01/23/2015  05:50:00      -64.387      -20.276       -1.256       23.668       19.163       14.900      560.179      367.235      222.001        0.285        0.057       67.504        9.219        0.019      330.156       -2.651      873.484
01/23/2015  05:51:00      -54.754      -11.304        5.713       21.452       18.064       12.662      460.172      326.300      160.320        0.205        0.047       55.908       11.172        0.040      330.071       -2.792      873.454
01/23/2015  05:52:00      -96.773      -22.191       -2.427       17.471       24.381       11.783      305.228      594.422      138.836        0.545        0.052       99.284        7.997        0.006      330.119       -2.713      873.424
01/23/2015  05:53:00     -103.176      -11.113      -14.461       17.300       16.025       11.543      299.275      256.801      133.235        0.583        0.034      103.773        8.548        0.007      330.052       -2.823      873.435
01/23/2015  05:54:00      -78.180      -11.050       -5.410       22.653       17.019       12.090      513.137      289.646      146.176        0.361        0.047       78.957        9.980        0.016      330.063       -2.804      873.448
01/23/2015  05:55:00      -83.791      -14.540       -4.376       19.623       21.326       12.825      385.057      454.815      164.478        0.413        0.050       85.043        7.426        0.008      330.056       -2.816      873.453
01/23/2015  05:56:00      -62.730      -18.683       -1.667       25.324       16.765       16.795      641.308      281.082      282.081        0.275        0.060       65.453       13.825        0.045      329.977       -2.945      873.459
01/23/2015  05:57:00      -89.659      -30.718       -6.328       16.428       16.747        9.317      269.882      280.477       86.815        0.483        0.032       94.776        8.474        0.008      330.004       -2.901      873.485
01/23/2015  05:58:00      -45.800      -28.508       -0.017       31.991       19.103       14.668     1023.413      364.924      215.162        0.226        0.080       53.947       17.197        0.102      329.985       -2.932      873.523
01/23/2015  05:59:00      -48.696      -23.349       -1.620       22.864       25.106       15.089      522.745      630.305      227.688        0.215        0.069       54.005       10.717        0.039      329.978       -2.943      873.555
01/23/2015  06:00:00      -56.041      -20.994       -4.879       17.188       17.027       12.032      295.433      289.902      144.777        0.217        0.037       59.845        5.357        0.008      329.981       -2.938      873.551
01/23/2015  06:01:00      -54.493      -20.674       -2.051       22.868       22.298       10.729      522.946      497.182      115.102        0.227        0.057       58.283        7.758        0.018      329.878       -3.108      873.521
01/23/2015  06:02:00      -90.423      -25.979      -11.407       33.466       16.939       19.752     1119.947      286.924      390.160        0.539        0.090       94.081       18.872        0.040      329.816       -3.209      873.503
01/23/2015  06:03:00      -88.583      -30.846      -15.267       23.824       25.603       12.918      567.580      655.516      166.887        0.521        0.069       93.800        5.273        0.003      329.847       -3.158      873.490
01/23/2015  06:04:00      -82.745      -34.936      -19.222       18.600       17.206       12.218      345.968      296.031      149.287        0.461        0.040       89.817        6.484        0.005      329.793       -3.246      873.491
01/23/2015  06:05:00      -85.396      -34.862       -5.424       28.260       13.787       15.862      798.651      190.075      251.613        0.489        0.062       92.238       14.573        0.025      329.818       -3.204      873.493
01/23/2015  06:06:00     -102.871      -22.480      -19.972       14.135       16.311       11.262      199.796      266.036      126.837        0.604        0.030      105.299        4.759        0.002      329.752       -3.311      873.495
01/23/2015  06:07:00      -87.477      -29.117      -12.137       21.072       21.208       19.479      444.017      449.782      379.430        0.496        0.064       92.195       13.222        0.021      329.806       -3.224      873.486
01/23/2015  06:08:00      -88.330      -19.747       -9.783       25.432       22.741       18.421      646.773      517.162      339.337        0.490        0.075       90.510       13.304        0.022      329.749       -3.319      873.484
01/23/2015  06:09:00      -86.216      -18.149       -4.612       16.877       19.724       16.342      284.820      389.049      267.056        0.436        0.047       88.106       10.989        0.016      329.842       -3.165      873.478
01/23/2015  06:10:00      -85.533      -18.920       -8.433       19.096       16.435       15.024      364.653      270.107      225.735        0.430        0.043       87.601       12.867        0.022      329.742       -3.328      873.468
01/23/2015  06:11:00      -59.537      -17.556       -6.546       21.069       22.236       14.468      443.897      494.432      209.311        0.252        0.057       62.072       12.556        0.041      329.779       -3.268      873.448
01/23/2015  06:12:00      -65.729      -17.093       -9.001       16.563       14.826       12.929      274.330      219.814      167.147        0.268        0.033       67.915        7.944        0.014      329.871       -3.120      873.422
01/23/2015  06:13:00      -74.906       -8.462      -10.855       10.022       10.467        9.520      100.438      109.549       90.640        0.305        0.015       75.383        4.773        0.004      329.889       -3.090      873.391
01/23/2015  06:14:00      -67.349       -6.086      -11.338        8.024       11.241        8.520       64.380      126.355       72.597        0.248        0.013       67.624        6.282        0.009      329.937       -3.010      873.367
01/23/2015  06:15:00      -49.640      -19.618       -7.005       10.732        9.726        5.351      115.168       94.599       28.628        0.157        0.012       53.376        4.717        0.008      330.019       -2.878      873.348
01/23/2015  06:16:00      -39.723      -17.437       -4.457       10.085        7.265        5.483      101.706       52.774       30.064        0.104        0.009       43.382        1.941        0.002      330.103       -2.739      873.324
01/23/2015  06:17:00      -23.470      -17.972       -6.475       16.464        9.054        6.819      271.077       81.966       46.494        0.066        0.020       29.561        4.516        0.023      330.177       -2.616      873.314
01/23/2015  06:18:00      -34.257      -10.105       -7.693        8.425        7.565        7.685       70.984       57.230       59.064        0.076        0.009       35.717        1.094        0.001      330.159       -2.647      873.313
01/23/2015  06:19:00      -34.778        9.097       -8.766        9.618        6.222        5.567       92.512       38.708       30.990        0.077        0.008       35.948        3.785        0.011      329.989       -2.926      873.322
01/23/2015  06:20:00      -46.569       11.695      -11.001       15.135        9.492        7.422      229.065       90.094       55.093        0.140        0.019       48.015        6.041        0.016      330.054       -2.819      873.334
01/23/2015  06:21:00      -50.704       14.597       -4.260       16.125       11.148       13.005      260.012      124.273      169.121        0.168        0.028       52.763       11.239        0.045      330.062       -2.806      873.364
01/23/2015  06:22:00      -62.757       10.922       -2.338       14.096       17.292        9.528      198.696      299.030       90.787        0.233        0.029       63.700        5.681        0.008      330.010       -2.891      873.381
01/23/2015  06:23:00      -49.859       -5.775       -5.454       14.940       19.354       11.963      223.196      374.588      143.110        0.164        0.037       50.192        8.709        0.030      329.838       -3.174      873.385
01/23/2015  06:24:00      -42.453       13.634       -8.880       30.703       25.794       11.814      942.653      665.356      139.567        0.191        0.087       44.588       10.502        0.055      329.918       -3.042      873.380
01/23/2015  06:25:00      -63.174       -0.660      -10.272       26.457       14.515       12.642      699.961      210.675      159.813        0.258        0.054       63.178        7.473        0.014      329.826       -3.193      873.389
01/23/2015  06:26:00      -44.713       -9.023       -9.119       19.625       19.055        9.849      385.151      363.101       96.996        0.150        0.042       45.615        6.265        0.019      329.789       -3.254      873.418
01/23/2015  06:27:00      -21.122      -25.441        4.627       23.969       11.687       10.441      574.509      136.584      109.022        0.097        0.041       33.066       12.532        0.144      329.803       -3.230      873.432
01/23/2015  06:28:00       -6.461      -13.984        5.256        7.450        8.046        9.282       55.502       64.743       86.158        0.024        0.010       15.404        6.914        0.201      329.907       -3.062      873.433
01/23/2015  06:29:00       -6.292      -10.911       -0.771        7.974        5.268        5.329       63.591       27.752       28.395        0.014        0.006       12.595        2.668        0.045      330.147       -2.668      873.441
01/23/2015  06:30:00      -30.708       -4.253       -2.844       10.641        7.186        5.252      113.241       51.636       27.581        0.058        0.010       31.001        2.227        0.005      330.088       -2.763      873.480
01/23/2015  06:31:00      -42.858        0.346       -1.935        8.488        7.769        7.119       72.050       60.364       50.679        0.101        0.009       42.859        4.497        0.011      329.856       -3.144      873.539
01/23/2015  06:32:00      -30.919        9.978       -7.169       11.541       12.513       11.988      133.192      156.584      143.703        0.077        0.022       32.489        4.055        0.016      330.026       -2.864      873.562
01/23/2015  06:33:00      -27.347        9.549       -3.794       17.148       14.643        7.259      294.057      214.422       52.693        0.071        0.028       28.966        6.668        0.053      330.009       -2.893      873.551
01/23/2015  06:34:00      -22.499       32.445       -3.332       17.129       20.853       15.240      293.389      434.847      232.265        0.127        0.048       39.483       12.503        0.100      330.196       -2.588      873.557
01/23/2015  06:35:00       -0.241       81.582       -6.715       23.122       26.666       14.092      534.616      711.080      198.593        0.407        0.072       81.582       12.298        0.023      330.474       -2.130      873.561
01/23/2015  06:36:00        3.727      102.922      -10.082        9.280       12.641        7.487       86.116      159.785       56.060        0.551        0.015      102.989        5.016        0.002      330.302       -2.411      873.557
01/23/2015  06:37:00        3.907      129.817      -18.625       10.489       14.865        7.911      110.022      220.976       62.589        0.880        0.020      129.876        6.407        0.002      330.359       -2.319      873.538
01/23/2015  06:38:00        1.278      127.033      -19.377        9.704       14.918        7.340       94.177      222.554       53.879        0.844        0.019      127.040        6.396        0.003      330.368       -2.306      873.547
01/23/2015  06:39:00       -2.912      120.061      -17.777        9.518       14.097        6.169       90.587      198.712       38.051        0.753        0.016      120.097        3.954        0.001      330.376       -2.291      873.581
01/23/2015  06:40:00        2.028      103.937      -16.205       11.364       11.908        7.268      129.150      141.789       52.829        0.570        0.016      103.957        6.254        0.004      330.410       -2.235      873.601
01/23/2015  06:41:00        3.996       92.098      -11.407        9.920       15.204        7.301       98.409      231.155       53.299        0.451        0.019       92.184        4.443        0.002      330.407       -2.241      873.603
01/23/2015  06:42:00       20.874      108.381      -15.267       11.155       14.419        7.181      124.435      207.900       51.564        0.640        0.019      110.373        6.085        0.003      330.466       -2.144      873.611
01/23/2015  06:43:00       32.201       63.780       -8.947       16.389       42.430       13.055      268.613     1800.281      170.434        0.371        0.112       71.448       19.116        0.072      330.409       -2.238      873.640
01/23/2015  06:44:00       31.221       39.198       -3.308       15.637       19.315       15.415      244.513      373.061      237.607        0.169        0.043       50.113       13.209        0.069      330.380       -2.285      873.665
01/23/2015  06:45:00       29.535       31.750       -5.138       23.207       14.066       10.068      538.572      197.851      101.371        0.137        0.042       43.363        6.091        0.020      330.367       -2.306      873.685
01/23/2015  06:46:00       40.589       32.841        2.781       17.592        8.739        9.717      309.462       76.373       94.427        0.161        0.024       52.211        5.659        0.012      330.444       -2.181      873.712
01/23/2015  06:47:00       33.662       29.686        0.879       19.151       12.999       12.336      366.773      168.982      152.180        0.135        0.034       44.882        9.715        0.047      330.446       -2.177      873.754
01/23/2015  06:48:00       44.156       28.303        1.894       17.841       12.647       10.471      318.294      159.937      109.645        0.167        0.029       52.448        9.428        0.032      330.453       -2.166      873.777
01/23/2015  06:49:00       54.391       15.499        2.486        8.312        8.028        9.424       69.095       64.455       88.805        0.171        0.011       56.556        5.478        0.009      330.497       -2.091      873.751
01/23/2015  06:50:00       38.294        8.727        8.113       13.928       10.015        9.902      193.981      100.296       98.055        0.100        0.020       39.276        7.143        0.033      330.489       -2.107      873.710
01/23/2015  06:51:00       41.582       -3.052        4.106       13.685        8.726        7.642      187.284       76.142       58.401        0.104        0.016       41.694        6.846        0.027      330.559       -1.990      873.700
01/23/2015  06:52:00       23.868       -4.176        2.037       14.638        6.601        4.478      214.264       43.575       20.048        0.043        0.014       24.230        2.493        0.011      330.597       -1.928      873.714
01/23/2015  06:53:00      -40.058      -15.605       -4.818       12.453       10.391        7.442      155.073      107.976       55.385        0.109        0.016       42.990        9.095        0.045      330.168       -2.633      873.727
01/23/2015  06:54:00      -55.775      -24.636      -13.458        6.009        6.623        6.536       36.114       43.861       42.717        0.201        0.006       60.973        1.442        0.001      330.115       -2.719      873.752
01/23/2015  06:55:00      -54.640       -9.638       -9.707        9.583        9.023        7.985       91.838       81.419       63.763        0.170        0.012       55.483        4.802        0.007      330.049       -2.827      873.805
01/23/2015  06:56:00      -67.715      -14.870      -10.984       10.601        9.835        8.357      112.373       96.732       69.844        0.260        0.014       69.328        5.643        0.007      329.984       -2.932      873.859
01/23/2015  06:57:00      -68.378      -10.237      -10.360        9.025        8.531        7.943       81.452       72.771       63.090        0.255        0.011       69.140        2.302        0.001      329.946       -2.995      873.883
01/23/2015  06:58:00      -78.085       -8.963      -13.404       15.990       11.847       10.605      255.668      140.357      112.460        0.343        0.025       78.598       10.273        0.017      329.894       -3.081      873.904
01/23/2015  06:59:00      -90.939       -0.184      -12.701       22.648       11.551       11.092      512.933      133.436      123.030        0.460        0.038       90.939        9.623        0.011      329.958       -2.978      873.943
01/23/2015  07:00:00     -111.973        1.936      -16.284       19.699       15.311       11.235      388.067      234.427      126.225        0.678        0.037      111.990        8.311        0.006      329.970       -2.957      873.974
01/23/2015  07:01:00      -94.104       -7.069      -10.948       21.311       18.208        9.959      454.155      331.531       99.191        0.495        0.044       94.369        7.047        0.006      329.918       -3.042      873.998
01/23/2015  07:02:00      -95.386       -4.744      -10.073       22.216       12.341       13.163      493.565      152.300      173.254        0.502        0.041       95.504       10.322        0.012      329.960       -2.972      874.039
01/23/2015  07:03:00     -101.676      -10.881      -11.854        7.938        7.421        6.779       63.014       55.073       45.954        0.538        0.008      102.257        3.657        0.001      330.103       -2.739      874.074
01/23/2015  07:04:00      -90.545      -15.911      -12.944       10.955        9.727        5.873      120.017       94.622       34.491        0.443        0.012       91.932        2.025        0.000      330.088       -2.764      874.084
01/23/2015  07:05:00      -90.105      -28.473      -10.421       11.835       11.031        8.754      140.066      121.688       76.634        0.469        0.017       94.497        3.371        0.001      330.020       -2.874      874.093
01/23/2015  07:06:00      -99.886      -29.336      -12.491       17.504        8.161        7.634      306.397       66.605       58.282        0.571        0.022      104.104        6.375        0.004      330.087       -2.767      874.098
01/23/2015  07:07:00      -82.130      -37.089       -6.400       14.103       14.171       10.180      198.887      200.807      103.627        0.433        0.025       90.116        6.589        0.005      330.117       -2.715      874.080
01/23/2015  07:08:00      -70.549      -34.631       -2.897       11.910        9.446        6.755      141.847       89.220       45.632        0.323        0.014       78.591        3.731        0.002      330.048       -2.827      874.053
01/23/2015  07:09:00      -64.731      -41.067       -3.800       24.906       22.323       16.336      620.321      498.304      266.860        0.364        0.069       76.659        6.165        0.006      330.271       -2.464      874.057
01/23/2015  07:10:00      -29.829      -17.143       -1.583       34.240       16.784       13.028     1172.379      281.718      169.717        0.140        0.081       34.404       16.071        0.218      330.254       -2.489      874.070
01/23/2015  07:11:00      -13.692      -12.223        3.602       26.114       15.148        8.654      681.929      229.472       74.893        0.067        0.049       18.354        7.451        0.165      330.326       -2.373      874.077
01/23/2015  07:12:00      -63.630      -16.853       -6.425       17.928       14.950       12.302      321.425      223.494      151.348        0.254        0.035       65.824        7.071        0.012      330.331       -2.365      874.103
01/23/2015  07:13:00      -56.821      -20.394       -5.154       16.238       21.545       11.464      263.675      464.208      131.415        0.227        0.043       60.371        5.561        0.008      330.247       -2.503      874.146
01/23/2015  07:14:00      -87.160      -51.656       -3.365       26.197       26.100       14.903      686.268      681.208      222.109        0.593        0.079      101.317        7.079        0.005      330.240       -2.514      874.169
01/23/2015  07:15:00      -84.209      -61.652        5.745       32.112       37.832       20.636     1031.203     1431.225      425.827        0.691        0.144      104.365       13.696        0.017      330.192       -2.592      874.174
01/23/2015  07:16:00     -124.213      -22.804      -11.162       41.598       28.487       20.768     1730.361      811.486      431.309        0.952        0.149      126.289       19.367        0.024      329.833       -3.181      874.170
01/23/2015  07:17:00     -169.741      -13.253       -6.938       48.578       42.364       29.179     2359.777     1794.729      851.410        1.702        0.250      170.258       27.312        0.026      329.754       -3.311      874.182
01/23/2015  07:18:00     -165.383      -62.733        2.441       42.287       34.591       22.906     1788.226     1196.567      524.694        1.740        0.175      176.881       18.451        0.011      329.796       -3.242      874.193
01/23/2015  07:19:00     -153.409      -61.080       -1.001       47.482       34.714       21.261     2254.538     1205.043      452.020        1.559        0.196      165.121       23.177        0.020      329.938       -3.010      874.221
01/23/2015  07:20:00      -98.617      -29.627        3.258       40.058       36.534       25.103     1604.610     1334.711      630.137        0.709        0.178      102.972       26.164        0.065      329.964       -2.966      874.250
01/23/2015  07:21:00     -119.777      -46.658       -5.237       30.839       23.080       16.956      951.013      532.670      287.507        0.916        0.089      128.544       11.079        0.007      330.033       -2.853      874.257
01/23/2015  07:22:00     -105.064      -23.820       -0.387       24.227       30.089       17.680      586.947      905.362      312.591        0.671        0.090      107.731       15.211        0.020      330.071       -2.791      874.272
01/23/2015  07:23:00      -88.862      -42.599       -1.853       22.763       20.321       16.130      518.147      412.926      260.183        0.545        0.060       98.545       14.654        0.022      330.122       -2.709      874.295
01/23/2015  07:24:00      -96.113      -50.389        0.961       25.850       25.374       18.257      668.199      643.860      333.324        0.671        0.082      108.521       13.893        0.016      330.165       -2.637      874.305
01/23/2015  07:25:00     -102.024      -56.687       -2.412       29.306       21.039       17.365      858.849      442.626      301.553        0.762        0.080      116.715       16.617        0.020      330.171       -2.628      874.314
01/23/2015  07:26:00     -114.423      -45.481       -4.302       21.798       21.581       14.150      475.167      465.760      200.218        0.816        0.057      123.130       11.408        0.009      330.136       -2.684      874.328
01/23/2015  07:27:00     -127.296      -58.072       -6.669       25.339       21.989       15.982      642.055      483.523      255.436        1.050        0.069      139.917       14.181        0.010      330.146       -2.667      874.328
01/23/2015  07:28:00     -121.630      -34.915       -9.981       30.471       25.934       16.694      928.486      672.556      278.680        0.900        0.094      126.542       12.645        0.010      330.011       -2.888      874.320
01/23/2015  07:29:00     -101.308      -32.537       -6.781       21.053       18.331       12.839      443.216      336.029      164.851        0.616        0.047      106.405       11.541        0.012      330.063       -2.805      874.329
01/23/2015  07:30:00      -92.031      -28.096       -5.759       17.746       14.491       12.005      314.927      210.001      144.124        0.498        0.033       96.224        8.547        0.008      330.162       -2.642      874.342
01/23/2015  07:31:00      -70.389      -19.832       -3.505       17.041       15.493        9.122      290.384      240.032       83.202        0.299        0.031       73.129        6.484        0.008      330.167       -2.633      874.356
01/23/2015  07:32:00      -50.834      -13.845        3.670       31.492       34.140       17.983      991.766     1165.525      323.372        0.263        0.124       52.685       12.768        0.059      330.223       -2.541      874.364
01/23/2015  07:33:00      -65.759      -10.996        1.257       45.473       25.297       22.774     2067.772      639.963      518.632        0.384        0.161       66.672       25.145        0.142      330.319       -2.384      874.362
01/23/2015  07:34:00      -71.628       -4.186       -0.708       30.359       25.547       15.152      921.682      652.629      229.594        0.348        0.090       71.750       13.238        0.034      330.290       -2.429      874.367
01/23/2015  07:35:00     -107.783      -14.893      -13.163       25.179       20.312       15.285      633.975      412.566      233.618        0.665        0.064      108.807       12.992        0.014      330.258       -2.484      874.387
01/23/2015  07:36:00      -65.533      -10.617       -4.552       30.806       24.160       20.578      948.994      583.694      423.457        0.319        0.098       66.388       20.170        0.092      330.287       -2.437      874.416
01/23/2015  07:37:00      -54.768      -17.943       -0.138       26.648       17.900       16.199      710.134      320.424      262.405        0.231        0.065       57.632       15.576        0.073      330.269       -2.467      874.428
01/23/2015  07:38:00      -63.292      -29.039       -5.687       19.916       21.402       10.602      396.649      458.052      112.410        0.292        0.048       69.636        9.584        0.019      330.277       -2.453      874.423
01/23/2015  07:39:00      -67.979      -29.333        0.545       25.507       25.821       19.336      650.604      666.708      373.880        0.359        0.085       74.038       15.894        0.046      330.320       -2.382      874.409
01/23/2015  07:40:00      -58.108      -35.217       -3.814       22.648       19.389       14.835      512.939      375.947      220.073        0.287        0.055       67.947       12.358        0.033      330.271       -2.462      874.403
01/23/2015  07:41:00      -44.068      -22.811       -9.187       25.120       12.889        9.934      631.038      166.133       98.694        0.172        0.045       49.622        7.402        0.022      330.382       -2.282      874.412
01/23/2015  07:42:00       -7.573      -13.333        0.474       15.822       16.044        9.869      250.324      257.417       97.392        0.042        0.030       15.334        7.708        0.253      330.455       -2.162      874.419
01/23/2015  07:43:00      -27.357      -10.476        4.287       24.388       17.429       12.993      594.791      303.786      168.814        0.097        0.053       29.294       15.554        0.282      330.357       -2.322      874.423
01/23/2015  07:44:00      -53.901      -17.992       -3.075       16.978       15.889       12.514      288.252      252.472      156.607        0.197        0.035       56.825        7.774        0.019      330.305       -2.407      874.421
01/23/2015  07:45:00      -27.542      -20.000       -0.683       17.363       20.966       14.356      301.462      439.589      206.093        0.105        0.047       34.038        7.630        0.050      330.354       -2.327      874.433
01/23/2015  07:46:00       -1.289       -3.734       -6.968        6.493        7.560        5.764       42.161       57.157       33.218        0.010        0.007        3.950        2.255        0.326      330.692       -1.773      874.426
01/23/2015  07:47:00        8.865       -4.251       -3.041       11.972        7.510        8.562      143.323       56.401       73.304        0.019        0.014        9.831        5.052        0.264      330.874       -1.473      874.444
01/23/2015  07:48:00       10.541        4.336       11.717       11.695        7.561        4.501      136.769       57.174       20.255        0.024        0.011       11.398        3.944        0.120      330.959       -1.334      874.464
01/23/2015  07:49:00       14.764       -1.909       10.410       10.965       15.043       12.366      120.227      226.287      152.911        0.041        0.025       14.887       11.807        0.629      330.871       -1.477      874.471
01/23/2015  07:50:00       27.910       42.436       25.101       18.830       14.305       19.524      354.560      204.620      381.189        0.207        0.047       50.791        7.569        0.022      330.671       -1.807      874.467
01/23/2015  07:51:00       17.717       56.867       48.578       22.179       22.982       19.587      491.893      528.180      383.658        0.366        0.070       59.563       10.474        0.031      330.568       -1.977      874.452
01/23/2015  07:52:00       65.679       64.827       45.162       23.762       17.130       22.338      564.635      293.437      498.974        0.596        0.068       92.284       13.926        0.023      330.483       -2.116      874.462
01/23/2015  07:53:00       85.720       41.386       17.514       27.898       26.350       21.672      778.274      694.322      469.689        0.565        0.097       95.188       14.731        0.024      330.429       -2.204      874.473
01/23/2015  07:54:00       46.718       45.902       42.502       30.295       30.228       23.313      917.803      913.740      543.490        0.424        0.119       65.495       20.559        0.099      330.597       -1.929      874.482
01/23/2015  07:55:00       71.405       46.771       30.259       29.435       24.810       29.342      866.445      615.524      860.975        0.527        0.117       85.359       19.911        0.054      330.575       -1.965      874.511
01/23/2015  07:56:00       74.474       50.707       35.050       29.059       20.837       31.829      844.428      434.190     1013.081        0.582        0.115       90.097       18.770        0.043      330.605       -1.915      874.535
01/23/2015  07:57:00       29.281       62.299       65.715       30.124       35.942       25.344      907.428     1291.858      642.336        0.595        0.142       68.837       23.500        0.117      330.734       -1.704      874.544
01/23/2015  07:58:00       52.477       34.862       48.716       39.442       32.753       27.685     1555.690     1072.743      766.465        0.487        0.170       63.001       23.939        0.144      330.731       -1.709      874.549
01/23/2015  07:59:00       49.002       56.005       48.327       34.416       26.387       24.341     1184.492      696.270      592.495        0.517        0.124       74.416       17.308        0.054      330.777       -1.632      874.542
01/23/2015  08:00:00       30.481       31.521       45.380       32.295       42.560       23.435     1042.981     1811.311      549.193        0.369        0.170       43.848       24.714        0.318      330.838       -1.533      874.530
01/23/2015  08:01:00       39.366      -29.228       12.395       31.729       45.667       26.718     1006.701     2085.463      713.841        0.318        0.190       49.030       23.648        0.233      330.982       -1.297      874.511
01/23/2015  08:02:00       -0.141       50.482       69.328       27.954       41.711       29.076      781.412     1739.778      845.440        0.536        0.168       50.482       30.057        0.355      331.064       -1.162      874.507
01/23/2015  08:03:00      -13.028       55.964       76.138       19.087       33.884       27.813      364.317     1148.152      773.583        0.569        0.114       57.461       18.883        0.108      331.149       -1.024      874.526
01/23/2015  08:04:00        2.153       11.613       56.657       21.975       51.848       24.390      482.909     2688.174      594.867        0.356        0.188       11.811       29.978        6.442      331.248       -0.859      874.547
01/23/2015  08:05:00       26.456       -3.557       37.340       25.508       33.421       30.839      650.650     1116.941      951.054        0.241        0.136       26.694       23.187        0.754      331.282       -0.804      874.564
01/23/2015  08:06:00       20.148       14.539       43.995       33.690       40.682       31.153     1135.044     1655.033      970.517        0.316        0.188       24.846       20.919        0.709      331.297       -0.779      874.581
01/23/2015  08:07:00       24.613       35.263       45.864       39.105       36.260       39.853     1529.174     1314.800     1588.249        0.419        0.222       43.004       26.855        0.390      331.140       -1.037      874.602
01/23/2015  08:08:00       35.653       58.165       64.233       49.479       30.810       27.914     2448.174      949.261      779.205        0.648        0.209       68.222       22.917        0.113      331.107       -1.091      874.621
01/23/2015  08:09:00       39.006       78.767       64.677       48.395       36.519       34.381     2342.123     1333.633     1182.078        0.838        0.243       87.896       27.155        0.095      331.181       -0.969      874.648
01/23/2015  08:10:00      113.548       78.875       46.251       42.890       34.893       30.099     1839.510     1217.551      905.944        1.261        0.198      138.254       13.404        0.009      331.031       -1.217      874.669
01/23/2015  08:11:00      113.130       56.311       18.965       55.503       36.940       45.048     3080.599     1364.552     2029.328        1.140        0.324      126.370       29.128        0.053      330.932       -1.378      874.701
01/23/2015  08:12:00       98.468       85.989       75.256       32.452       34.446       35.664     1053.128     1186.518     1271.888        1.313        0.176      130.729       20.105        0.024      330.931       -1.380      874.739
01/23/2015  08:13:00      124.436       80.003       27.871       38.393       32.762       38.578     1474.053     1073.377     1488.245        1.335        0.202      147.935       22.984        0.024      330.899       -1.433      874.770
01/23/2015  08:14:00       82.733       53.522       40.718       50.977       37.599       39.782     2598.646     1413.685     1582.636        0.848        0.280       98.536       34.217        0.121      331.001       -1.265      874.783
01/23/2015  08:15:00       68.811       53.542       46.513       42.481       30.488       32.122     1804.602      929.541     1031.812        0.676        0.188       87.188       21.066        0.058      331.055       -1.178      874.806
01/23/2015  08:16:00       90.871       41.069       11.201       41.831       29.730       31.658     1749.807      883.871     1002.243        0.685        0.182       99.721       23.284        0.055      331.059       -1.169      874.821
01/23/2015  08:17:00       93.424       59.944        4.280       40.648       29.564       32.683     1652.274      874.038     1068.183        0.797        0.180      111.002       11.861        0.011      331.040       -1.202      874.839
01/23/2015  08:18:00       69.198       40.287       13.230       44.753       31.223       32.519     2002.797      974.860     1057.462        0.531        0.202       80.071       21.713        0.074      331.088       -1.123      874.854
01/23/2015  08:19:00       87.366       66.839        3.085       35.851       27.009       23.758     1285.315      729.501      564.431        0.734        0.129      110.001       19.020        0.030      330.992       -1.280      874.872
01/23/2015  08:20:00      110.453       73.861        2.744       35.356       23.012       22.478     1250.042      529.535      505.248        0.997        0.114      132.874       10.521        0.006      330.962       -1.331      874.898
01/23/2015  08:21:00      129.425       67.328       -0.332       29.816       30.310       24.420      888.979      918.685      596.340        1.184        0.120      145.890       14.177        0.009      330.945       -1.358      874.922
01/23/2015  08:22:00      103.542       63.937        1.697       35.155       26.836       22.229     1235.862      720.165      494.138        0.863        0.123      121.691       17.821        0.021      331.029       -1.220      874.945
01/23/2015  08:23:00      107.917       74.538      -11.088       25.775       20.220       20.166      664.332      408.831      406.682        0.940        0.074      131.157       11.376        0.008      330.963       -1.328      874.963
01/23/2015  08:24:00       90.680       64.718        7.995       19.849       16.195       20.989      393.968      262.285      440.530        0.679        0.055      111.405        9.874        0.008      330.983       -1.295      874.995
01/23/2015  08:25:00       94.454       46.500        5.245       24.952       21.305       23.677      622.600      453.912      560.612        0.637        0.082      105.280        4.260        0.002      331.095       -1.109      875.024
01/23/2015  08:26:00      101.349       59.915        3.064       29.488       26.343       28.187      869.516      693.945      794.498        0.811        0.118      117.734       10.642        0.008      331.140       -1.035      875.032
01/23/2015  08:27:00      101.259       49.372        3.285       21.817       33.390       27.940      475.979     1114.901      780.662        0.754        0.119      112.654       12.979        0.013      331.119       -1.072      875.039
01/23/2015  08:28:00       82.805       68.930       16.533       20.523       17.370       23.163      421.199      301.714      536.539        0.657        0.063      107.740       11.312        0.011      331.076       -1.143      875.044
01/23/2015  08:29:00       93.403       70.999        2.384       14.488       19.132       16.750      209.903      366.023      280.574        0.731        0.043      117.324        7.197        0.004      331.028       -1.222      875.052
01/23/2015  08:30:00       80.548       53.993        4.492       29.326       17.160       26.115      860.023      294.451      682.005        0.563        0.092       96.970       18.667        0.037      331.257       -0.845      875.061
01/23/2015  08:31:00       45.527       30.907       -4.425       18.033       17.892       15.857      325.206      320.136      251.435        0.197        0.045       55.027       13.416        0.059      331.238       -0.875      875.079
01/23/2015  08:32:00       23.015       29.127       12.727       29.734       34.138       21.397      884.124     1165.434      457.819        0.202        0.125       37.122       22.292        0.361      331.603       -0.277      875.101
01/23/2015  08:33:00       34.586       28.569       25.787       30.849       19.352       19.560      951.670      374.506      382.587        0.219        0.085       44.859       16.722        0.139      331.639       -0.215      875.128
01/23/2015  08:34:00       52.287       24.858        8.172       33.561       16.439       18.557     1126.352      270.246      344.360        0.258        0.087       57.896       12.774        0.049      331.420       -0.575      875.165
01/23/2015  08:35:00       56.619       54.229       -0.264       26.375       25.256       30.372      695.634      637.890      922.431        0.420        0.113       78.399       19.625        0.063      331.500       -0.444      875.194
01/23/2015  08:36:00       22.200        3.660       21.586       36.558       30.862       23.214     1336.476      952.438      538.874        0.190        0.141       22.500       20.001        0.790      331.730       -0.065      875.224
01/23/2015  08:37:00       51.968       31.529       15.242       28.662       21.653       21.393      821.517      468.843      457.653        0.284        0.087       60.784       14.221        0.055      331.583       -0.308      875.248
01/23/2015  08:38:00       25.974       24.795       18.940       27.865       22.462       18.641      776.467      504.542      347.503        0.164        0.081       35.909        7.397        0.042      331.797        0.044      875.267
01/23/2015  08:39:00        6.789       13.002       17.862       22.092       12.854       16.578      488.061      165.233      274.823        0.073        0.046       14.668        8.776        0.358      332.073        0.499      875.270
01/23/2015  08:40:00       -5.837       59.625       -3.923       22.790       23.751       15.326      519.377      564.111      234.900        0.246        0.066       59.910        5.541        0.009      331.637       -0.219      875.264
01/23/2015  08:41:00       -1.115       50.260       10.721       12.562       25.725       19.963      157.800      661.755      398.524        0.193        0.061       50.272       14.897        0.088      331.957        0.308      875.264
01/23/2015  08:42:00        7.801       12.126        7.125       13.434       16.681       16.204      180.484      278.264      262.585        0.049        0.036       14.419       12.942        0.806      331.915        0.239      875.264
01/23/2015  08:43:00        1.209       45.929       -6.604       17.034       21.983       17.054      290.146      483.240      290.841        0.161        0.053       45.945       11.462        0.062      331.685       -0.143      875.278
01/23/2015  08:44:00       -3.737       55.145       -3.205       14.639       20.794       17.043      214.299      432.393      290.463        0.200        0.047       55.271       10.270        0.035      331.813        0.071      875.301
01/23/2015  08:45:00       28.084       24.736        8.282       23.762       17.935       19.656      564.627      321.658      386.372        0.137        0.064       37.424       13.752        0.135      331.973        0.334      875.308
01/23/2015  08:46:00       15.696       19.827       12.027       19.903       16.882       19.070      396.133      284.991      363.678        0.091        0.052       25.288       12.282        0.236      332.054        0.468      875.311
01/23/2015  08:47:00        7.991       35.520        0.820       16.621       14.161       16.782      276.250      200.543      281.625        0.104        0.038       36.408       11.895        0.107      331.924        0.254      875.319
01/23/2015  08:48:00       40.356       26.287       24.185       33.598       15.590       17.639     1128.842      243.050      311.117        0.229        0.084       48.162       10.558        0.048      331.933        0.268      875.318
01/23/2015  08:49:00       73.758       51.871        0.519       28.182       23.682       24.290      794.223      560.834      590.028        0.504        0.097       90.171       13.872        0.024      331.806        0.060      875.332
01/23/2015  08:50:00       60.690       39.253        3.418       39.551       19.716       20.747     1564.247      388.702      430.457        0.381        0.119       72.277       11.686        0.026      331.847        0.126      875.343
01/23/2015  08:51:00       33.780       23.762       22.926       22.205       24.101       22.673      493.083      580.855      514.071        0.191        0.079       41.300       12.946        0.098      332.157        0.636      875.340
01/23/2015  08:52:00       40.777       22.802       10.522       15.382       16.246       21.891      236.592      263.941      479.194        0.164        0.049       46.720       15.388        0.108      332.018        0.408      875.340
01/23/2015  08:53:00       27.811       15.393        3.198       17.092       18.441       25.110      292.137      340.085      630.524        0.114        0.063       31.786        8.543        0.072      332.005        0.386      875.338
01/23/2015  08:54:00       34.110       12.336       13.568       19.554       11.479       12.885      382.347      131.769      166.015        0.109        0.034       36.272        6.461        0.032      332.018        0.408      875.330
01/23/2015  08:55:00       16.184       20.535       -2.867       14.320        9.471       14.674      205.076       89.700      215.313        0.060        0.026       26.146        3.358        0.016      332.078        0.507      875.327
01/23/2015  08:56:00       13.341       12.235        4.645       13.857       13.762       24.483      192.029      189.387      599.401        0.066        0.049       18.102       13.984        0.597      332.233        0.763      875.331
01/23/2015  08:57:00       18.437       26.531       12.154       19.009       22.897       21.184      361.353      524.287      448.783        0.126        0.067       32.308       14.853        0.211      332.270        0.825      875.341
01/23/2015  08:58:00       31.642       29.036       16.220       24.516       25.584       21.110      601.018      654.555      445.633        0.190        0.085       42.945       12.801        0.089      332.395        1.029      875.346
01/23/2015  08:59:00       35.456       20.476       17.087       23.591       20.930       24.352      556.534      438.048      593.025        0.178        0.079       40.944       16.086        0.154      332.625        1.409      875.348
01/23/2015  09:00:00       37.802       29.547       41.045       34.365       26.085       22.196     1180.931      680.422      492.661        0.317        0.118       47.979       18.608        0.150      332.509        1.218      875.343
01/23/2015  09:01:00        3.513       64.322       61.004       27.002       32.118       24.738      729.098     1031.573      611.991        0.512        0.119       64.418       16.906        0.069      332.653        1.456      875.336
01/23/2015  09:02:00       76.316       78.177       46.391       37.331       32.411       41.486     1393.625     1050.497     1721.094        0.913        0.208      109.251       19.430        0.032      332.305        0.881      875.331
01/23/2015  09:03:00       41.330       89.110       76.612       48.204       49.495       38.581     2323.639     2449.710     1488.471        1.089        0.313       98.228       37.531        0.146      332.455        1.128      875.311
01/23/2015  09:04:00       46.681       69.383       58.935       35.831       41.864       36.692     1283.884     1752.581     1346.285        0.742        0.219       83.625       25.789        0.095      332.353        0.960      875.300
01/23/2015  09:05:00        8.469       69.143       92.121       30.290       66.895       40.542      917.513     4474.895     1643.659        1.019        0.352       69.660       41.486        0.355      332.630        1.418      875.293
01/23/2015  09:06:00      148.863       85.152       36.241       52.541       39.175       42.864     2760.513     1534.671     1837.302        1.843        0.307      171.497       33.277        0.038      332.105        0.550      875.315
01/23/2015  09:07:00       88.130      122.616       94.608       57.421       48.308       37.735     3297.137     2333.668     1423.899        1.940        0.353      151.002       32.511        0.046      332.133        0.597      875.337
01/23/2015  09:08:00       77.954      103.689       91.922       57.628       35.004       26.007     3321.036     1225.312      676.360        1.525        0.261      129.723       29.338        0.051      332.114        0.567      875.377
01/23/2015  09:09:00       83.375      137.024      102.008       41.066       33.859       33.654     1686.393     1146.449     1132.574        2.005        0.198      160.397       19.988        0.016      332.072        0.496      875.397
01/23/2015  09:10:00       31.922      119.689      112.103       54.240       53.844       42.771     2941.962     2899.174     1829.351        1.779        0.384      123.872       40.738        0.108      332.098        0.539      875.401
01/23/2015  09:11:00      125.755      158.413       88.649       28.090       25.569       38.726      789.046      653.799     1499.693        2.585        0.147      202.260       23.910        0.014      332.000        0.376      875.399
01/23/2015  09:12:00       94.946      105.549       84.670       47.184       29.178       26.364     2226.372      851.364      695.085        1.555        0.189      141.970       28.948        0.042      332.038        0.439      875.391
01/23/2015  09:13:00       93.167       78.982       45.807       51.809       40.588       49.503     2684.169     1647.361     2450.548        1.190        0.339      122.140       38.058        0.097      332.093        0.533      875.387
01/23/2015  09:14:00       68.209      112.907       87.356       49.841       42.744       45.145     2484.132     1827.072     2038.077        1.569        0.317      131.910       40.648        0.095      332.223        0.745      875.383
01/23/2015  09:15:00       87.788       89.270       70.165       46.456       38.050       37.933     2158.160     1447.772     1438.913        1.282        0.252      125.204       32.414        0.067      332.232        0.760      875.374
01/23/2015  09:16:00       76.376       80.762       72.711       45.015       37.708       37.505     2026.349     1421.923     1406.592        1.125        0.243      111.156       23.089        0.043      332.306        0.882      875.369
01/23/2015  09:17:00       86.674       82.285       50.816       40.267       30.747       35.527     1621.392      945.357     1262.156        1.035        0.191      119.512       19.521        0.027      332.182        0.679      875.377
01/23/2015  09:18:00       46.808      -13.185       23.800       33.141       72.834       30.429     1098.346     5304.729      925.910        0.513        0.366       48.630       33.510        0.475      332.396        1.032      875.372
01/23/2015  09:19:00       -0.784       66.654       75.808       31.116       44.317       40.564      968.184     1964.032     1645.411        0.738        0.229       66.659       28.776        0.186      332.802        1.703      875.363
01/23/2015  09:20:00       35.395       64.398       67.846       48.674       36.430       23.816     2369.114     1327.117      567.203        0.713        0.213       73.484       16.188        0.049      332.570        1.319      875.380
01/23/2015  09:21:00       12.667       47.897       60.798       30.720       39.833       35.047      943.748     1586.676     1228.326        0.495        0.188       49.543       28.817        0.338      332.748        1.612      875.399
01/23/2015  09:22:00       73.053       56.393       61.737       53.287       49.956       41.195     2839.458     2495.643     1697.021        0.968        0.352       92.287       34.704        0.141      332.668        1.480      875.415
01/23/2015  09:23:00       70.788       37.928       42.502       55.409       33.278       27.891     3070.172     1107.421      777.931        0.660        0.248       80.308       21.525        0.072      332.703        1.538      875.423
01/23/2015  09:24:00       39.169       65.474       71.692       37.517       33.144       19.543     1407.537     1098.537      381.910        0.692        0.144       76.296       17.390        0.052      332.958        1.959      875.420
01/23/2015  09:25:00       55.024       62.151       58.164       39.826       29.174       19.748     1586.098      851.144      389.986        0.655        0.141       83.008       16.335        0.039      332.629        1.417      875.416
01/23/2015  09:26:00       33.297       57.951       49.718       45.603       48.040       43.100     2079.622     2307.840     1857.628        0.659        0.312       66.836       34.783        0.271      332.746        1.609      875.400
01/23/2015  09:27:00       51.620       49.523       56.730       37.552       44.779       24.642     1410.188     2005.201      607.218        0.618        0.201       71.534       22.997        0.103      332.796        1.693      875.394
01/23/2015  09:28:00       64.095       86.091       82.112       56.417       37.407       42.480     3182.928     1399.319     1804.592        1.232        0.319      107.330       33.477        0.097      332.826        1.741      875.403
01/23/2015  09:29:00      107.981       78.344       39.312       51.119       40.731       34.185     2613.138     1659.021     1168.623        1.239        0.272      133.408       29.460        0.049      332.573        1.322      875.450
01/23/2015  09:30:00      119.234       91.376       45.603       62.253       51.842       51.004     3875.467     2687.578     2601.415        1.690        0.458      150.221       39.980        0.071      332.795        1.688      875.488
01/23/2015  09:31:00       23.168       67.314       72.502       42.101       43.850       27.970     1772.474     1922.795      782.348        0.740        0.224       71.189       28.626        0.162      333.077        2.157      875.494
01/23/2015  09:32:00       78.581       26.234       26.908       62.939       46.970       37.720     3961.279     2206.172     1422.780        0.759        0.380       82.845       36.895        0.198      333.017        2.058      875.492
01/23/2015  09:33:00      108.042       75.392        7.053       30.004       27.690       32.155      900.234      766.737     1033.976        1.005        0.135      131.746       11.280        0.007      332.792        1.686      875.504
01/23/2015  09:34:00       85.352       91.007       46.001       30.881       27.799       37.852      953.635      772.768     1432.759        1.042        0.158      124.769       23.005        0.034      332.737        1.594      875.498
01/23/2015  09:35:00       32.559       71.541       71.893       40.869       49.914       27.131     1670.300     2491.362      736.086        0.812        0.245       78.602       20.108        0.065      333.289        2.507      875.510
01/23/2015  09:36:00       38.824       26.315       69.640       42.166       88.686       47.342     1777.953     7865.281     2241.241        0.947        0.594       46.902       59.091        1.587      333.106        2.204      875.521
01/23/2015  09:37:00      128.766       81.762       19.500       51.511       38.427       43.256     2653.390     1476.640     1871.059        1.482        0.300      152.531       31.000        0.041      332.748        1.612      875.537
01/23/2015  09:38:00       42.525       60.648       62.326       46.262       44.906       41.431     2140.149     2016.523     1716.549        0.762        0.294       74.071       28.443        0.147      332.970        1.978      875.559
01/23/2015  09:39:00       55.425       61.417       57.452       37.383       38.209       36.036     1397.476     1459.908     1298.581        0.715        0.208       82.729       27.502        0.111      332.822        1.735      875.580
01/23/2015  09:40:00       63.543       66.389       74.630       41.469       29.782       30.301     1719.650      886.939      918.164        0.877        0.176       91.897       21.115        0.053      332.813        1.720      875.606
01/23/2015  09:41:00       45.265       63.261       71.596       61.488       43.193       37.536     3780.796     1865.669     1408.964        0.912        0.353       77.788       37.090        0.227      332.924        1.902      875.618
01/23/2015  09:42:00       38.286      -21.670       35.678       29.488       74.806       43.177      869.521     5596.005     1864.237        0.577        0.416       43.993       52.909        1.446      333.006        2.038      875.619
01/23/2015  09:43:00       30.791        3.501       35.330       28.324       57.040       32.257      802.275     3253.554     1040.534        0.365        0.255       30.989       37.987        1.503      333.185        2.334      875.616
01/23/2015  09:44:00       40.921       47.724       34.725       33.458       24.512       24.197     1119.470      600.858      585.487        0.373        0.115       62.866       15.834        0.063      333.247        2.437      875.637
01/23/2015  09:45:00       32.062       32.717       26.762       26.152       28.161       19.727      683.952      793.015      389.140        0.234        0.093       45.808       12.268        0.072      333.472        2.811      875.668
01/23/2015  09:46:00       91.690       68.896       -0.175       58.704       41.842       36.417     3446.181     1750.727     1326.224        0.984        0.326      114.690       19.908        0.030      333.182        2.329      875.693
01/23/2015  09:47:00      151.245      102.588        0.447       48.877       51.286       35.376     2388.933     2630.285     1251.477        1.983        0.314      182.755       24.790        0.018      332.920        1.895      875.733
01/23/2015  09:48:00      135.110       76.385        7.286       50.449       41.596       32.294     2545.139     1730.215     1042.930        1.473        0.266      155.207       10.838        0.005      332.898        1.860      875.766
01/23/2015  09:49:00       61.299       54.344       41.314       47.065       44.087       47.056     2215.085     1943.673     2214.290        0.739        0.319       81.920       33.994        0.172      333.156        2.287      875.770
01/23/2015  09:50:00      107.311       82.633       20.687       37.348       36.346       34.081     1394.848     1320.999     1161.484        1.132        0.194      135.440       24.983        0.034      333.013        2.050      875.770
01/23/2015  09:51:00       92.357       70.790        8.675       39.645       27.222       26.857     1571.753      741.055      721.288        0.832        0.152      116.366       11.533        0.010      332.963        1.966      875.774
01/23/2015  09:52:00       37.635       35.099        5.812       34.797       19.820       21.853     1210.848      392.852      477.544        0.238        0.104       51.462       11.170        0.047      333.030        2.079      875.778
01/23/2015  09:53:00       99.871       57.239        2.446       48.617       32.892       29.571     2363.565     1081.905      874.422        0.879        0.216      115.110       20.419        0.031      333.132        2.247      875.790
01/23/2015  09:54:00       88.774       61.802        5.714       53.344       27.086       31.781     2845.612      733.642     1010.034        0.816        0.229      108.168       15.413        0.020      333.441        2.756      875.807
01/23/2015  09:55:00       64.802       70.466       19.612       58.118       48.176       34.359     3377.736     2320.901     1180.517        0.821        0.344       95.733       30.105        0.099      333.355        2.616      875.821
01/23/2015  09:56:00       62.231       74.097       74.211       45.023       53.009       30.751     2027.112     2809.928      945.606        1.033        0.289       96.763       32.606        0.114      333.273        2.482      875.845
01/23/2015  09:57:00       31.294       20.280       18.117       31.969       23.705       27.201     1022.018      561.908      739.911        0.202        0.116       37.291       18.905        0.257      333.367        2.635      875.860
01/23/2015  09:58:00       65.466       55.563       20.540       48.094       47.757       31.903     2313.070     2280.747     1017.781        0.670        0.281       85.866       24.505        0.081      333.478        2.819      875.871
01/23/2015  09:59:00       98.185       83.120       22.739       58.357       39.591       51.409     3405.560     1567.428     2642.930        1.234        0.381      128.643       35.714        0.077      333.509        2.870      875.889
01/23/2015  10:00:00      123.549      121.586       17.487       35.281       34.697       33.296     1244.745     1203.862     1108.594        1.695        0.178      173.343        3.269        0.000      333.250        2.442      875.908
01/23/2015  10:01:00       60.723       55.818       -8.194       34.673       27.715       26.098     1202.193      768.095      681.121        0.476        0.133       82.479       18.537        0.051      333.189        2.340      875.918
01/23/2015  10:02:00      111.020       87.002        7.498       32.255       26.685       25.268     1040.365      712.070      638.461        1.117        0.120      141.049       20.085        0.020      333.201        2.361      875.923
01/23/2015  10:03:00       88.491       78.369       16.886       40.821       39.958       40.124     1666.351     1596.659     1609.895        0.956        0.244      118.205       17.919        0.023      333.442        2.758      875.925
01/23/2015  10:04:00       63.421       72.284        9.892       33.642       43.216       34.132     1131.804     1867.638     1164.999        0.675        0.208       96.162       18.317        0.036      333.385        2.666      875.936
01/23/2015  10:05:00       -4.429       12.339      -22.865       31.306       35.128       17.640      980.045     1234.010      311.174        0.161        0.126       13.110       18.618        2.017      333.188        2.339      875.951
01/23/2015  10:06:00       57.133       54.273        4.669       50.356       27.231       24.176     2535.718      741.525      584.484        0.505        0.193       78.802       13.312        0.029      333.475        2.813      875.954
01/23/2015  10:07:00       46.995       75.762       30.468       46.710       39.344       39.685     2181.861     1547.974     1574.902        0.709        0.265       89.153       26.698        0.090      333.708        3.200      875.961
01/23/2015  10:08:00       89.327      112.452       18.138       55.460       39.227       39.533     3075.757     1538.733     1562.852        1.356        0.309      143.613       23.542        0.027      333.523        2.895      875.977
01/23/2015  10:09:00       81.118       76.624       38.337       48.833       49.674       48.216     2384.663     2467.461     2324.812        1.055        0.359      111.586       27.665        0.061      333.600        3.022      875.988
01/23/2015  10:10:00       43.927       28.768       50.566       47.949       42.879       39.347     2299.114     1838.601     1548.192        0.550        0.284       52.509       27.351        0.271      333.982        3.654      875.989
01/23/2015  10:11:00       52.983       -7.574       22.234       25.529       48.300       34.403      651.706     2332.851     1183.594        0.376        0.208       53.521       31.067        0.337      333.479        2.822      875.981
01/23/2015  10:12:00       29.459       -5.794       49.079       32.251       49.625       35.047     1040.103     2462.677     1228.283        0.402        0.237       30.023       38.704        1.662      333.800        3.352      875.958
01/23/2015  10:13:00       25.981      -42.731       21.002       23.670       32.788       25.738      560.259     1075.027      662.446        0.262        0.115       50.009       16.369        0.107      333.633        3.075      875.947
01/23/2015  10:14:00        9.854       41.667       26.233       27.729       33.233       34.643      768.916     1104.405     1200.165        0.280        0.154       42.816       13.124        0.094      333.893        3.506      875.942
01/23/2015  10:15:00       14.925       31.615        8.727       27.398       35.167       27.904      750.630     1236.738      778.654        0.203        0.138       34.961       11.603        0.110      334.135        3.908      875.957
01/23/2015  10:16:00      100.491       77.522       13.999       35.265       27.394       31.033     1243.600      750.458      963.041        0.963        0.148      126.918       14.822        0.014      333.527        2.899      875.972
01/23/2015  10:17:00       77.661       75.796       -3.668       43.193       28.249       31.662     1865.656      798.013     1002.477        0.773        0.183      108.519       21.954        0.041      333.645        3.094      875.987
01/23/2015  10:18:00       93.750      101.878        4.232       67.877       32.796       53.338     4607.263     1075.558     2844.941        1.386        0.426      138.450       24.578        0.032      333.948        3.597      876.000
01/23/2015  10:19:00       57.059       50.775       67.869       50.195       47.900       41.631     2519.510     2294.413     1733.152        0.849        0.327       76.379       37.213        0.237      333.851        3.438      876.009
01/23/2015  10:20:00       14.658       41.925       45.460       30.101       25.280       22.865      906.069      639.086      522.816        0.305        0.103       44.414       15.524        0.122      334.084        3.824      875.996
01/23/2015  10:21:00       53.875       56.561       18.211       40.863       32.835       30.815     1669.756     1078.136      949.569        0.506        0.185       78.113       21.949        0.079      334.080        3.818      875.976
01/23/2015  10:22:00       60.920       41.773       25.989       41.730       33.558       30.556     1741.380     1126.135      933.685        0.497        0.190       73.866       23.948        0.105      333.965        3.626      875.949
01/23/2015  10:23:00       54.737       71.891        7.760       44.180       31.750       30.154     1951.871     1008.044      909.258        0.605        0.193       90.357       23.867        0.070      333.884        3.491      875.934
01/23/2015  10:24:00       70.076       51.028        6.024       38.254       36.179       42.613     1463.381     1308.886     1815.840        0.607        0.229       86.686       21.651        0.062      333.922        3.555      875.938
01/23/2015  10:25:00       12.476       17.969       47.034       35.550       33.539       31.138     1263.814     1124.838      969.550        0.302        0.168       21.875       22.607        1.068      334.362        4.286      875.943
01/23/2015  10:26:00      -33.056       11.018       40.895       23.943       40.576       28.498      573.257     1646.400      812.117        0.296        0.152       34.844       28.183        0.654      334.419        4.381      875.958
01/23/2015  10:27:00      -35.928       16.771       56.538       34.187       39.306       36.963     1168.733     1544.985     1366.249        0.442        0.204       39.650       34.932        0.776      334.373        4.303      875.959
01/23/2015  10:28:00       65.080       91.081       76.157       54.932       41.150       26.303     3017.556     1693.339      691.872        1.187        0.270      111.943       25.189        0.051      333.983        3.656      875.958
01/23/2015  10:29:00       75.455       79.119       63.804       32.609       33.894       36.846     1063.357     1148.775     1357.623        0.980        0.178      109.331       27.137        0.062      333.980        3.651      875.957
01/23/2015  10:30:00       55.970       59.972       51.822       41.226       39.574       28.446     1699.583     1566.111      809.150        0.674        0.204       82.032       16.031        0.038      334.398        4.344      875.931
01/23/2015  10:31:00       68.807       76.162       47.930       44.316       28.250       29.167     1963.888      798.050      850.734        0.822        0.181      102.641       28.434        0.077      334.091        3.835      875.896
01/23/2015  10:32:00       38.383        6.452       23.454       57.415       87.814       30.181     3296.534     7711.374      910.865        0.699        0.596       38.922       36.849        0.896      334.035        3.743      875.869
01/23/2015  10:33:00       12.110      -14.201       41.775       59.127       49.125       46.321     3495.961     2413.310     2145.648        0.507        0.403       18.663       44.613        5.714      334.472        4.468      875.854
01/23/2015  10:34:00       -7.191       42.003       73.125       15.546       27.486       19.889      241.671      755.457      395.587        0.428        0.070       42.614       14.041        0.109      334.626        4.725      875.866
01/23/2015  10:35:00       -1.182       57.128       80.622       29.540       36.293       20.899      872.639     1317.159      436.779        0.620        0.131       57.140       19.519        0.117      334.510        4.531      875.875
01/23/2015  10:36:00       58.065       64.064       67.232       25.393       27.976       20.471      644.782      782.674      419.051        0.692        0.092       86.462        3.217        0.001      334.119        3.881      875.888
01/23/2015  10:37:00       22.803       34.102       54.492       26.685       32.597       12.909      712.082     1062.584      166.630        0.330        0.097       41.023        9.105        0.049      334.693        4.833      875.917
01/23/2015  10:38:00       15.575      -10.129       37.299       38.536       60.389       43.127     1484.995     3646.873     1859.945        0.436        0.350       18.579       26.832        2.086      334.928        5.224      875.924
01/23/2015  10:39:00       35.808      -18.155       43.275       37.098       46.852       51.261     1376.277     2195.115     2627.644        0.484        0.310       40.147       42.150        1.102      334.687        4.824      875.928
01/23/2015  10:40:00       83.575       69.009       54.629       38.703       31.707       32.521     1497.952     1005.359     1057.608        0.915        0.178      108.384       22.633        0.044      334.229        4.064      875.907
01/23/2015  10:41:00       49.962       41.825       22.887       45.383       35.024       25.530     2059.613     1226.648      651.799        0.435        0.197       65.158       14.090        0.047      334.356        4.275      875.889
01/23/2015  10:42:00      -22.761      -83.361       17.618       39.611       50.621       39.330     1569.067     2562.437     1546.879        0.673        0.284       86.412       31.110        0.130      334.625        4.721      875.886
01/23/2015  10:43:00       -3.192        1.834       17.496       21.782       22.042       19.686      474.462      485.866      387.524        0.083        0.067        3.682        8.379        5.179      335.084        5.484      875.885
01/23/2015  10:44:00       28.393       23.689       61.649       45.620       30.834       29.793     2081.165      950.742      887.613        0.454        0.196       36.977       23.226        0.395      335.120        5.544      875.884
01/23/2015  10:45:00      -10.064       40.446       71.414       14.802       37.643       30.739      219.104     1417.003      944.897        0.471        0.129       41.679       29.561        0.503      334.932        5.231      875.861
01/23/2015  10:46:00        7.297       34.008       47.686       23.167       35.682       39.465      536.708     1273.175     1557.480        0.342        0.168       34.782       29.764        0.732      334.756        4.940      875.854
01/23/2015  10:47:00       -6.149       48.258       74.622       27.763       38.470       22.504      770.808     1479.963      506.452        0.535        0.138       48.648       25.425        0.273      334.832        5.064      875.842
01/23/2015  10:48:00       43.061       70.505       69.928       50.246       37.181       44.226     2524.633     1382.462     1955.912        0.879        0.293       82.615       40.842        0.244      334.519        4.544      875.851
01/23/2015  10:49:00       34.250       72.927       73.932       50.903       70.310       37.331     2591.074     4943.438     1393.613        1.044        0.446       80.569       39.040        0.235      334.862        5.115      875.853
01/23/2015  10:50:00       57.308       97.078       86.569       48.446       26.311       39.032     2347.027      692.254     1523.534        1.238        0.228      112.731       36.862        0.107      334.560        4.613      875.854
01/23/2015  10:51:00       83.883       57.247       22.393       40.227       19.614       27.663     1618.188      384.695      765.223        0.679        0.138      101.556       11.080        0.012      334.349        4.263      875.873
01/23/2015  10:52:00      -27.482       -0.018       12.741       21.491       23.164       13.952      461.849      536.588      194.658        0.106        0.060       27.482       11.669        0.180      334.959        5.276      875.869
01/23/2015  10:53:00       -7.829       20.546       43.501       20.457       32.312       15.983      418.498     1044.075      255.453        0.205        0.086       21.987        5.476        0.062      335.319        5.874      875.870
01/23/2015  10:54:00       38.651       42.827       40.835       47.661       41.456       41.441     2271.542     1718.565     1717.373        0.535        0.285       57.689       33.036        0.328      334.941        5.246      875.849
01/23/2015  10:55:00       17.690       43.331       68.778       52.267       52.933       36.020     2731.790     2801.896     1297.427        0.687        0.342       46.803       25.471        0.296      335.268        5.789      875.837
01/23/2015  10:56:00        6.527       49.743       65.347       40.078       53.421       42.594     1606.248     2853.793     1814.220        0.653        0.314       50.169       24.976        0.248      335.266        5.785      875.813
01/23/2015  10:57:00       41.373      -59.613       24.259       71.164       88.876       59.838     5064.284     7898.897     3580.640        1.120        0.827       72.563       72.501        0.998      335.097        5.505      875.805
01/23/2015  10:58:00       72.636      -62.597        5.359       68.887       67.640       53.892     4745.431     4575.225     2904.393        1.072        0.611       95.887       49.127        0.262      335.085        5.484      875.799
01/23/2015  10:59:00       83.972      -31.866       21.644       79.718       82.884       63.245     6354.980     6869.812     3999.902        1.288        0.861       89.815       65.534        0.532      335.011        5.361      875.795
01/23/2015  11:00:00       17.076       87.906      102.653       46.690       76.947       46.188     2179.967     5920.815     2133.324        1.439        0.512       89.549       45.396        0.257      334.774        4.968      875.789
01/23/2015  11:01:00       30.741      -42.180       27.099       44.953       84.988       48.401     2020.811     7222.958     2342.631        0.752        0.579       52.193       56.459        1.170      335.215        5.702      875.786
01/23/2015  11:02:00      114.881     -106.640      -18.040       34.272       49.127       25.715     1174.538     2413.451      661.273        1.457        0.212      156.748       12.763        0.007      334.555        4.605      875.799
01/23/2015  11:03:00       37.543        4.748       58.874       51.134       83.161       42.523     2614.681     6915.721     1808.173        0.812        0.567       37.842       40.250        1.131      335.249        5.758      875.785
01/23/2015  11:04:00       32.082        7.081       53.795       63.941       72.089       63.196     4088.505     5196.828     3993.674        0.862        0.664       32.854       60.067        3.343      335.079        5.475      875.779
01/23/2015  11:05:00       37.854       18.671       53.625       68.358       65.437       54.691     4672.814     4282.027     2991.132        0.830        0.597       42.208       58.766        1.938      335.056        5.437      875.779
01/23/2015  11:06:00       58.585       18.244       46.159       76.260       57.953       37.068     5815.660     3358.606     1374.050        0.822        0.527       61.360       35.239        0.330      335.148        5.590      875.772
01/23/2015  11:07:00      105.577       89.802       57.903       58.329       49.729       46.487     3402.248     2472.984     2161.028        1.530        0.402      138.603       31.647        0.052      334.913        5.199      875.753
01/23/2015  11:08:00       78.271       57.701       64.717       43.884       32.810       38.219     1925.779     1076.480     1460.660        0.905        0.223       97.241       27.952        0.083      334.866        5.121      875.722
01/23/2015  11:09:00       63.638       70.951       34.310       33.777       32.490       28.352     1140.861     1055.599      803.835        0.663        0.150       95.309       26.346        0.076      334.644        4.753      875.689
01/23/2015  11:10:00       54.915       53.228       33.329       26.155       34.008       29.115      684.060     1156.547      847.708        0.482        0.134       76.478       23.339        0.093      334.795        5.004      875.653
01/23/2015  11:11:00        8.262       45.656       49.128       23.049       26.203       28.912      531.235      686.598      835.906        0.331        0.103       46.398       19.016        0.168      335.167        5.621      875.638
01/23/2015  11:12:00       33.926       99.911      116.189       57.533       58.851       39.831     3310.088     3463.393     1586.536        1.650        0.418      105.514       34.577        0.107      335.375        5.966      875.619
01/23/2015  11:13:00      135.792      123.305       78.780       36.497       31.246       37.112     1332.004      976.333     1377.298        2.177        0.184      183.422       25.846        0.020      334.855        5.102      875.636
01/23/2015  11:14:00       78.137       92.748      105.290       68.951       70.320       48.499     4754.306     4944.909     2352.187        1.892        0.603      121.274       45.738        0.142      335.171        5.627      875.636
01/23/2015  11:15:00       92.482      100.404      106.446       72.295       64.007       56.587     5226.516     4096.939     3202.075        2.124        0.626      136.506       53.113        0.151      335.145        5.584      875.649
01/23/2015  11:16:00      125.029       90.406       87.209       54.103       51.616       50.997     2927.117     2664.169     2600.714        1.980        0.410      154.290       38.244        0.061      334.917        5.205      875.665
01/23/2015  11:17:00       87.143       84.532       52.912       42.179       34.981       33.522     1779.062     1223.636     1123.736        1.083        0.206      121.407       21.821        0.032      334.849        5.094      875.654
01/23/2015  11:18:00        8.944       65.870       68.600       40.008       46.879       37.669     1600.606     2197.613     1418.965        0.717        0.261       66.474       18.608        0.078      335.475        6.134      875.649
01/23/2015  11:19:00       69.654       62.901       20.807       50.556       46.627       33.512     2555.937     2174.090     1123.048        0.755        0.293       93.852       25.557        0.074      335.333        5.898      875.638
01/23/2015  11:20:00       11.297       85.070       -1.647       31.624       45.259       25.264     1000.102     2048.399      638.290        0.553        0.184       85.816       18.091        0.044      335.309        5.856      875.624
01/23/2015  11:21:00       19.188      102.823       -9.262       35.084       44.736       31.257     1230.920     2001.338      976.990        0.762        0.210      104.598       23.677        0.051      335.373        5.963      875.620
01/23/2015  11:22:00       51.607       54.221       14.074       36.653       25.723       37.062     1343.419      661.669     1373.565        0.459        0.169       74.855       18.140        0.059      335.372        5.963      875.593
01/23/2015  11:23:00       40.013      108.638      110.810       53.834       45.727       33.972     2898.137     2090.930     1154.079        1.591        0.307      115.772       32.481        0.079      335.410        6.026      875.569
01/23/2015  11:24:00       46.090       67.219       68.785       46.875       63.734       51.493     2197.228     4061.997     2651.509        1.014        0.446       81.502       49.536        0.369      335.403        6.013      875.557
01/23/2015  11:25:00       23.170      -14.767       29.468       28.169       44.872       24.278      793.465     2013.540      589.420        0.251        0.170       27.476       23.620        0.739      335.606        6.352      875.527
01/23/2015  11:26:00       61.081      -68.547       -3.736       68.752       78.676       37.528     4726.853     6189.865     1408.360        1.038        0.616       91.812       53.677        0.342      335.602        6.344      875.522
01/23/2015  11:27:00       46.737       50.418       81.847       58.234      105.179       57.266     3391.212    11062.614     3279.392        1.458        0.887       68.748       74.224        1.166      335.419        6.039      875.505
01/23/2015  11:28:00       78.256       32.505       18.132       33.579       47.988       32.330     1127.519     2302.808     1045.203        0.599        0.224       84.738       26.256        0.096      335.086        5.486      875.517
01/23/2015  11:29:00       83.658       45.756       28.641       28.341       22.375       31.870      803.229      500.620     1015.697        0.612        0.116       95.354       15.881        0.028      335.108        5.524      875.503
01/23/2015  11:30:00       88.838       -3.875       46.973       60.804       41.127       37.876     3697.177     1691.434     1434.613        0.847        0.341       88.923       31.894        0.129      335.330        5.892      875.471
01/23/2015  11:31:00        7.720       -5.332       35.555       33.332       50.574       36.632     1111.030     2557.698     1341.888        0.318        0.251        9.382       39.385       17.623      335.817        6.704      875.447
01/23/2015  11:32:00       -6.283       45.842       71.214       20.163       44.610       34.682      406.545     1990.085     1202.864        0.541        0.180       46.271       34.777        0.565      335.959        6.941      875.433
01/23/2015  11:33:00       63.225       72.787       56.440       63.954       43.275       45.512     4090.073     1872.690     2071.329        1.026        0.402       96.413       39.650        0.169      335.658        6.438      875.415
01/23/2015  11:34:00       59.925       54.549        2.593       39.604       50.798       41.348     1568.486     2580.452     1709.651        0.622        0.293       81.035       31.650        0.153      335.410        6.027      875.418
01/23/2015  11:35:00        2.431       37.627        4.361       23.162       40.344       26.488      536.459     1627.639      701.620        0.215        0.143       37.705       15.443        0.168      335.862        6.779      875.406
01/23/2015  11:36:00       17.239       23.389       30.799       23.904       31.753       34.771      571.395     1008.276     1209.037        0.229        0.139       29.055       19.583        0.454      335.907        6.855      875.399
01/23/2015  11:37:00       24.706       74.867       87.535       33.228       41.925       26.881     1104.100     1757.695      722.567        0.873        0.179       78.838       26.529        0.113      335.673        6.464      875.382
01/23/2015  11:38:00       34.825       64.489       77.405       41.902       39.260       20.203     1755.760     1541.345      408.154        0.753        0.185       73.291       18.618        0.065      335.885        6.817      875.353
01/23/2015  11:39:00       21.287       40.359       49.794       37.085       44.672       27.637     1375.271     1995.558      763.796        0.435        0.207       45.629       25.133        0.303      336.033        7.064      875.339
01/23/2015  11:40:00       74.696       79.148       28.465       33.481       22.858       32.706     1120.998      522.485     1069.704        0.768        0.136      108.830       29.528        0.074      335.478        6.135      875.314
01/23/2015  11:41:00       58.925       57.479       21.526       27.315       15.946       29.183      746.128      254.268      851.629        0.455        0.093       82.317       17.532        0.045      335.534        6.231      875.310
01/23/2015  11:42:00       36.024       49.635       35.870       24.087       17.017       25.144      580.195      289.565      632.240        0.327        0.075       61.331        5.281        0.007      335.715        6.533      875.286
01/23/2015  11:43:00       12.526       44.562       71.583       43.339       31.526       32.115     1878.236      993.877     1031.386        0.558        0.195       46.289       30.414        0.432      336.037        7.071      875.269
01/23/2015  11:44:00       35.885       81.116       84.169       36.196       45.117       31.086     1310.145     2035.515      966.310        0.963        0.216       88.699       31.435        0.126      335.911        6.861      875.261
01/23/2015  11:45:00       78.441       88.943       71.436       58.780       43.999       31.084     3455.093     1935.873      966.186        1.276        0.318      118.591       24.858        0.044      335.852        6.762      875.239
01/23/2015  11:46:00       26.533       24.711       44.793       37.224       43.979       37.830     1385.593     1934.139     1431.085        0.404        0.238       36.258       36.866        1.034      336.068        7.122      875.243
01/23/2015  11:47:00       33.092      -68.563        4.389       44.740       97.061       53.510     2001.684     9420.883     2863.285        1.005        0.714       76.132       60.136        0.624      336.106        7.185      875.208
01/23/2015  11:48:00       82.074      -10.000       48.874       38.369       69.338       58.491     1472.183     4807.725     3421.178        0.946        0.485       82.681       56.904        0.474      336.080        7.142      875.208
01/23/2015  11:49:00      106.308       75.237       28.034       48.439       40.001       45.238     2346.291     1600.089     2046.497        1.187        0.300      130.238       29.334        0.051      335.709        6.526      875.183
01/23/2015  11:50:00       79.986       60.610       26.078       40.802       42.502       36.700     1664.784     1806.426     1346.889        0.778        0.241      100.356       24.915        0.062      336.071        7.127      875.165
01/23/2015  11:51:00       81.122       63.190       25.908       40.426       34.779       31.684     1634.291     1209.588     1003.903        0.755        0.192      102.829       21.827        0.045      336.227        7.387      875.146
01/23/2015  11:52:00       -8.822       56.872      102.526       33.444       44.257       30.517     1118.477     1958.647      931.312        0.892        0.200       57.552       30.125        0.274      336.673        8.132      875.143
01/23/2015  11:53:00       22.094       66.548       74.384       66.715       37.276       36.893     4450.921     1389.492     1361.077        0.882        0.360       70.120       37.080        0.280      336.780        8.312      875.138
01/23/2015  11:54:00       23.675       61.077       68.303       53.260       45.079       31.569     2836.674     2032.084      996.584        0.741        0.293       65.505       31.733        0.235      336.650        8.094      875.116
01/23/2015  11:55:00       76.310       80.094       35.069       46.385       30.734       37.094     2151.598      944.572     1375.967        0.897        0.224      110.627       31.898        0.083      336.244        7.415      875.095
01/23/2015  11:56:00       70.251       56.526       16.080       58.415       48.359       26.219     3412.299     2338.554      687.427        0.741        0.322       90.169       20.428        0.051      336.242        7.413      875.071
01/23/2015  11:57:00       73.935       45.729       23.703       44.127       44.098       40.075     1947.222     1944.671     1605.987        0.681        0.275       86.934       28.313        0.106      336.000        7.008      875.051
01/23/2015  11:58:00       50.970       83.287       72.684       42.207       41.922       39.320     1781.461     1757.433     1546.090        0.995        0.254       97.645       28.048        0.083      336.194        7.333      875.023
01/23/2015  11:59:00       76.502      103.155       94.277       43.735       42.867       31.658     1912.786     1837.571     1002.241        1.507        0.238      128.427       27.008        0.044      336.069        7.122      875.013
01/23/2015  12:00:00      100.465       92.646       54.492       27.629       33.304       47.663      763.353     1109.123     2271.719        1.289        0.207      136.662       29.790        0.048      336.009        7.022      874.989
01/23/2015  12:01:00       41.729       35.698       -1.835       27.440       29.255       28.765      752.947      855.834      827.434        0.273        0.122       54.915       15.413        0.079      335.985        6.983      874.976
01/23/2015  12:02:00       19.728       29.403       45.254       29.400       32.327       12.647      864.370     1045.024      159.941        0.269        0.103       35.408       13.626        0.148      336.514        7.868      874.955
01/23/2015  12:03:00       11.781       60.725       48.004       28.785       29.227       40.060      828.604      854.239     1604.843        0.471        0.164       61.857       21.874        0.125      336.420        7.709      874.947
01/23/2015  12:04:00       41.169       22.932       36.626       25.991       20.544       29.006      675.542      422.054      841.364        0.275        0.097       47.125       15.693        0.111      336.252        7.429      874.952
01/23/2015  12:05:00       25.504       29.141       13.955       19.440       19.141       13.998      377.922      366.374      195.943        0.132        0.047       38.725        7.623        0.039      336.194        7.332      874.950
01/23/2015  12:06:00       -0.117       10.952        8.826       11.183       13.173       14.379      125.050      173.536      206.754        0.035        0.025       10.952       10.293        0.883      336.730        8.228      874.947
01/23/2015  12:07:00       -0.165       25.810        7.792       17.509       27.856       19.037      306.558      775.933      362.426        0.109        0.072       25.810       11.446        0.197      336.750        8.261      874.915
01/23/2015  12:08:00       -4.280       41.924        7.260       20.833       50.760       25.819      434.030     2576.609      666.616        0.275        0.184       42.141       26.246        0.388      336.751        8.263      874.896
01/23/2015  12:09:00       -3.544       76.156        0.852       27.149       46.908       26.030      737.047     2200.355      677.536        0.471        0.181       76.238       24.117        0.100      336.764        8.285      874.861
01/23/2015  12:10:00        1.441       13.670       50.893       37.529       39.033       32.298     1408.443     1523.581     1043.131        0.338        0.199       13.746       26.914        3.834      337.162        8.951      874.831
01/23/2015  12:11:00       38.845      -59.234       21.856       49.775       69.996       60.065     2477.554     4899.447     3607.819        0.824        0.549       70.835       32.233        0.207      336.791        8.330      874.802
01/23/2015  12:12:00       32.889      -15.567       48.168       44.262       74.247       50.619     1959.134     5512.677     2562.252        0.684        0.502       36.387       53.713        2.179      336.771        8.297      874.796
01/23/2015  12:13:00       47.949      -70.705       -6.738       49.895       42.581       31.995     2489.554     1813.109     1023.667        0.633        0.266       85.430       16.433        0.037      336.567        7.956      874.778
01/23/2015  12:14:00       60.235        5.493       23.223       34.192       28.433       28.161     1169.125      808.420      793.034        0.348        0.139       60.485       29.162        0.232      336.584        7.983      874.769
01/23/2015  12:15:00        8.663       -5.460       -1.051       23.311        8.921       18.154      543.422       79.591      329.579        0.053        0.048       10.240       11.798        1.327      336.564        7.950      874.747
01/23/2015  12:16:00       -8.567        8.291       12.082       24.497       25.319       33.180      600.118      641.059     1100.894        0.131        0.117       11.922       23.835        3.997      336.836        8.405      874.725
01/23/2015  12:17:00       27.002       29.145       55.582       50.185       42.649       35.215     2518.536     1818.949     1240.123        0.512        0.279       39.731       36.772        0.857      336.868        8.459      874.712
01/23/2015  12:18:00       68.926       55.957       22.490       63.253       38.292       36.542     4000.898     1466.268     1335.297        0.759        0.340       88.780       20.811        0.055      336.817        8.374      874.711
01/23/2015  12:19:00      107.606       75.160       17.264       58.800       38.282       39.219     3457.387     1465.476     1538.109        1.199        0.323      131.256       17.275        0.017      336.651        8.096      874.713
01/23/2015  12:20:00       87.283       59.898       21.002       27.866       25.152       37.630      776.537      632.634     1416.002        0.724        0.141      105.859       10.776        0.010      336.554        7.934      874.708
01/23/2015  12:21:00       63.306       62.182        1.429       28.534       26.994       26.091      814.175      728.678      680.757        0.505        0.111       88.737       17.695        0.040      336.519        7.876      874.705
01/23/2015  12:22:00        5.940       35.829       38.179       28.438       40.353       33.018      808.692     1628.329     1090.182        0.315        0.176       36.318       21.051        0.336      337.350        9.265      874.675
01/23/2015  12:23:00       83.140       77.484       61.120       89.222       53.983       46.091     7960.488     2914.172     2124.404        1.482        0.650      113.649       42.647        0.141      337.052        8.766      874.659
01/23/2015  12:24:00       97.771      133.842       97.871       61.891       48.159       59.272     3830.534     2319.249     3513.178        2.336        0.483      165.749       49.172        0.088      336.604        8.015      874.643
01/23/2015  12:25:00      118.437       70.015       31.030       31.802       32.919       42.805     1011.379     1083.674     1832.261        1.191        0.196      137.584       32.458        0.056      336.431        7.729      874.633
01/23/2015  12:26:00       47.501       25.358       -6.751       31.252       78.936       29.941      976.708     6230.958      896.474        0.552        0.405       53.845       30.154        0.314      336.797        8.341      874.604
01/23/2015  12:27:00       63.417      -84.572      -13.611       46.322       20.225       20.174     2145.746      409.069      407.008        0.716        0.148      105.708       12.984        0.015      336.709        8.193      874.574
01/23/2015  12:28:00       12.202      -20.405       27.825       28.260       48.023       34.623      798.635     2306.234     1198.761        0.282        0.215       23.776       30.190        1.612      337.020        8.712      874.523
01/23/2015  12:29:00       67.836       74.233       34.717       34.168       30.691       35.909     1167.475      941.967     1289.431        0.736        0.170      100.560       19.943        0.039      336.705        8.187      874.495
01/23/2015  12:30:00       69.775       71.179       48.497       39.368       40.847       36.348     1549.841     1668.439     1321.175        0.841        0.227       99.674       12.671        0.016      336.807        8.357      874.469
01/23/2015  12:31:00       16.041      -44.495       26.610       39.681       90.097       50.676     1574.603     8117.465     2568.048        0.760        0.613       47.298       59.994        1.609      337.173        8.969      874.456
01/23/2015  12:32:00       72.157      -80.649        8.192       44.768       62.158       43.972     2004.143     3863.658     1933.512        0.979        0.390      108.217       40.765        0.142      336.950        8.596      874.429
01/23/2015  12:33:00       14.038      -36.019       33.527       50.016       77.340       46.414     2501.599     5981.429     2154.304        0.663        0.532       38.658       51.946        1.806      337.240        9.080      874.420
01/23/2015  12:34:00        8.392       50.992       86.572       44.207       56.511       26.014     1954.299     3193.476      676.750        0.799        0.291       51.678       26.898        0.271      337.224        9.055      874.409
01/23/2015  12:35:00       68.434       73.917       57.968       51.146       45.431       44.327     2615.882     2064.018     1964.916        1.007        0.332      100.732       32.644        0.105      336.943        8.583      874.399
01/23/2015  12:36:00       68.995       63.127        9.883       51.266       57.302       44.022     2628.171     3283.538     1937.905        0.835        0.392       93.517       14.736        0.025      337.047        8.757      874.383
01/23/2015  12:37:00        1.367       11.202       21.838       36.800       41.541       20.266     1354.222     1725.616      410.694        0.205        0.175       11.285       18.353        2.645      337.322        9.217      874.354
01/23/2015  12:38:00       26.047       17.754       18.281       38.264       28.040       31.239     1464.115      786.237      975.867        0.228        0.161       31.522       24.453        0.602      337.501        9.519      874.338
01/23/2015  12:39:00        8.999       40.848        9.911       34.609       36.502       25.791     1197.791     1332.425      665.200        0.252        0.160       41.827       23.143        0.306      337.299        9.179      874.315
01/23/2015  12:40:00      -12.675       12.028        7.736       23.181       55.222       36.964      537.377     3049.504     1366.318        0.266        0.248       17.474       31.412        3.232      337.337        9.241      874.292
01/23/2015  12:41:00       63.881       47.078       55.822       74.193       55.447       52.952     5504.572     3074.392     2803.878        1.040        0.569       79.355       52.430        0.437      337.341        9.250      874.271
01/23/2015  12:42:00       68.103       32.308       13.588       60.663       65.619       34.462     3679.954     4305.820     1187.619        0.752        0.459       75.377       25.619        0.116      337.268        9.128      874.244
01/23/2015  12:43:00       83.077       69.025        4.155       59.453       37.264       32.113     3534.644     1388.591     1031.240        0.882        0.298      108.010       29.584        0.075      337.100        8.846      874.227
01/23/2015  12:44:00      102.428       65.991       12.273       40.707       44.723       42.591     1657.033     2000.180     1814.020        1.023        0.274      121.845       32.235        0.070      336.907        8.524      874.209
01/23/2015  12:45:00       73.868       33.968        8.411       41.412       40.868       35.825     1714.983     1670.222     1283.396        0.567        0.233       81.304       23.270        0.082      336.918        8.542      874.186
01/23/2015  12:46:00       26.611       37.464       -4.995       30.813       25.681       22.446      949.450      659.492      503.813        0.212        0.106       45.953       15.695        0.117      337.086        8.823      874.173
01/23/2015  12:47:00        2.826       22.773       10.849       25.396       33.197       20.033      644.949     1102.058      401.314        0.140        0.107       22.947       18.193        0.629      337.399        9.347      874.156
01/23/2015  12:48:00       46.822       70.868       58.719       60.437       48.941       45.578     3652.685     2395.191     2077.399        0.939        0.406       84.938       34.190        0.162      337.471        9.466      874.132
01/23/2015  12:49:00       53.962      106.361       98.271       87.618       61.490       53.593     7676.949     3781.024     2872.190        1.910        0.717      119.267       47.339        0.158      337.345        9.254      874.113
01/23/2015  12:50:00       52.452        8.121       35.360       49.010       44.240       34.163     2401.956     1957.217     1167.097        0.480        0.276       53.077       28.076        0.280      337.330        9.231      874.089
01/23/2015  12:51:00       18.350       24.367       82.699       46.928       71.907       55.458     2202.273     5170.619     3075.628        0.911        0.522       30.504       57.101        3.504      337.589        9.666      874.081
01/23/2015  12:52:00       87.142       -4.705       24.655       27.416       87.499       44.413      751.657     7656.144     1972.541        0.930        0.519       87.269       34.992        0.161      337.126        8.890      874.067
01/23/2015  12:53:00       32.293       21.048        4.031       36.640       55.675       26.321     1342.458     3099.673      692.816        0.332        0.257       38.547       20.349        0.279      337.364        9.287      874.060
01/23/2015  12:54:00       75.793       17.018       10.089       35.652       52.871       31.900     1271.072     2795.312     1017.616        0.561        0.254       77.680       24.978        0.103      337.203        9.020      874.038
01/23/2015  12:55:00       55.266      -33.752       10.584       43.743       38.408       29.076     1913.473     1475.208      845.408        0.427        0.212       64.757       18.106        0.078      337.344        9.255      874.022
01/23/2015  12:56:00       10.878      -31.521        2.881       38.406       48.061       31.666     1475.037     2309.863     1002.713        0.295        0.239       33.345       31.181        0.874      337.473        9.471      874.018
01/23/2015  12:57:00       36.099       42.277       28.025       50.578       42.095       35.461     2558.147     1771.978     1257.467        0.473        0.279       55.592       31.979        0.331      337.604        9.691      874.011
01/23/2015  12:58:00       80.292       96.742      106.645       51.495       56.497       36.348     2651.781     3191.928     1321.207        1.717        0.358      125.721       32.155        0.065      337.277        9.143      873.996
01/23/2015  12:59:00      109.931       98.604       41.737       74.219       46.373       51.529     5508.426     2150.430     2655.195        1.693        0.516      147.674       43.295        0.086      337.238        9.078      873.994
01/23/2015  13:00:00      153.419       82.591       44.140       61.847       51.037       50.947     3825.007     2604.757     2595.620        2.066        0.451      174.237       27.570        0.025      337.246        9.090      873.973
01/23/2015  13:01:00       31.400       81.572       84.811       48.735       58.099       47.939     2375.081     3375.545     2298.154        1.144        0.402       87.406       43.213        0.244      337.342        9.251      873.965
01/23/2015  13:02:00       52.727        6.746       50.125       55.637       40.322       26.778     3095.453     1625.891      717.078        0.539        0.272       53.156       20.206        0.144      337.586        9.660      873.948
01/23/2015  13:03:00       59.248      -69.174       14.017       48.581       67.375       28.422     2360.091     4539.455      807.789        0.810        0.385       91.079       30.856        0.115      337.424        9.388      873.924
01/23/2015  13:04:00       40.405       97.253       99.016       73.914       73.434       49.240     5463.301     5392.486     2424.622        1.709        0.664      105.312       35.571        0.114      337.573        9.637      873.906
01/23/2015  13:05:00      105.523       89.893       58.659       61.230       30.870       44.360     3749.080      952.936     1967.851        1.466        0.333      138.622       45.635        0.108      337.228        9.061      873.909
01/23/2015  13:06:00      112.057       84.757       31.436       49.190       42.577       40.439     2419.636     1812.843     1635.308        1.330        0.293      140.501       22.562        0.026      337.412        9.369      873.897
01/23/2015  13:07:00      116.762       92.216        4.731       44.450       40.316       35.420     1975.809     1625.407     1254.603        1.351        0.243      148.786       17.400        0.014      337.429        9.396      873.888
01/23/2015  13:08:00       73.122       58.587       23.571       37.257       27.571       36.266     1388.097      760.149     1315.189        0.640        0.173       93.698       22.518        0.058      337.545        9.590      873.882
01/23/2015  13:09:00       60.118      -27.677       17.013       33.949       52.101       21.408     1152.562     2714.562      458.287        0.450        0.216       66.183       17.836        0.073      337.342        9.251      873.849
01/23/2015  13:10:00       33.850       42.714       15.700       42.910       57.543       34.385     1841.287     3311.153     1182.360        0.477        0.317       54.501       25.140        0.213      337.562        9.619      873.812
01/23/2015  13:11:00        4.780       64.194      -14.340       19.626       39.905       18.735      385.191     1592.433      351.000        0.334        0.116       64.372       17.121        0.071      337.336        9.242      873.793
01/23/2015  13:12:00       28.575       55.199       12.040       41.947       47.765       29.256     1759.510     2281.534      855.897        0.445        0.245       62.156       31.489        0.257      337.537        9.579      873.765
01/23/2015  13:13:00       23.597       83.474        3.670       48.685       58.568       30.555     2370.228     3430.244      933.619        0.714        0.337       86.746       33.145        0.146      337.624        9.724      873.746
01/23/2015  13:14:00       63.331       58.047        9.972       45.359       44.324       31.265     2057.402     1964.636      977.477        0.624        0.250       85.909       28.695        0.112      337.467        9.461      873.731
01/23/2015  13:15:00       -1.551       83.824       -6.769       32.747       50.804       26.614     1072.382     2581.092      708.303        0.572        0.218       83.838       23.663        0.080      337.657        9.779      873.707
01/23/2015  13:16:00       -6.313       88.947      -10.826       18.634       27.548       18.730      347.239      758.895      350.813        0.476        0.073       89.171       13.463        0.023      337.569        9.633      873.681
01/23/2015  13:17:00       -0.141       43.457        2.055       20.731       23.564       23.034      429.767      555.278      530.588        0.170        0.076       43.457       15.248        0.123      337.840       10.085      873.666
01/23/2015  13:18:00       53.322       75.408       24.869       42.305       23.759       31.130     1789.682      564.513      969.108        0.624        0.166       92.356       25.144        0.074      337.543        9.588      873.629
01/23/2015  13:19:00      124.248       71.545       22.152       40.457       40.763       32.414     1636.783     1661.642     1050.677        1.270        0.217      143.374       23.177        0.026      337.586        9.662      873.594
01/23/2015  13:20:00       95.905       60.986       31.598       55.716       31.452       31.767     3104.318      989.234     1009.113        0.951        0.255      113.654       20.367        0.032      337.683        9.823      873.584
01/23/2015  13:21:00       11.153       58.698       -1.771       25.979       40.075       29.845      674.883     1606.023      890.732        0.337        0.159       59.749       29.636        0.246      337.795       10.012      873.580
01/23/2015  13:22:00        3.391       59.838        0.826       26.378       39.030       22.140      695.803     1523.319      490.163        0.315        0.135       59.934       24.169        0.163      337.844       10.094      873.564
01/23/2015  13:23:00       39.342       49.520       47.554       36.594       29.677       32.081     1339.145      880.725     1029.162        0.475        0.162       63.246       24.027        0.144      337.726        9.895      873.560
01/23/2015  13:24:00       23.401        5.179        2.765       45.311       34.439       27.372     2053.125     1186.071      749.231        0.228        0.199       23.967       30.023        1.569      337.910       10.203      873.542
01/23/2015  13:25:00       21.403       15.064       -6.985       31.775       27.059       28.471     1009.627      732.177      810.592        0.164        0.128       26.173       12.099        0.214      338.027       10.399      873.522
01/23/2015  13:26:00       -8.101      -24.392       15.143       38.781       40.508       28.010     1503.980     1640.882      784.539        0.241        0.196       25.702       25.585        0.991      338.189       10.671      873.514
01/23/2015  13:27:00       17.337        4.242       27.169       25.699       34.376       27.001      660.463     1181.683      729.058        0.181        0.129       17.849       19.346        1.175      338.168       10.637      873.494
01/23/2015  13:28:00       23.271      -34.231       35.320       50.839       87.504       51.224     2584.584     7656.909     2623.889        0.791        0.643       41.392       53.841        1.692      338.064       10.461      873.475
01/23/2015  13:29:00       49.370     -120.453      -12.016       62.177       32.690       25.927     3865.945     1068.650      672.201        1.135        0.280      130.178       26.006        0.040      337.762        9.953      873.463
01/23/2015  13:30:00       15.353      -48.614       29.909       46.706       55.036       28.790     2181.431     3028.916      828.882        0.477        0.302       50.981       31.226        0.375      338.112       10.541      873.437
01/23/2015  13:31:00       59.810       62.916       34.275       29.532       46.536       37.148      872.167     2165.601     1379.963        0.656        0.221       86.808       14.755        0.029      337.723        9.890      873.436
01/23/2015  13:32:00       19.744       18.497      -20.992       22.355       35.525       16.597      499.725     1262.022      275.470        0.160        0.102       27.055       14.256        0.278      337.620        9.716      873.417
01/23/2015  13:33:00      -78.155       53.676      -12.017       58.913       23.097       24.863     3470.756      533.456      618.184        0.688        0.231       94.812       21.043        0.049      337.626        9.726      873.398
01/23/2015  13:34:00      -92.425        2.884      -10.353       36.804       30.492       18.226     1354.516      929.733      332.189        0.564        0.131       92.470       16.684        0.033      337.525        9.558      873.405
01/23/2015  13:35:00     -121.688      -40.803      -11.196       27.772       33.372       18.255      771.283     1113.695      333.241        0.941        0.111      128.347        8.957        0.005      337.641        9.751      873.397
01/23/2015  13:36:00      -97.485      -38.108       -5.429       58.499       30.637       24.394     3422.184      938.601      595.047        0.797        0.248      104.669       19.228        0.034      337.858       10.115      873.385
01/23/2015  13:37:00      -84.951      -11.060      -15.828       34.673       22.286       19.382     1202.216      496.660      375.678        0.483        0.104       85.668       15.341        0.032      337.676        9.812      873.391
01/23/2015  13:38:00      -19.575       -0.750       -6.716       20.369       21.334       15.257      414.889      455.133      232.762        0.077        0.055       19.589       13.132        0.449      338.070       10.471      873.385
01/23/2015  13:39:00      -13.056      -42.469        8.785       34.456       54.161       25.540     1187.226     2933.366      652.310        0.341        0.239       44.430       30.890        0.483      338.334       10.915      873.377
01/23/2015  13:40:00       -2.257      -66.583       -1.346       37.167       51.672       27.917     1381.387     2669.993      779.349        0.463        0.242       66.622       29.019        0.190      338.035       10.414      873.376
01/23/2015  13:41:00       -6.881      -37.032        0.184       24.302       22.991       19.681      590.569      528.585      387.357        0.146        0.075       37.666       13.838        0.135      338.339       10.924      873.351
01/23/2015  13:42:00       -6.863      -71.704      -11.137       61.229       63.393       30.061     3748.996     4018.675      903.635        0.699        0.434       72.032       32.734        0.207      338.091       10.507      873.338
01/23/2015  13:43:00       53.045      -79.595      -11.331       27.568       43.911       29.981      760.002     1928.190      898.876        0.643        0.179       95.651       26.818        0.079      337.894       10.177      873.320
01/23/2015  13:44:00       42.680      -60.581      -14.423       27.541       31.754       21.600      758.489     1008.339      466.569        0.397        0.112       74.106       17.357        0.055      337.882       10.158      873.289
01/23/2015  13:45:00       58.056       67.453       34.076       51.246       32.427       44.051     2626.158     1051.513     1940.489        0.735        0.281       88.997       34.011        0.146      337.963       10.291      873.266
01/23/2015  13:46:00       45.613       46.094        6.448       32.988       24.892       28.491     1088.221      619.614      811.766        0.338        0.126       64.848       20.329        0.098      337.953       10.277      873.260
01/23/2015  13:47:00       31.970       50.348       -0.367       42.344       16.611       16.649     1792.992      275.926      277.182        0.295        0.117       59.640       15.023        0.063      337.883       10.158      873.251
01/23/2015  13:48:00       26.281       16.027        5.382       25.634       24.968       16.832      657.099      623.379      283.307        0.127        0.078       30.782       15.162        0.243      338.164       10.630      873.258
01/23/2015  13:49:00       25.335       39.343      -12.994       14.077       26.239       16.893      198.174      688.499      285.366        0.177        0.059       46.794       14.427        0.095      338.011       10.375      873.269
01/23/2015  13:50:00       58.898       41.631       -1.376       38.365       16.233       18.109     1471.895      263.510      327.928        0.363        0.103       72.126       11.835        0.027      338.061       10.457      873.271
01/23/2015  13:51:00       99.274       52.950       29.088       72.314       43.768       42.616     5229.386     1915.622     1816.083        1.123        0.448      112.513       25.555        0.052      338.045       10.430      873.265
01/23/2015  13:52:00       61.711       47.323       40.277       72.938       62.061       41.429     5319.949     3851.536     1716.355        0.928        0.544       77.767       29.344        0.142      338.391       11.010      873.244
01/23/2015  13:53:00      146.166      103.884       15.329       27.987       44.858       19.494      783.248     2012.254      380.028        1.778        0.159      179.322       14.076        0.006      337.783        9.989      873.238
01/23/2015  13:54:00       38.836       21.822       -0.312       40.625       28.503       23.039     1650.358      812.424      530.806        0.249        0.150       44.547       21.554        0.234      338.104       10.529      873.231
01/23/2015  13:55:00        4.869       -1.989       19.413       12.733       12.396       11.000      162.131      153.654      121.006        0.042        0.022        5.260        6.741        1.643      338.554       11.284      873.200
01/23/2015  13:56:00       47.798       33.929       22.145       51.296       29.567       26.330     2631.297      874.179      693.247        0.406        0.210       58.616       17.799        0.092      338.319       10.890      873.192
01/23/2015  13:57:00       40.053       35.189       20.492       36.511       42.894       35.611     1333.081     1839.869     1268.130        0.385        0.222       53.315       25.939        0.237      338.391       11.011      873.196
01/23/2015  13:58:00      102.067       78.243       41.422       57.637       33.949       43.133     3322.041     1152.559     1860.477        1.229        0.317      128.606       35.058        0.074      338.322       10.895      873.188
01/23/2015  13:59:00       29.395       90.187       91.234       68.093       61.119       64.669     4636.711     3735.537     4182.079        1.494        0.628       94.857       53.174        0.314      338.305       10.866      873.180
01/23/2015  14:00:00       96.893       27.439       40.297       49.334       68.150       43.917     2433.817     4644.412     1928.736        1.038        0.450      100.703       46.923        0.217      338.168       10.636      873.170
01/23/2015  14:01:00       33.290       44.924       55.568       63.828       41.003       48.095     4074.067     1681.272     2313.090        0.714        0.403       55.914       41.018        0.538      338.463       11.132      873.159
01/23/2015  14:02:00       44.963      -61.344        1.081       54.162       62.372       38.046     2933.545     3890.212     1447.512        0.703        0.414       76.058       28.059        0.136      338.433       11.081      873.136
01/23/2015  14:03:00       22.812     -121.252       -6.779       35.839       45.179       31.472     1284.459     2041.144      990.458        0.979        0.216      123.379       22.543        0.033      338.298       10.856      873.126
01/23/2015  14:04:00       26.928       20.385       65.054       42.905       52.823       36.116     1840.800     2790.305     1304.334        0.565        0.297       33.774       33.321        0.973      338.659       11.462      873.135
01/23/2015  14:05:00       37.423      -10.566       49.975       45.997       72.239       54.709     2115.699     5218.423     2993.031        0.717        0.516       38.886       43.712        1.264      338.644       11.436      873.124
01/23/2015  14:06:00       62.033       25.623       59.207       44.067       62.100       42.907     1941.896     3856.456     1840.970        0.782        0.382       67.116       30.977        0.213      338.426       11.069      873.145
01/23/2015  14:07:00       38.174       37.413       48.360       48.401       38.244       39.334     2342.704     1462.587     1547.200        0.527        0.268       53.450       32.101        0.361      338.274       10.814      873.149
01/23/2015  14:08:00       85.441       59.865       10.918       44.551       46.860       42.188     1984.830     2195.813     1779.819        0.848        0.298      104.326       28.875        0.077      338.219       10.723      873.138
01/23/2015  14:09:00       38.916       23.251       46.828       61.563       36.646       36.283     3790.036     1342.944     1316.481        0.535        0.322       45.333       36.706        0.656      338.400       11.026      873.137
01/23/2015  14:10:00       41.439       25.269       11.806       33.690       28.456       26.276     1135.002      809.727      690.427        0.256        0.132       48.535        6.969        0.021      338.280       10.824      873.151
01/23/2015  14:11:00       61.245       32.776       13.340       32.972       34.582       24.376     1087.124     1195.928      594.190        0.394        0.144       69.464       11.642        0.028      338.259       10.790      873.151
01/23/2015  14:12:00       41.098       30.771        7.258       30.274       23.980       23.589      916.513      575.034      556.434        0.237        0.102       51.341       15.740        0.094      338.446       11.103      873.136
01/23/2015  14:13:00       26.992       38.957        9.512       41.603       36.116       25.558     1730.832     1304.372      653.205        0.301        0.184       47.395       20.586        0.189      338.529       11.242      873.124
01/23/2015  14:14:00       25.897       82.425      -10.721       21.785       44.456       26.828      474.579     1976.359      719.765        0.537        0.159       86.398       26.696        0.095      338.297       10.853      873.112
01/23/2015  14:15:00       14.211       99.203        0.127       42.345       67.874       34.724     1793.094     4606.814     1205.766        0.882        0.380      100.216       39.102        0.152      338.381       10.992      873.101
01/23/2015  14:16:00      -43.646      160.343      -23.473       37.760       46.652       28.667     1425.833     2176.383      821.807        1.629        0.221      166.177       23.316        0.020      338.225       10.732      873.091
01/23/2015  14:17:00       16.841       56.939       14.994       63.872       74.416       40.210     4079.658     5537.761     1616.855        0.749        0.562       59.377       38.690        0.425      338.469       11.142      873.087
01/23/2015  14:18:00       55.383       45.706       -6.188       45.797       72.436       39.636     2097.391     5247.040     1571.042        0.705        0.446       71.807       34.981        0.237      338.374       10.982      873.084
01/23/2015  14:19:00       76.644       49.119       24.128       48.342       50.219       37.765     2336.966     2521.977     1426.225        0.758        0.314       91.033       21.377        0.055      338.538       11.257      873.076
01/23/2015  14:20:00       65.591       95.673       88.729       62.995       54.583       42.784     3968.361     2979.317     1830.491        1.505        0.439      115.997       35.258        0.092      338.769       11.645      873.067
01/23/2015  14:21:00       46.921       92.018       95.103       67.149       74.362       48.400     4508.934     5529.692     2342.532        1.605        0.619      103.291       46.269        0.201      338.547       11.272      873.072
01/23/2015  14:22:00        2.837       84.933       98.307       37.610       38.855       33.054     1414.508     1509.744     1092.587        1.045        0.201       84.981       33.615        0.156      338.413       11.049      873.071
01/23/2015  14:23:00       12.837       61.945       54.353       38.609       45.826       36.941     1490.627     2100.027     1364.650        0.595        0.248       63.261       23.927        0.143      338.427       11.072      873.060
01/23/2015  14:24:00       29.892       85.102      -14.469       48.998       62.817       38.035     2400.767     3945.926     1446.699        0.807        0.390       90.200       34.226        0.144      338.292       10.843      873.050
01/23/2015  14:25:00       88.893       83.661       17.106      104.815       60.165       58.125    10986.275     3619.789     3378.497        1.659        0.899      122.071       37.677        0.095      338.471       11.145      873.028
01/23/2015  14:26:00       77.626      122.473        2.091       64.952       86.000       57.755     4218.770     7395.939     3335.614        1.799        0.748      145.001       46.678        0.104      338.416       11.051      873.033
01/23/2015  14:27:00       73.320       83.446        1.959       57.125       44.995       54.303     3263.234     2024.571     2948.795        1.029        0.412      111.082       32.244        0.084      338.370       10.975      873.046
01/23/2015  14:28:00       46.716      147.339       -7.670       58.827       82.817       49.402     3460.597     6858.612     2440.606        1.835        0.638      154.568       42.616        0.076      338.357       10.952      873.053
01/23/2015  14:29:00       56.908       81.233        1.168       74.066       59.305       45.298     5485.733     3517.056     2051.937        1.044        0.553       99.183       36.879        0.138      338.384       10.999      873.070
01/23/2015  14:30:00       62.891       82.939       12.978       70.326       45.922       44.912     4945.706     2108.866     2017.127        1.004        0.454      104.087       35.856        0.119      338.422       11.063      873.086
01/23/2015  14:31:00       60.640       47.040       18.175      109.562       67.649       43.703    12003.926     4576.391     1909.986        1.235        0.925       76.747       37.553        0.239      338.582       11.330      873.102
01/23/2015  14:32:00      176.400      124.936        1.330       83.792       87.129       48.209     7021.100     7591.528     2324.132        3.183        0.847      216.162       18.449        0.007      338.391       11.008      873.121
01/23/2015  14:33:00      124.636       93.842        8.654       64.691       43.182       33.848     4184.942     1864.696     1145.696        1.580        0.360      156.015       16.840        0.012      338.293       10.845      873.136
01/23/2015  14:34:00      118.724       65.403       27.961       62.460       57.465       51.759     3901.194     3302.188     2679.003        1.452        0.494      135.547       40.718        0.090      338.367       10.969      873.129
01/23/2015  14:35:00       16.810      159.360       -1.982       52.881      100.372       46.729     2796.418    10074.570     2183.587        2.037        0.753      160.244       56.196        0.123      338.415       11.050      873.132
01/23/2015  14:36:00       27.381      175.254      -13.390       59.116       83.251       39.518     3494.687     6930.670     1561.674        2.181        0.599      177.380       39.082        0.049      338.437       11.086      873.143
01/23/2015  14:37:00      237.572      159.450       18.549       94.002       64.446       57.754     8836.296     4153.257     3335.576        4.926        0.816      286.121       37.566        0.017      338.356       10.949      873.152
01/23/2015  14:38:00       82.171      157.896        4.482       89.935      105.247       63.509     8088.259    11077.002     4033.384        2.745        1.160      177.998       50.384        0.080      338.442       11.094      873.141
01/23/2015  14:39:00       54.885      156.911       -1.002       70.074      108.834       75.514     4910.417    11844.848     5702.418        2.504        1.123      166.233       73.977        0.198      338.410       11.040      873.127
01/23/2015  14:40:00      209.412      121.468       24.465      119.752       79.206       60.412    14340.601     6273.552     3649.657        4.173        1.213      242.091       42.027        0.030      338.509       11.206      873.116
01/23/2015  14:41:00      125.160      109.485       13.535       90.560       74.059       60.063     8201.181     5484.727     3607.568        2.256        0.865      166.289       48.035        0.083      338.485       11.165      873.122
01/23/2015  14:42:00      135.939      136.640      -14.500       87.009       69.683       45.823     7570.592     4855.763     2099.738        2.594        0.726      192.743       42.086        0.048      338.449       11.106      873.126
01/23/2015  14:43:00      111.493      165.815       -4.524       91.969       95.928       76.322     8458.267     9202.149     5825.123        3.171        1.174      199.814       67.427        0.114      338.509       11.206      873.135
01/23/2015  14:44:00      122.380      159.372       11.929      115.588      104.433       98.328    13360.523    10906.296     9668.394        3.722        1.697      200.939       71.172        0.125      338.308       10.869      873.134
01/23/2015  14:45:00      130.316      147.067        7.069       84.526       86.023       79.318     7144.596     7400.011     6291.343        2.974        1.042      196.497       65.226        0.110      338.394       11.013      873.130
01/23/2015  14:46:00      140.827       99.691        7.321       80.676       58.724       55.250     6508.581     3448.528     3052.541        2.141        0.650      172.541        9.702        0.003      338.528       11.240      873.136
01/23/2015  14:47:00       41.047       72.126       -3.403       52.606       51.366       32.532     2767.416     2638.482     1058.359        0.668        0.323       82.988       20.859        0.063      338.696       11.522      873.141
01/23/2015  14:48:00       68.126      139.445      -16.448       67.827       85.322       51.486     4600.476     7279.792     2650.808        1.944        0.727      155.197       42.590        0.075      338.549       11.275      873.143
01/23/2015  14:49:00       39.054      105.359        0.704       56.202       77.100       48.519     3158.641     5944.356     2354.064        1.204        0.573      112.365       51.289        0.208      338.692       11.514      873.139
01/23/2015  14:50:00      102.574       76.140        7.872       74.836       79.550       47.088     5600.477     6328.273     2217.238        1.526        0.707      127.745       40.413        0.100      338.842       11.766      873.122
01/23/2015  14:51:00      211.818      148.564       18.628      104.673       83.162       55.776    10956.462     6915.886     3110.907        4.413        1.049      258.724       36.471        0.020      338.620       11.393      873.117
01/23/2015  14:52:00      281.970      200.281       24.854       95.855       85.992       70.014     9188.154     7394.700     4902.030        7.086        1.074      345.861       50.897        0.022      338.580       11.325      873.101
01/23/2015  14:53:00      258.793      123.564       37.612      116.897       81.808       64.770    13664.910     6692.542     4195.110        5.410        1.228      286.778       39.264        0.019      338.602       11.361      873.096
01/23/2015  14:54:00      211.193      115.142       30.787       74.782       53.961       60.158     5592.357     2911.821     3619.042        3.546        0.606      240.541       33.363        0.019      338.704       11.532      873.103
01/23/2015  14:55:00       90.590       91.595       15.347       87.931       64.925       62.447     7731.865     4215.244     3899.614        1.634        0.792      128.826       32.859        0.065      338.720       11.564      873.111
01/23/2015  14:56:00      107.261      128.180        2.080       95.983       80.317       60.745     9212.743     6450.789     3689.955        2.364        0.968      167.137       49.376        0.087      338.712       11.548      873.114
01/23/2015  14:57:00      128.454      128.388        5.039      100.714       78.687       67.446    10143.344     6191.654     4549.027        2.694        1.044      181.615       42.218        0.054      338.632       11.414      873.117
01/23/2015  14:58:00       57.938      110.862        9.974       87.566       81.825       63.179     7667.889     6695.249     3991.633        1.705        0.918      125.089       47.614        0.145      338.624       11.401      873.108
01/23/2015  14:59:00      107.913       85.690        0.486       76.220       60.057       47.533     5809.490     3606.852     2259.340        1.533        0.584      137.797       38.427        0.078      338.744       11.603      873.092
01/23/2015  15:00:00      141.705       81.931        9.071       56.500       58.446       45.914     3192.205     3415.924     2108.070        1.779        0.436      163.686       28.536        0.030      338.715       11.554      873.078
01/23/2015  15:01:00      114.382       69.629       20.389       72.047       51.959       41.589     5190.760     2699.767     1729.645        1.398        0.481      133.908       27.782        0.043      338.881       11.833      873.066
01/23/2015  15:02:00      147.080      120.320       13.460      100.234       72.666       52.740    10046.766     5280.391     2781.499        2.720        0.905      190.025       26.967        0.020      338.925       11.906      873.059
01/23/2015  15:03:00       58.622       90.810       -3.250       72.402       50.541       41.211     5242.013     2554.396     1698.360        1.059        0.475      108.088       27.619        0.065      338.760       11.631      873.071
01/23/2015  15:04:00      100.624       91.662        8.885       84.210       48.833       40.293     7091.310     2384.694     1623.560        1.485        0.555      136.115       44.543        0.107      338.759       11.628      873.083
01/23/2015  15:05:00       49.387       52.082        8.893       41.565       48.506       32.920     1727.631     2352.840     1083.740        0.520        0.258       71.775       30.934        0.186      338.877       11.827      873.075
01/23/2015  15:06:00       63.191      182.858      -18.627       64.042       75.972       56.837     4101.334     5771.792     3230.488        2.544        0.655      193.469       47.381        0.060      338.650       11.442      873.076
01/23/2015  15:07:00       86.709       96.465       -4.494       49.777       65.943       48.436     2477.789     4348.451     2346.015        1.301        0.459      129.708       48.547        0.140      338.587       11.339      873.062
01/23/2015  15:08:00      159.057      122.706       28.168       95.278       62.787       48.391     9077.835     3942.182     2341.658        2.825        0.768      200.887       29.457        0.022      338.683       11.500      873.051
01/23/2015  15:09:00      147.732      129.517       -1.691      127.786       76.151       49.786    16329.225     5798.907     2478.686        3.160        1.230      196.467       48.220        0.060      338.734       11.583      873.057
01/23/2015  15:10:00      133.724       96.360       21.050       91.126       57.239       47.791     8303.990     3276.349     2283.957        2.074        0.693      164.825       20.992        0.016      338.740       11.595      873.056
01/23/2015  15:11:00       69.638       69.329       20.796       68.342       44.758       41.460     4670.565     2003.269     1718.954        0.924        0.420       98.265       33.872        0.119      338.751       11.615      873.050
01/23/2015  15:12:00      148.021       92.951       13.049       53.114       43.022       42.798     2821.135     1850.869     1831.685        1.861        0.325      174.786       22.471        0.017      338.707       11.542      873.035
01/23/2015  15:13:00      167.728      110.592       24.239       82.782       66.106       39.727     6852.925     4370.033     1578.230        2.687        0.640      200.907       35.442        0.031      338.796       11.688      873.017
01/23/2015  15:14:00       81.778       90.386       11.366       71.480       75.616       60.428     5109.374     5717.813     3651.493        1.473        0.724      121.891       50.432        0.171      338.808       11.711      873.002
01/23/2015  15:15:00      191.063      107.666       20.281       78.843       77.686       50.434     6216.219     6035.059     2543.541        3.165        0.740      219.310       35.677        0.026      338.665       11.468      872.993
01/23/2015  15:16:00      118.703       81.779       14.299       64.421       56.771       47.286     4150.113     3222.891     2235.990        1.529        0.480      144.147       34.124        0.056      338.704       11.535      872.994
01/23/2015  15:17:00      125.268       66.547       11.129       55.143       43.298       31.067     3040.765     1874.726      965.180        1.306        0.294      141.847       13.248        0.009      338.739       11.594      872.993
01/23/2015  15:18:00      164.836      101.582       31.923       84.180       70.306       59.762     7086.280     4942.896     3571.450        2.705        0.780      193.623        8.401        0.002      338.786       11.671      873.003
01/23/2015  15:19:00       51.798       68.842       43.762       70.773       60.113       50.796     5008.836     3613.626     2580.263        1.027        0.560       86.153       28.329        0.108      338.820       11.732      873.004
01/23/2015  15:20:00      120.625      131.130       20.420      109.829       76.828       71.092    12062.472     5902.542     5054.109        2.759        1.151      178.173       43.616        0.060      338.734       11.584      873.027
01/23/2015  15:21:00      201.002      115.908       18.996       64.025       51.114       42.370     4099.158     2612.594     1795.181        3.135        0.425      232.027       23.512        0.010      338.698       11.524      873.039
01/23/2015  15:22:00       96.257       72.918       27.011       60.615       47.399       37.933     3674.237     2246.710     1438.899        1.133        0.368      120.758       19.285        0.026      338.836       11.758      873.041
01/23/2015  15:23:00       67.944       59.782       70.667       72.548       51.771       60.996     5263.181     2680.186     3720.523        1.242        0.583       90.501       32.244        0.127      338.888       11.847      873.050
01/23/2015  15:24:00      116.133      100.786       84.207      117.721       77.852       55.741    13858.243     6060.908     3107.021        2.688        1.151      153.768       45.117        0.086      338.908       11.880      873.052
01/23/2015  15:25:00      158.768      120.089       43.469       99.719       60.388       51.395     9943.911     3646.712     2641.420        2.887        0.812      199.069       39.376        0.039      338.827       11.740      873.085
01/23/2015  15:26:00      120.172       76.191        9.749       80.166       68.985       47.731     6426.530     4758.884     2278.265        1.690        0.673      142.289       32.671        0.053      338.821       11.732      873.104
01/23/2015  15:27:00       72.037       79.652       74.599       76.144       64.793       54.654     5797.862     4198.081     2987.063        1.504        0.649      107.395       42.745        0.158      338.870       11.814      873.112
01/23/2015  15:28:00      203.845      116.649       15.845       97.864       82.003       57.695     9577.411     6724.425     3328.770        3.752        0.982      234.861       29.525        0.016      338.781       11.664      873.124
01/23/2015  15:29:00      141.292      104.897       61.780      120.456       62.909       58.214    14509.611     3957.512     3388.849        2.832        1.093      175.974       52.492        0.089      338.814       11.719      873.130
01/23/2015  15:30:00      114.587       89.193       46.090       66.995       55.517       56.929     4488.275     3082.151     3240.936        1.701        0.541      145.209       40.684        0.078      338.694       11.519      873.113
01/23/2015  15:31:00      123.575       90.230       27.989       64.766       59.443       55.841     4194.659     3533.470     3118.186        1.752        0.542      153.010       38.565        0.064      338.779       11.660      873.106
01/23/2015  15:32:00      223.155      138.072       28.778       64.230       54.029       50.356     4125.515     2919.142     2535.737        3.963        0.479      262.416       27.793        0.011      338.721       11.563      873.100
01/23/2015  15:33:00      210.864      172.038        8.806       82.934       74.811       61.946     6878.082     5596.646     3837.350        4.522        0.816      272.141       44.098        0.026      338.609       11.373      873.085
01/23/2015  15:34:00       66.919       87.325       -3.775       91.941       60.839       46.500     8453.217     3701.385     2162.209        1.321        0.716      110.017       32.263        0.086      338.610       11.377      873.083
01/23/2015  15:35:00       69.265       67.189        6.565       52.772       45.814       33.825     2784.932     2098.939     1144.154        0.769        0.301       96.499       25.949        0.072      338.689       11.511      873.066
01/23/2015  15:36:00      106.115       58.616        4.986       55.823       41.200       30.788     3116.171     1697.472      947.916        1.024        0.288      121.228       19.787        0.027      338.778       11.662      873.060
01/23/2015  15:37:00       36.248       46.705       36.900       46.816       37.017       25.063     2191.784     1370.233      628.173        0.452        0.210       59.121        9.708        0.027      338.944       11.940      873.049
01/23/2015  15:38:00      100.429       56.986       35.826       67.507       43.022       52.208     4557.172     1850.864     2725.694        1.187        0.457      115.470       33.590        0.085      338.878       11.828      873.050
01/23/2015  15:39:00      185.374      112.571       34.061       90.386       66.507       52.531     8169.592     4423.203     2759.457        3.177        0.768      216.877       37.070        0.029      338.883       11.836      873.063
01/23/2015  15:40:00      177.460      135.585       11.778      102.318       75.842       61.617    10469.036     5752.073     3796.611        3.501        1.001      223.328       39.176        0.031      338.770       11.645      873.075
01/23/2015  15:41:00       83.860      127.765       -1.347       91.393       85.387       67.537     8352.722     7290.868     4561.242        2.178        1.010      152.828       61.446        0.162      338.707       11.539      873.086
01/23/2015  15:42:00      124.299      102.798        9.156       87.237       52.421       50.014     7610.212     2747.925     2501.433        1.948        0.643      161.300       31.822        0.039      338.696       11.521      873.084
01/23/2015  15:43:00      168.489      109.510       27.813       88.869       61.199       55.147     7897.704     3745.317     3041.243        2.792        0.734      200.950       21.144        0.011      338.780       11.662      873.075
01/23/2015  15:44:00      100.773      117.980       -1.704      106.348       83.000       58.447    11309.907     6889.004     3416.066        2.284        1.081      155.159       32.276        0.043      338.714       11.551      873.080
01/23/2015  15:45:00      140.873      111.464        9.380      114.808       73.390       53.627    13180.905     5386.048     2875.897        2.690        1.072      179.637       40.259        0.050      338.791       11.681      873.083
01/23/2015  15:46:00      178.470      108.164       15.921       96.857       82.137       53.405     9381.293     6746.521     2852.142        3.139        0.949      208.689       30.827        0.022      338.730       11.578      873.065
01/23/2015  15:47:00      192.753      137.532       13.274       84.366       82.452       75.382     7117.667     6798.289     5682.458        3.792        0.980      236.788       42.893        0.033      338.779       11.659      873.061
01/23/2015  15:48:00      102.344       99.119      -13.643       71.952       53.309       51.524     5177.061     2841.816     2654.708        1.558        0.534      142.474       30.086        0.045      338.847       11.776      873.063
01/23/2015  15:49:00       88.203       83.617       -0.633       72.001       61.772       51.302     5184.090     3815.761     2631.916        1.320        0.582      121.539       42.609        0.123      338.793       11.685      873.075
01/23/2015  15:50:00       43.497       63.718       -6.965       55.662       50.815       33.858     3098.255     2582.120     1146.393        0.641        0.341       77.149       13.368        0.030      338.846       11.777      873.085
01/23/2015  15:51:00       88.504       94.296      -16.734       60.149       86.967       33.958     3617.953     7563.320     1153.166        1.467        0.617      129.324       39.826        0.095      338.761       11.632      873.100
01/23/2015  15:52:00      106.612       71.453        6.726       65.976       44.910       36.969     4352.844     2016.952     1366.675        1.213        0.387      128.342       35.557        0.077      338.675       11.487      873.113
01/23/2015  15:53:00       52.115       63.092       -2.251       37.233       42.881       31.663     1386.309     1838.822     1002.525        0.546        0.211       81.833       23.388        0.082      338.719       11.564      873.123
01/23/2015  15:54:00       57.581       21.610        8.799       55.614       29.467       28.372     3092.905      868.295      804.974        0.431        0.238       61.502       19.202        0.097      338.735       11.588      873.121
01/23/2015  15:55:00       35.256       93.801      -10.759       34.997       52.638       25.277     1224.757     2770.749      638.950        0.740        0.232      100.208       28.051        0.078      338.741       11.599      873.113
01/23/2015  15:56:00       71.699       91.828        2.019       57.595       54.245       37.416     3317.224     2942.521     1399.940        1.062        0.383      116.503       32.408        0.077      338.745       11.605      873.093
01/23/2015  15:57:00       98.352       61.288       17.607       58.269       24.791       34.198     3395.256      614.585     1169.488        0.946        0.259      115.885       18.500        0.025      338.765       11.638      873.084
01/23/2015  15:58:00      118.264       82.051        2.168       64.282       57.620       45.709     4132.146     3320.095     2089.329        1.513        0.477      143.940       34.413        0.057      338.682       11.498      873.073
01/23/2015  15:59:00       49.199       64.497        2.896       38.160       35.912       31.764     1456.157     1289.664     1008.935        0.517        0.188       81.120        9.316        0.013      338.748       11.610      873.056
01/23/2015  16:00:00       21.771       86.359       -0.825       53.413       55.701       31.287     2852.934     3102.559      978.854        0.743        0.347       89.061       23.510        0.070      338.718       11.560      873.056
01/23/2015  16:01:00       77.674       83.799        7.482       43.783       69.567       39.052     1916.988     4839.632     1525.032        1.070        0.414      114.260       38.049        0.111      338.746       11.606      873.065
01/23/2015  16:02:00       53.808       83.709       15.931       59.346       50.527       40.068     3521.904     2552.953     1605.408        0.892        0.384       99.511       36.420        0.134      338.702       11.534      873.074
01/23/2015  16:03:00       62.154       60.188        7.071       55.725       37.854       26.397     3105.273     1432.929      696.819        0.638        0.262       86.520        9.473        0.012      338.743       11.602      873.079
01/23/2015  16:04:00      107.543       87.558       10.119       64.382       60.214       48.701     4145.101     3625.694     2371.766        1.474        0.507      138.679       39.710        0.082      338.720       11.561      873.082
01/23/2015  16:05:00       73.171       84.548       -7.444       58.853       44.632       43.477     3463.699     1992.017     1890.281        0.995        0.367      111.814       30.712        0.075      338.698       11.527      873.079
01/23/2015  16:06:00       37.920       34.464       10.032       33.199       29.911       21.733     1102.190      894.680      472.344        0.260        0.123       51.242       17.070        0.111      338.728       11.577      873.070
01/23/2015  16:07:00      117.988       91.033       14.672       52.538       48.116       40.102     2760.285     2315.160     1608.202        1.455        0.334      149.024       27.816        0.035      338.710       11.546      873.074
01/23/2015  16:08:00       64.482      118.236       -0.647       65.617       60.794       44.864     4305.538     3695.881     2012.763        1.407        0.501      134.677       43.697        0.105      338.680       11.495      873.070
01/23/2015  16:09:00       58.295      126.936      -12.419       74.757       75.928       45.068     5588.645     5765.023     2031.096        1.652        0.669      139.682       40.725        0.085      338.645       11.436      873.072
01/23/2015  16:10:00       55.867      161.148      -16.253       54.780       83.883       37.325     3000.798     7036.302     1393.121        2.039        0.572      170.557       31.645        0.034      338.614       11.384      873.072
01/23/2015  16:11:00       58.733      118.444      -18.777       53.164       89.222       54.214     2826.454     7960.569     2939.115        1.578        0.686      132.207       48.314        0.134      338.595       11.353      873.074
01/23/2015  16:12:00       78.184      112.425       -3.860       58.360       73.240       46.991     3405.840     5364.037     2208.121        1.487        0.549      136.939       40.196        0.086      338.587       11.341      873.070
01/23/2015  16:13:00      135.140       82.028       25.099       78.255       64.145       42.768     6123.806     4114.626     1829.094        1.884        0.603      158.087       27.959        0.031      338.644       11.433      873.065
01/23/2015  16:14:00      110.267      127.417       32.433      110.533       71.320       58.009    12217.571     5086.592     3365.052        2.505        1.033      168.505       51.666        0.094      338.568       11.306      873.063
01/23/2015  16:15:00       56.330      150.883      -10.342       71.940       96.685       56.954     5175.335     9348.064     3243.798        2.190        0.888      161.055       58.965        0.134      338.532       11.247      873.054
01/23/2015  16:16:00       51.584      128.697       -4.769       59.540       72.360       47.381     3545.052     5235.916     2244.969        1.513        0.551      138.650       43.411        0.098      338.569       11.310      873.056
01/23/2015  16:17:00       61.845       88.163        0.893       60.641       57.782       43.426     3677.372     3338.796     1885.817        1.025        0.445      107.692       36.991        0.118      338.567       11.307      873.046
01/23/2015  16:18:00      164.820      137.499       12.940       83.880       57.077       54.604     7035.878     3257.753     2981.572        2.976        0.664      214.643       35.606        0.028      338.559       11.290      873.040
01/23/2015  16:19:00      231.081      184.195       15.528      105.411       69.457       67.878    11111.435     4824.211     4607.473        5.405        1.027      295.510       34.626        0.014      338.537       11.253      873.033
01/23/2015  16:20:00      177.264      133.336       26.095       80.443       64.682       57.368     6471.061     4183.802     3291.097        3.191        0.697      221.813       39.515        0.032      338.496       11.185      873.024
01/23/2015  16:21:00      101.219       79.402        2.914       64.487       54.022       42.200     4158.546     2918.412     1780.852        1.271        0.443      128.647       36.441        0.080      338.514       11.217      873.012
01/23/2015  16:22:00      151.846      119.574       28.043       73.032       42.694       47.692     5333.742     1822.811     2274.489        2.378        0.472      193.275       26.280        0.018      338.528       11.239      872.991
01/23/2015  16:23:00      210.288      131.384       33.613       80.725       50.563       49.648     6516.478     2556.606     2464.972        3.707        0.577      247.957       24.066        0.009      338.562       11.294      872.974
01/23/2015  16:24:00      165.288       88.416       14.482       73.975       50.040       43.793     5472.237     2503.958     1917.785        2.262        0.495      187.450       28.271        0.023      338.533       11.248      872.961
01/23/2015  16:25:00       70.380       63.379       -1.697       48.476       37.355       28.062     2349.892     1395.400      787.503        0.675        0.227       94.712       17.743        0.035      338.528       11.240      872.971
01/23/2015  16:26:00      113.338       67.455       17.799       61.084       37.681       41.748     3731.199     1419.884     1742.874        1.230        0.345      131.892       27.677        0.044      338.544       11.267      872.969
01/23/2015  16:27:00       51.594       74.960        5.610       42.300       46.895       38.054     1789.255     2199.166     1448.110        0.687        0.272       91.000       30.588        0.113      338.532       11.249      872.985
01/23/2015  16:28:00       75.339       68.567        9.541       79.528       49.478       37.281     6324.743     2448.023     1389.875        1.031        0.508      101.870       24.488        0.058      338.555       11.285      872.998
01/23/2015  16:29:00       58.042      138.992      -15.836       48.404       59.363       30.248     2342.940     3523.950      914.923        1.486        0.339      150.625       29.180        0.038      338.563       11.299      873.011
01/23/2015  16:30:00       56.151       86.937       -7.072       39.144       69.938       30.652     1532.216     4891.343      939.559        0.906        0.368      103.494       32.074        0.096      338.530       11.243      873.023
01/23/2015  16:31:00       53.562      131.836        0.152       79.711       94.786       60.077     6353.817     8984.315     3609.264        1.960        0.947      142.301       54.436        0.146      338.505       11.201      873.043
01/23/2015  16:32:00       50.943      125.135        2.480       67.614       81.426       56.596     4571.651     6630.206     3203.139        1.633        0.720      135.107       52.906        0.153      338.484       11.166      873.055
01/23/2015  16:33:00       49.362      133.290      -16.111       61.496       82.712       53.780     3781.728     6841.240     2892.282        1.699        0.676      142.136       47.581        0.112      338.487       11.170      873.089
01/23/2015  16:34:00       62.090      117.296        4.076       71.440       83.377       52.666     5103.728     6951.697     2773.716        1.623        0.741      132.716       49.373        0.138      338.469       11.141      873.102
01/23/2015  16:35:00        8.975      118.034       -0.376       46.343       67.123       44.690     2147.679     4505.456     1997.199        1.133        0.433      118.375       40.181        0.115      338.470       11.144      873.117
01/23/2015  16:36:00       76.226      130.250      -16.934       62.413       87.554       58.304     3895.440     7665.651     3399.412        1.901        0.748      150.915       55.996        0.138      338.460       11.125      873.124
01/23/2015  16:37:00      109.029      123.656       -5.756       84.021       73.555       59.570     7059.558     5410.359     3548.614        2.161        0.801      164.858       51.892        0.099      338.465       11.132      873.137
01/23/2015  16:38:00      180.070      107.998       26.043       57.214       41.522       41.465     3273.418     1724.101     1719.306        2.574        0.336      209.973       26.294        0.016      338.458       11.119      873.145
01/23/2015  16:39:00      135.725       60.857       16.332       67.247       49.485       43.416     4522.188     2448.734     1884.935        1.562        0.443      148.744       29.038        0.038      338.421       11.059      873.150
01/23/2015  16:40:00      137.443      106.176       36.078       73.091       58.381       39.101     5342.331     3408.377     1528.915        2.087        0.514      173.678       36.384        0.044      338.420       11.056      873.160
01/23/2015  16:41:00      155.680       96.578       21.952       77.613       55.746       41.228     6023.749     3107.601     1699.749        2.244        0.542      183.204       27.770        0.023      338.410       11.040      873.173
01/23/2015  16:42:00      135.724       95.381        7.924       57.015       49.377       48.616     3250.654     2438.074     2363.474        1.782        0.403      165.887       31.051        0.035      338.410       11.039      873.171
01/23/2015  16:43:00      131.907       96.908       18.306       57.042       38.015       32.512     3253.842     1445.128     1057.009        1.644        0.288      163.679       20.488        0.016      338.397       11.019      873.172
01/23/2015  16:44:00      167.778      119.933       22.902       55.887       46.780       38.701     3123.371     2188.362     1497.745        2.493        0.340      206.236       22.828        0.012      338.434       11.078      873.178
01/23/2015  16:45:00      114.968       75.686        9.764       52.647       37.172       31.197     2771.687     1381.735      973.243        1.208        0.256      137.644       22.737        0.027      338.352       10.945      873.190
01/23/2015  16:46:00      107.705       75.892       26.200       45.703       38.544       28.946     2088.725     1485.661      837.883        1.123        0.221      131.757       23.314        0.031      338.321       10.892      873.204
01/23/2015  16:47:00       98.910       62.032        5.247       45.382       31.877       37.694     2059.559     1016.140     1420.856        0.908        0.225      116.753       15.426        0.017      338.325       10.900      873.196
01/23/2015  16:48:00       83.611       81.765        7.723       56.340       46.105       37.884     3174.175     2125.636     1435.165        1.023        0.337      116.946       28.121        0.058      338.316       10.883      873.173
01/23/2015  16:49:00      118.670      102.165        8.031       42.786       39.194       38.886     1830.628     1536.169     1512.125        1.473        0.244      156.589       24.359        0.024      338.308       10.871      873.155
01/23/2015  16:50:00      114.299       85.789        7.571       67.052       46.870       37.704     4495.964     2196.816     1421.599        1.430        0.406      142.913       24.199        0.029      338.272       10.809      873.148
01/23/2015  16:51:00      132.344       87.642       19.096       52.063       45.263       38.097     2710.541     2048.757     1451.407        1.588        0.311      158.732       31.211        0.039      338.218       10.718      873.137
01/23/2015  16:52:00      132.717      103.253       12.701       48.217       38.977       38.861     2324.845     1519.218     1510.170        1.689        0.268      168.151       22.707        0.018      338.257       10.785      873.130
01/23/2015  16:53:00      124.133       78.555       11.735       39.457       34.887       32.160     1556.828     1217.126     1034.290        1.276        0.190      146.901       23.947        0.027      338.198       10.688      873.120
01/23/2015  16:54:00      140.722       97.490       24.873       42.523       36.918       33.549     1808.230     1362.954     1125.517        1.711        0.215      171.193       13.551        0.006      338.220       10.722      873.115
01/23/2015  16:55:00       89.773       59.592       15.590       47.073       31.891       20.570     2215.855     1017.038      423.135        0.775        0.183      107.752       15.924        0.022      338.107       10.533      873.113
01/23/2015  16:56:00      112.350       68.827       12.565       44.976       31.519       29.994     2022.831      993.435      899.669        1.072        0.196      131.756       21.060        0.026      338.113       10.544      873.111
01/23/2015  16:57:00      132.517       78.566       23.800       38.875       38.331       39.503     1511.251     1469.237     1560.467        1.442        0.227      154.057       21.872        0.020      338.135       10.581      873.116
01/23/2015  16:58:00      106.996       66.222       22.360       40.165       28.069       34.056     1613.229      787.895     1159.786        0.995        0.178      125.831       15.438        0.015      338.204       10.696      873.132
01/23/2015  16:59:00      123.477       83.264       32.470       40.551       35.159       38.942     1644.416     1236.129     1516.483        1.381        0.220      148.927       24.994        0.028      338.188       10.670      873.148
01/23/2015  17:00:00       95.929       49.937       16.332       33.395       30.719       23.679     1115.205      943.654      560.685        0.729        0.131      108.149        8.751        0.007      338.122       10.557      873.158
01/23/2015  17:01:00       60.937       53.574       12.972       40.748       25.338       32.390     1660.432      642.019     1049.135        0.505        0.168       81.139       19.891        0.060      338.080       10.488      873.172
01/23/2015  17:02:00       94.433       46.043       17.081       69.617       34.166       28.243     4846.553     1167.295      797.648        0.907        0.341      105.060       15.952        0.023      338.086       10.499      873.165
01/23/2015  17:03:00       85.168       70.004        9.002       64.119       40.723       23.027     4111.299     1658.400      530.251        0.927        0.315      110.245       17.135        0.024      338.121       10.558      873.184
01/23/2015  17:04:00       86.397       63.392       17.016       48.500       39.907       35.807     2352.288     1592.584     1282.149        0.850        0.261      107.159       30.746        0.082      338.111       10.541      873.178
01/23/2015  17:05:00       72.732       54.688       16.163       31.990       33.801       26.024     1023.378     1142.488      677.256        0.569        0.142       90.998       16.391        0.032      338.044       10.428      873.193
01/23/2015  17:06:00       69.312       46.198        9.436       48.107       26.136       30.552     2314.328      683.113      933.438        0.548        0.197       83.297       25.865        0.096      338.102       10.524      873.192
01/23/2015  17:07:00       65.176       57.209       11.965       47.396       34.158       24.755     2246.393     1166.791      612.817        0.584        0.201       86.723       23.227        0.072      338.046       10.432      873.191
01/23/2015  17:08:00       90.911       52.010       22.164       40.982       27.983       28.407     1679.496      783.030      806.976        0.736        0.163      104.737       19.355        0.034      338.074       10.477      873.187
01/23/2015  17:09:00       92.015       67.482       19.096       41.202       20.481       27.579     1697.564      419.456      760.582        0.813        0.144      114.108       13.246        0.013      338.083       10.493      873.195
01/23/2015  17:10:00       88.939       52.598       10.381       27.574       20.777       19.488      760.322      431.681      379.774        0.618        0.079      103.328        9.307        0.008      338.060       10.453      873.196
01/23/2015  17:11:00       56.635       62.427       -0.756       32.944       34.931       32.767     1085.286     1220.159     1073.681        0.524        0.169       84.289       28.268        0.112      337.983       10.325      873.212
01/23/2015  17:12:00       97.107       63.439       12.670       40.332       23.648       24.601     1626.642      559.241      605.229        0.820        0.140      115.992        9.990        0.007      338.007       10.367      873.215
01/23/2015  17:13:00       71.962       35.582       11.810       25.802       19.077       23.461      665.721      363.925      550.401        0.408        0.079       80.279       12.560        0.024      338.001       10.355      873.222
01/23/2015  17:14:00       61.766       34.493       14.497       29.762       17.720       16.812      885.749      314.011      282.646        0.335        0.074       70.744       13.362        0.036      337.915       10.212      873.222
01/23/2015  17:15:00      121.639       64.913       34.977       47.667       28.844       30.729     2272.161      832.000      944.261        1.214        0.202      137.876       22.746        0.027      337.901       10.188      873.222
01/23/2015  17:16:00      117.683       72.363       43.211       71.757       55.948       51.310     5149.004     3130.221     2632.750        1.593        0.546      138.151       47.650        0.119      337.886       10.163      873.222
01/23/2015  17:17:00       74.822       30.443       51.877       86.369       55.330       44.206     7459.527     3061.420     1954.205        1.084        0.624       80.778       38.768        0.230      337.853       10.105      873.226
01/23/2015  17:18:00       75.525       17.237       17.070       42.656       31.858       29.028     1819.548     1014.955      842.654        0.498        0.184       77.467       19.799        0.065      337.762        9.954      873.231
01/23/2015  17:19:00       51.977       35.761       25.524       40.417       39.568       28.335     1633.542     1565.627      802.873        0.432        0.200       63.091       20.463        0.105      337.738        9.914      873.227
01/23/2015  17:20:00       97.820       74.656       35.003       46.873       45.386       36.099     2197.032     2059.884     1303.135        1.096        0.278      123.054       22.442        0.033      337.790       10.003      873.229
01/23/2015  17:21:00       96.959       57.677       12.171       34.240       27.154       23.093     1172.376      737.348      533.300        0.766        0.122      112.817       12.108        0.012      337.779        9.983      873.236
01/23/2015  17:22:00       86.187       46.643       20.355       45.210       28.708       31.108     2043.974      824.151      967.700        0.693        0.192       97.999        8.816        0.008      337.740        9.917      873.252
01/23/2015  17:23:00       26.936       38.114       15.872       48.010       28.031       21.844     2304.987      785.727      477.166        0.300        0.178       46.672       20.432        0.192      337.643        9.755      873.252
01/23/2015  17:24:00       64.474       34.343       13.915       41.517       23.083       22.740     1723.696      532.803      517.089        0.415        0.139       73.050        9.113        0.016      337.631        9.737      873.250
01/23/2015  17:25:00      109.165       61.826       23.203       39.434       27.960       24.757     1555.023      781.752      612.919        0.961        0.147      125.457       13.905        0.012      337.671        9.801      873.245
01/23/2015  17:26:00      114.853       53.607       27.700       54.266       46.012       26.941     2944.759     2117.148      725.836        1.131        0.289      126.747       19.109        0.023      337.669        9.798      873.238
01/23/2015  17:27:00      126.880       61.309       23.655       37.511       40.967       36.228     1407.081     1678.318     1312.497        1.241        0.220      140.916       16.691        0.014      337.637        9.744      873.238
01/23/2015  17:28:00      146.338       81.059       27.683       82.357       53.119       46.981     6782.694     2821.647     2207.174        2.028        0.591      167.288       32.385        0.037      337.662        9.786      873.239
01/23/2015  17:29:00      124.128       75.829       15.100       60.998       38.125       37.301     3720.797     1453.518     1391.364        1.397        0.328      145.457       23.403        0.026      337.601        9.686      873.255
01/23/2015  17:30:00      131.642       85.670       14.688       53.793       39.751       39.777     2893.735     1580.142     1582.227        1.547        0.303      157.064       34.122        0.047      337.592        9.669      873.271
01/23/2015  17:31:00       92.545       82.568       12.083       57.271       40.124       40.896     3280.023     1609.927     1672.447        1.104        0.328      124.024       26.756        0.047      337.546        9.592      873.301
01/23/2015  17:32:00       91.427       80.580        7.217       88.179       53.853       39.973     7775.518     2900.106     1597.839        1.359        0.614      121.869       29.028        0.057      337.585        9.659      873.334
01/23/2015  17:33:00      116.250       69.315       22.858       52.201       49.770       34.736     2724.928     2477.068     1206.565        1.262        0.320      135.346       16.445        0.015      337.514        9.538      873.355
01/23/2015  17:34:00      168.191      109.853       17.046       64.371       38.873       41.781     4143.622     1511.105     1745.659        2.402        0.370      200.888       13.575        0.005      337.543        9.585      873.377
01/23/2015  17:35:00      130.830       91.070       23.174       54.948       54.236       43.318     3019.233     2941.499     1876.472        1.689        0.392      159.406       35.317        0.049      337.515        9.540      873.390
01/23/2015  17:36:00       77.048       69.440       11.183       49.675       31.096       32.631     2467.637      966.957     1064.771        0.769        0.225      103.722       25.620        0.061      337.448        9.427      873.404
01/23/2015  17:37:00       85.907       85.176       -5.356       57.467       42.933       40.450     3302.483     1843.222     1636.175        1.072        0.339      120.975       30.110        0.062      337.452        9.436      873.408
01/23/2015  17:38:00       59.781       48.829        4.026       53.859       42.371       26.026     2900.798     1795.308      677.356        0.567        0.269       77.188       15.723        0.041      337.374        9.306      873.409
01/23/2015  17:39:00       81.775      100.374       -5.483       49.783       66.835       30.886     2478.299     4466.961      953.931        1.234        0.395      129.468       36.411        0.079      337.374        9.303      873.404
01/23/2015  17:40:00       58.029       83.085        6.889       45.071       66.245       42.881     2031.414     4388.358     1838.786        0.929        0.413      101.343       35.281        0.121      337.389        9.331      873.405
01/23/2015  17:41:00       20.279       34.625       22.238       48.807       35.750       37.048     2382.099     1278.076     1372.569        0.357        0.252       40.127       22.425        0.312      337.303        9.185      873.398
01/23/2015  17:42:00       41.481       83.304       -6.669       41.116       53.810       37.020     1690.517     2895.535     1370.490        0.733        0.298       93.060       37.118        0.159      337.290        9.163      873.399
01/23/2015  17:43:00       24.617      126.288      -15.897       38.022       57.743       32.012     1445.655     3334.296     1024.775        1.131        0.290      128.665       32.043        0.062      337.235        9.071      873.410
01/23/2015  17:44:00       20.232      185.677      -25.526       42.514       62.683       33.034     1807.416     3929.174     1091.264        2.118        0.341      186.776       34.369        0.034      337.180        8.980      873.427
01/23/2015  17:45:00       35.092      119.732       -2.493       41.131       58.983       43.973     1691.739     3479.015     1933.616        1.134        0.355      124.768       43.471        0.121      337.081        8.813      873.444
01/23/2015  17:46:00       29.453      119.029      -12.041       35.701       53.839       33.797     1274.595     2898.658     1142.229        1.025        0.266      122.619       32.141        0.069      337.046        8.755      873.457
01/23/2015  17:47:00       41.056      106.595       -0.749       39.113       58.885       38.013     1529.790     3467.413     1444.964        0.974        0.322      114.228       32.083        0.079      337.012        8.699      873.476
01/23/2015  17:48:00       21.022       59.708       10.365       32.400       46.304       28.382     1049.731     2144.095      805.537        0.406        0.200       63.301       27.380        0.187      336.945        8.586      873.488
01/23/2015  17:49:00       26.981      109.061      -13.540       23.746       53.078       29.146      563.874     2817.231      849.479        0.852        0.212      112.349       33.343        0.088      337.021        8.713      873.498
01/23/2015  17:50:00        5.832      109.082      -16.616       23.672       35.216       23.566      560.350     1240.134      555.360        0.728        0.118      109.238       23.542        0.046      337.046        8.754      873.504
01/23/2015  17:51:00       22.848       83.453       -0.658       60.417       47.687       45.523     3650.160     2274.020     2072.339        0.774        0.400       86.524       44.420        0.264      337.078        8.810      873.511
01/23/2015  17:52:00       35.493       88.971       -2.928       44.260       49.958       29.619     1958.971     2495.781      877.262        0.726        0.267       95.789       27.809        0.084      337.024        8.719      873.499
01/23/2015  17:53:00        3.685       94.668       -9.871       33.840       40.500       25.303     1145.116     1640.273      640.267        0.625        0.171       94.740       18.702        0.039      337.013        8.701      873.484
01/23/2015  17:54:00       21.252       91.719       -7.071       33.390       48.413       22.813     1114.911     2343.786      520.423        0.645        0.199       94.149        9.447        0.010      337.036        8.738      873.484
01/23/2015  17:55:00       36.826       76.665       -5.823       29.905       42.429       30.737      894.333     1800.247      944.737        0.545        0.182       85.051       28.825        0.115      337.026        8.721      873.488
01/23/2015  17:56:00       28.613       68.735      -10.074       37.508       55.359       24.987     1406.876     3064.648      624.337        0.537        0.255       74.452       16.112        0.047      336.995        8.670      873.493
01/23/2015  17:57:00       35.504       54.037        1.609       34.304       27.019       23.523     1176.787      730.006      553.334        0.332        0.123       64.657       17.965        0.077      336.958        8.608      873.506
01/23/2015  17:58:00       31.070       86.427      -10.186       29.165       42.403       23.338      850.610     1798.019      544.649        0.587        0.160       91.842       24.340        0.070      337.004        8.685      873.514
01/23/2015  17:59:00       38.912       56.849        3.365       38.376       42.422       31.860     1472.688     1799.625     1015.080        0.452        0.214       68.891       32.028        0.216      337.001        8.681      873.525
01/23/2015  18:00:00       24.701       51.861       -8.696       24.945       29.435       20.341      622.240      866.397      413.758        0.264        0.095       57.443       17.694        0.095      336.936        8.571      873.534
01/23/2015  18:01:00       19.706       50.682       -6.759       19.802       27.968       19.872      392.106      782.222      394.888        0.229        0.078       54.378       18.601        0.117      337.024        8.718      873.523
01/23/2015  18:02:00      -52.701       50.827      -14.501       34.407       46.015       14.377     1183.837     2117.344      206.686        0.454        0.175       73.218       17.264        0.056      337.059        8.777      873.533
01/23/2015  18:03:00     -122.617       12.062      -21.021       40.776       22.526       18.575     1662.686      507.410      345.041        0.907        0.126      123.209       22.311        0.033      336.941        8.579      873.528
01/23/2015  18:04:00     -100.952      -12.462      -12.348       32.518       30.975       20.639     1057.420      959.436      425.962        0.647        0.122      101.718       16.228        0.025      336.748        8.258      873.530
01/23/2015  18:05:00     -121.306      -13.421      -14.983       51.167       46.546       24.822     2618.083     2166.512      616.131        1.026        0.270      122.046       24.904        0.042      336.529        7.893      873.524
01/23/2015  18:06:00      -75.018      -31.791        5.576       41.783       36.476       24.171     1745.802     1330.535      584.256        0.516        0.183       81.477       19.275        0.056      336.476        7.802      873.518
01/23/2015  18:07:00      -53.959       -0.258       -7.992       31.969       34.999       19.121     1022.016     1224.960      365.601        0.279        0.131       53.959       14.255        0.070      336.447        7.755      873.526
01/23/2015  18:08:00      -52.720      -13.035       -7.141       24.327       25.542       16.390      591.780      652.413      268.622        0.226        0.076       54.307       10.947        0.041      336.486        7.820      873.534
01/23/2015  18:09:00      -54.972      -31.214      -11.125       23.671       22.731       13.863      560.319      516.713      192.183        0.269        0.063       63.216        9.442        0.022      336.549        7.927      873.539
01/23/2015  18:10:00      -42.043        6.606      -11.477       15.927       21.161       12.977      253.684      447.777      168.390        0.141        0.043       42.559        6.893        0.026      336.544        7.919      873.551
01/23/2015  18:11:00      -74.144       29.855      -10.995       25.818       29.325       14.892      666.584      859.978      221.778        0.413        0.087       79.929        7.318        0.008      336.482        7.813      873.548
01/23/2015  18:12:00      -59.509        4.761      -11.160       27.971       27.300       12.939      782.384      745.291      167.429        0.269        0.085       59.699        9.858        0.027      336.463        7.782      873.559
01/23/2015  18:13:00      -92.729       14.356      -15.222       34.566       34.722       20.812     1194.833     1205.587      433.155        0.593        0.142       93.834       22.346        0.057      336.513        7.867      873.560
01/23/2015  18:14:00      -49.518       13.815       -9.051       27.435       39.239       18.573      752.653     1539.673      344.960        0.268        0.132       51.409       16.496        0.103      336.427        7.722      873.566
01/23/2015  18:15:00      -81.522       -0.112      -15.422       40.056       34.864       16.128     1604.449     1215.512      260.097        0.498        0.154       81.522        8.004        0.010      336.525        7.885      873.567
01/23/2015  18:16:00     -105.617       -1.244       -7.556       53.012       25.598       21.417     2810.273      655.250      458.687        0.757        0.196      105.624       26.638        0.064      336.412        7.697      873.569
01/23/2015  18:17:00     -131.171       21.026      -14.317       46.189       23.488       15.315     2133.422      551.683      234.551        1.039        0.146      132.845       11.300        0.007      336.472        7.795      873.567
01/23/2015  18:18:00     -121.604       51.965      -22.030       48.060       32.707       20.710     2309.766     1069.731      428.923        1.089        0.190      132.242       22.826        0.030      336.590        7.994      873.583
01/23/2015  18:19:00      -68.872       -4.382      -12.271       35.566       18.365       12.549     1264.975      337.266      157.487        0.334        0.088       69.011       14.374        0.043      336.523        7.883      873.591
01/23/2015  18:20:00      -85.535       14.215      -12.169       24.734       36.382       19.102      611.788     1323.675      364.873        0.498        0.115       86.709       14.262        0.027      336.379        7.640      873.601
01/23/2015  18:21:00      -69.884       29.015      -15.046       25.858       54.427       24.455      668.652     2962.249      598.041        0.509        0.211       75.668       28.244        0.139      336.428        7.723      873.618
01/23/2015  18:22:00      -77.218        7.007      -19.943       29.154       32.312       17.158      849.938     1044.082      294.399        0.430        0.109       77.536       13.939        0.032      336.504        7.851      873.627
01/23/2015  18:23:00      -74.713        9.552      -15.143       21.131       24.682       16.573      446.527      609.189      274.675        0.362        0.067       75.321       15.671        0.043      336.420        7.710      873.645
01/23/2015  18:24:00      -53.544       22.605      -15.465       20.885       19.763       14.947      436.203      390.587      223.423        0.233        0.053       58.120        5.516        0.009      336.452        7.762      873.670
01/23/2015  18:25:00      -70.732       15.241      -11.367       21.976       32.002       19.363      482.948     1024.160      374.913        0.362        0.094       72.355       18.664        0.067      336.444        7.748      873.691
01/23/2015  18:26:00      -72.574       16.494      -18.939       15.574       22.910       12.760      242.535      524.857      162.825        0.341        0.047       74.424        8.327        0.013      336.379        7.641      873.702
01/23/2015  18:27:00      -81.080       36.941      -23.302       39.827       35.232       14.908     1586.166     1241.288      222.253        0.577        0.152       89.098       15.132        0.029      336.441        7.746      873.711
01/23/2015  18:28:00      -98.394       48.020      -19.625       25.061       32.396       18.179      628.077     1049.530      330.468        0.719        0.100      109.486       15.094        0.019      336.510        7.860      873.726
01/23/2015  18:29:00     -106.093       70.088      -23.945       26.487       30.033       16.488      701.554      901.958      271.869        0.931        0.094      127.154       15.296        0.014      336.632        8.064      873.733
01/23/2015  18:30:00      -72.132       10.632       -7.035       17.368       20.116       15.965      301.637      404.667      254.879        0.316        0.048       72.911       12.150        0.028      336.508        7.857      873.736
01/23/2015  18:31:00      -84.020       47.888      -19.880       20.087       28.364       22.303      403.477      804.493      497.408        0.573        0.085       96.709       13.348        0.019      336.528        7.890      873.732
01/23/2015  18:32:00     -103.320       73.812      -21.719       33.220       43.991       21.053     1103.580     1935.201      443.241        1.004        0.174      126.978       26.256        0.043      336.565        7.953      873.736
01/23/2015  18:33:00     -103.501       88.898      -28.832       33.140       43.609       19.937     1098.266     1901.755      397.470        1.142        0.170      136.438       22.030        0.026      336.562        7.946      873.733
01/23/2015  18:34:00      -99.448       85.720      -19.869       26.001       34.849       18.886      676.060     1214.454      356.691        0.994        0.112      131.293       17.485        0.018      336.546        7.922      873.732
01/23/2015  18:35:00      -95.891       79.781      -19.590       22.155       27.424       18.551      490.861      752.062      344.149        0.877        0.079      124.740       17.845        0.020      336.548        7.926      873.728
01/23/2015  18:36:00      -83.305       91.075      -24.118       31.090       26.256       21.448      966.576      689.369      459.996        0.897        0.106      123.428       16.994        0.019      336.560        7.943      873.724
01/23/2015  18:37:00      -72.479       42.590      -11.576       18.238       31.803       13.187      332.623     1011.438      173.895        0.436        0.076       84.066       11.864        0.020      336.491        7.830      873.719
01/23/2015  18:38:00      -71.520       25.461      -10.197       18.838       23.449        9.105      354.881      549.851       82.898        0.343        0.049       75.916        8.811        0.013      336.518        7.875      873.711
01/23/2015  18:39:00      -71.526       24.770      -13.414       21.753       25.182       15.042      473.199      634.135      226.250        0.362        0.067       75.694       11.686        0.024      336.334        7.567      873.712
01/23/2015  18:40:00      -78.921       44.219      -17.253       20.458       30.216       14.033      418.539      913.023      196.926        0.500        0.076       90.464       12.721        0.020      336.486        7.820      873.709
01/23/2015  18:41:00      -62.631       12.510       -7.335       16.759       22.835       15.143      280.861      521.430      229.317        0.258        0.052       63.869       11.005        0.030      336.203        7.347      873.716
01/23/2015  18:42:00      -78.638       25.857      -11.092       21.045       23.569       13.590      442.911      555.508      184.695        0.408        0.059       82.780       12.585        0.023      336.364        7.617      873.737
01/23/2015  18:43:00      -71.806       25.558      -15.621       23.998       25.330       14.125      575.890      641.599      199.511        0.373        0.071       76.219       11.928        0.024      336.319        7.541      873.772
01/23/2015  18:44:00      -77.860       42.650      -16.143       21.093       34.785       17.871      444.928     1209.991      319.360        0.506        0.099       88.776       18.847        0.045      336.346        7.586      873.797
01/23/2015  18:45:00      -98.478       70.234      -26.644       21.194       42.469       15.740      449.166     1803.582      247.757        0.892        0.125      120.957       14.456        0.014      336.457        7.773      873.819
01/23/2015  18:46:00      -89.931       63.447      -17.548       22.875       38.801       16.408      523.282     1505.530      269.220        0.736        0.115      110.060       18.456        0.028      336.390        7.659      873.833
01/23/2015  18:47:00      -91.035       57.224      -16.409       20.435       33.147       16.288      417.606     1098.746      265.290        0.681        0.089      107.527       12.142        0.013      336.435        7.735      873.837
01/23/2015  18:48:00      -84.636       80.696      -22.485       17.987       36.859       13.321      323.527     1358.599      177.459        0.802        0.093      116.941       10.411        0.008      336.538        7.908      873.842
01/23/2015  18:49:00      -94.729       69.818      -18.554       17.793       30.562       18.703      316.591      934.036      349.797        0.790        0.080      117.678       14.438        0.015      336.542        7.916      873.829
01/23/2015  18:50:00      -80.135       91.369      -22.667       29.900       28.109       19.848      894.032      790.104      393.958        0.868        0.104      121.532       18.552        0.023      336.492        7.832      873.828
01/23/2015  18:51:00      -73.052       91.771      -17.139       22.519       39.457       17.092      507.084     1556.873      292.138        0.820        0.118      117.297       13.337        0.013      336.495        7.835      873.824
01/23/2015  18:52:00      -62.345       77.158      -16.067       23.721       20.074       11.418      562.672      402.963      130.368        0.560        0.055       99.198        8.218        0.007      336.587        7.989      873.834
01/23/2015  18:53:00      -58.361       50.038      -16.505       19.346       27.238       13.376      374.278      741.897      178.915        0.374        0.065       76.875       11.164        0.021      336.445        7.751      873.835
01/23/2015  18:54:00      -81.333       66.752      -19.913       17.371       24.566       12.369      301.735      603.489      152.995        0.626        0.053      105.218       10.903        0.011      336.483        7.816      873.834
01/23/2015  18:55:00      -80.141       96.112      -22.638       34.632       23.001       15.111     1199.395      529.026      228.342        0.906        0.098      125.140       13.864        0.012      336.524        7.884      873.835
01/23/2015  18:56:00      -79.867       62.036      -17.858       23.042       20.418       13.513      530.931      416.891      182.604        0.584        0.057      101.130       10.659        0.011      336.452        7.764      873.846
01/23/2015  18:57:00      -80.053       79.933      -21.024       18.146       34.655       14.338      329.285     1200.996      205.580        0.749        0.087      113.127       16.996        0.023      336.384        7.649      873.866
01/23/2015  18:58:00      -74.743       84.821      -21.307       25.451       27.404       18.708      647.760      751.004      350.003        0.749        0.087      113.053       12.043        0.011      336.401        7.678      873.870
01/23/2015  18:59:00      -58.316       70.508      -14.040       31.617       39.469       20.389      999.663     1557.770      415.708        0.577        0.149       91.500       21.396        0.055      336.429        7.725      873.877
01/23/2015  19:00:00      -59.121       80.628      -17.703       32.900       25.242       18.432     1082.442      637.139      339.728        0.618        0.103       99.981       18.787        0.035      336.485        7.817      873.878
01/23/2015  19:01:00      -55.985       39.478      -10.839       23.306       25.403       15.783      543.161      645.331      249.102        0.312        0.072       68.504       14.345        0.044      336.269        7.458      873.878
01/23/2015  19:02:00      -75.699       54.192      -14.227       21.663       24.361       12.959      469.294      593.463      167.942        0.505        0.062       93.098       12.179        0.017      336.294        7.500      873.882
01/23/2015  19:03:00      -81.110       37.314      -11.878       15.468       25.244       11.630      239.257      637.254      135.263        0.456        0.051       89.281       10.566        0.014      336.140        7.242      873.872
01/23/2015  19:04:00      -96.822       63.768      -22.783       23.619       30.453       16.214      557.856      927.360      262.882        0.785        0.087      115.935       16.284        0.020      336.292        7.496      873.876
01/23/2015  19:05:00      -85.114       84.156      -23.569       22.346       28.562       16.232      499.332      815.768      263.493        0.823        0.079      119.694       13.686        0.013      336.367        7.621      873.886
01/23/2015  19:06:00      -90.352       58.242      -13.339       18.022       29.032       14.544      324.787      842.869      211.514        0.656        0.069      107.498       12.638        0.014      336.295        7.502      873.892
01/23/2015  19:07:00      -99.389       84.427      -24.088       32.417       26.677       17.246     1050.864      711.684      297.421        0.982        0.103      130.408        8.995        0.005      336.363        7.616      873.890
01/23/2015  19:08:00      -97.299       84.248      -28.496       21.582       32.135       14.917      465.777     1032.643      222.518        0.955        0.086      128.704       18.029        0.020      336.341        7.577      873.902
01/23/2015  19:09:00     -115.080       68.501      -26.050       19.194       40.986       16.887      368.404     1679.883      285.165        1.047        0.117      133.924       17.765        0.018      336.260        7.442      873.902
01/23/2015  19:10:00     -100.632       53.467      -21.943       28.155       41.640       18.244      792.706     1733.897      332.855        0.816        0.143      113.954       20.942        0.034      336.205        7.351      873.902
01/23/2015  19:11:00     -107.392       55.540      -12.769       35.833       33.856       21.330     1284.006     1146.208      454.951        0.883        0.144      120.903       18.640        0.024      336.348        7.589      873.900
01/23/2015  19:12:00      -85.380       58.119      -14.814       40.282       33.885       22.858     1622.676     1148.161      522.497        0.709        0.165      103.284       24.315        0.055      336.294        7.498      873.905
01/23/2015  19:13:00      -80.088       -2.732      -17.237       22.216       26.870       15.874      493.531      722.022      251.999        0.409        0.073       80.135       14.269        0.032      335.958        6.938      873.905
01/23/2015  19:14:00      -70.146        7.339       -8.509       26.290       31.371       15.907      691.140      984.140      253.042        0.349        0.096       70.529       15.299        0.047      336.153        7.262      873.909
01/23/2015  19:15:00     -104.159       61.888      -25.232       26.621       30.683       18.553      708.691      941.451      344.225        0.865        0.100      121.158       12.339        0.010      336.257        7.438      873.918
01/23/2015  19:16:00      -99.271       19.293      -14.122       25.747       41.136       21.012      662.900     1692.133      441.503        0.661        0.140      101.128       18.765        0.034      336.160        7.275      873.913
01/23/2015  19:17:00      -82.633       31.255       -5.519       26.537       38.196       22.442      704.194     1458.928      503.659        0.525        0.133       88.346       21.920        0.062      336.200        7.341      873.925
01/23/2015  19:18:00      -78.636       13.289      -13.373       18.005       32.649       17.421      324.175     1065.964      303.508        0.412        0.085       79.751       11.186        0.020      336.008        7.020      873.923
01/23/2015  19:19:00     -104.574       79.790      -27.639       31.938       31.844       19.459     1020.053     1014.061      378.650        1.024        0.121      131.538       20.592        0.025      336.298        7.506      873.921
01/23/2015  19:20:00      -87.088       13.809       -8.633       19.738       22.818       20.678      389.589      520.652      427.580        0.459        0.067       88.176        7.502        0.007      336.030        7.059      873.911
01/23/2015  19:21:00      -69.945        5.410      -12.980       22.716       21.881       13.372      516.011      478.779      178.816        0.313        0.059       70.154       10.174        0.021      335.956        6.934      873.913
01/23/2015  19:22:00      -74.499       20.411      -17.045       29.995       30.019       16.218      899.699      901.112      263.008        0.416        0.103       77.244       13.515        0.031      336.024        7.049      873.899
01/23/2015  19:23:00     -110.857       73.387      -24.258       30.382       33.666       19.823      923.049     1133.421      392.939        1.036        0.122      132.947       18.661        0.020      336.201        7.342      873.893
01/23/2015  19:24:00      -95.279       33.009      -21.952       26.730       35.668       19.221      714.493     1272.241      369.460        0.650        0.118      100.835       19.799        0.039      336.032        7.062      873.904
01/23/2015  19:25:00     -127.148       90.674      -30.150       29.342       38.585       21.680      860.932     1488.791      470.035        1.406        0.141      156.168       20.473        0.017      336.242        7.413      873.915
01/23/2015  19:26:00     -128.267      114.212      -32.952       28.009       29.660       16.800      784.511      879.686      282.236        1.626        0.097      171.746       13.587        0.006      336.222        7.379      873.928
01/23/2015  19:27:00     -117.361      100.080      -29.059       35.096       39.202       20.762     1231.709     1536.810      431.054        1.392        0.160      154.239       19.505        0.016      336.167        7.286      873.954
01/23/2015  19:28:00     -107.336       88.196      -24.803       39.285       41.696       19.516     1543.295     1738.546      380.866        1.179        0.183      138.922       16.644        0.014      336.043        7.080      873.969
01/23/2015  19:29:00     -112.469       73.830      -24.677       27.757       53.061       23.198      770.424     2815.437      538.132        1.142        0.206      134.536       20.803        0.024      336.001        7.011      873.978
01/23/2015  19:30:00     -116.882       90.183      -28.273       34.079       42.398       19.569     1161.348     1797.580      382.963        1.297        0.167      147.629       19.273        0.017      336.030        7.059      874.001
01/23/2015  19:31:00     -121.769       54.353      -22.988       24.246       38.483       18.702      587.890     1480.933      349.762        1.036        0.121      133.349       16.548        0.015      336.015        7.034      874.002
01/23/2015  19:32:00      -98.099       69.835      -22.195       30.687       43.147       21.342      941.664     1861.670      455.488        0.913        0.163      120.417       17.459        0.021      336.095        7.165      873.998
01/23/2015  19:33:00      -86.992       41.153      -16.879       36.717       51.933       28.373     1348.129     2697.071      805.046        0.720        0.243       96.235       26.740        0.077      336.009        7.022      874.009
01/23/2015  19:34:00     -104.611       74.770      -23.215       36.496       40.159       21.952     1331.943     1612.707      481.871        1.025        0.171      128.585       18.073        0.020      336.132        7.229      874.024
01/23/2015  19:35:00     -107.327       29.095      -20.900       26.534       56.256       17.024      704.075     3164.723      289.813        0.848        0.208      111.200       18.024        0.026      336.088        7.155      874.032
01/23/2015  19:36:00      -75.929       -5.851      -16.706       18.389       24.917       15.207      338.146      620.879      231.255        0.363        0.060       76.154       10.013        0.017      335.836        6.736      874.043
01/23/2015  19:37:00     -122.030       89.302      -30.932       37.634       38.689       17.062     1416.284     1496.851      291.105        1.351        0.160      151.216       17.819        0.014      336.143        7.247      874.050
01/23/2015  19:38:00     -115.414       51.969      -35.289       32.244       44.630       21.507     1039.646     1991.819      462.536        1.038        0.175      126.575       17.522        0.019      336.058        7.104      874.048
01/23/2015  19:39:00      -82.947       -8.983      -10.325       25.603       28.773       24.155      655.531      827.903      583.483        0.457        0.103       83.432       16.982        0.041      335.911        6.860      874.036
01/23/2015  19:40:00      -70.118       16.633      -17.722       21.350       31.385       14.313      455.815      984.993      204.854        0.358        0.082       72.064        7.256        0.010      335.870        6.792      874.038
01/23/2015  19:41:00     -124.558       89.462      -32.598       29.646       40.209       17.588      878.859     1616.754      309.337        1.369        0.140      153.356       18.069        0.014      336.124        7.216      874.033
01/23/2015  19:42:00     -104.517       84.386      -21.346       30.703       47.281       26.746      942.678     2235.525      715.366        1.120        0.195      134.331       24.856        0.034      336.034        7.065      874.027
01/23/2015  19:43:00     -109.391       79.748      -21.379       34.456       63.684       29.221     1187.239     4055.630      853.857        1.244        0.305      135.374       32.391        0.057      336.099        7.175      874.033
01/23/2015  19:44:00      -90.557       46.058      -16.656       28.985       38.602       20.706      840.121     1490.086      428.724        0.668        0.138      101.597       12.153        0.014      336.073        7.129      874.048
01/23/2015  19:45:00     -119.659       73.473      -32.181       45.080       55.923       24.856     2032.174     3127.399      617.802        1.326        0.289      140.415       33.205        0.056      336.006        7.018      874.052
01/23/2015  19:46:00      -98.425       69.620      -21.809       40.190       63.667       31.210     1615.198     4053.467      974.052        1.083        0.332      120.559       31.347        0.068      336.033        7.062      874.054
01/23/2015  19:47:00      -91.967       35.132      -16.590       34.280       43.169       20.892     1175.129     1863.558      436.486        0.672        0.174       98.449       16.120        0.027      335.909        6.856      874.057
01/23/2015  19:48:00      -92.227       17.270      -17.286       23.292       38.523       18.157      542.540     1483.988      329.687        0.573        0.118       93.830       15.170        0.026      335.883        6.813      874.045
01/23/2015  19:49:00      -78.994       13.363      -24.824       23.814       35.605       19.974      567.123     1267.742      398.947        0.463        0.112       80.116       14.088        0.031      335.868        6.788      874.026
01/23/2015  19:50:00      -82.411        2.043      -11.335       27.983       32.829       17.000      783.049     1077.768      288.984        0.454        0.107       82.436        8.505        0.011      335.917        6.869      874.021
01/23/2015  19:51:00      -55.583        7.078      -14.302       23.177       19.869       17.654      537.151      394.769      311.655        0.229        0.062       56.031       13.542        0.058      335.733        6.566      874.029
01/23/2015  19:52:00      -71.045       30.021      -15.592       26.050       32.333       14.273      678.590     1045.400      203.727        0.406        0.096       77.128       14.449        0.035      335.753        6.597      874.035
01/23/2015  19:53:00      -67.760       19.535      -21.242       17.145       30.243       13.058      293.960      914.638      170.500        0.340        0.069       70.520       14.427        0.042      335.787        6.655      874.043
01/23/2015  19:54:00      -83.183       -0.047      -20.194       19.074       24.594       11.550      363.835      604.871      133.403        0.421        0.055       83.183        9.555        0.013      335.629        6.390      874.061
01/23/2015  19:55:00      -68.318        6.179      -15.566       33.877       24.098       15.549     1147.631      580.736      241.782        0.346        0.099       68.597       17.842        0.068      335.654        6.432      874.070
01/23/2015  19:56:00      -48.737       -3.567       -9.947       19.902       21.476       13.813      396.076      461.223      190.803        0.177        0.052       48.868       10.019        0.042      335.563        6.280      874.073
01/23/2015  19:57:00      -86.191      -13.473      -16.591       19.157       21.391       12.313      366.983      457.573      151.609        0.443        0.049       87.237        8.401        0.009      335.442        6.078      874.062
01/23/2015  19:58:00      -69.682      -20.500       -7.748       24.249       27.877       19.730      588.027      777.139      389.260        0.354        0.088       72.635       12.685        0.031      335.383        5.979      874.047
01/23/2015  19:59:00      -75.282       -5.440       -7.976       29.380       23.012       17.859      863.189      529.542      318.934        0.374        0.086       75.478       15.110        0.040      335.334        5.897      874.044
01/23/2015  20:00:00      -95.321       -7.083      -17.001       16.804       17.115       10.230      282.386      292.932      104.659        0.505        0.034       95.584        7.752        0.007      335.322        5.878      874.031
01/23/2015  20:01:00      -70.561       -1.200       -9.154       53.479       27.307       18.862     2859.993      745.684      355.771        0.451        0.198       70.571       23.605        0.112      335.250        5.757      874.029
01/23/2015  20:02:00      -58.286      -12.297       -9.430       32.023       28.720       12.679     1025.444      824.824      160.757        0.282        0.101       59.570        9.163        0.024      335.291        5.825      874.033
01/23/2015  20:03:00      -75.412      -12.405      -13.369       18.759       16.062       11.508      351.906      258.003      132.437        0.338        0.037       76.425       10.910        0.020      335.276        5.801      874.040
01/23/2015  20:04:00      -23.632      -37.840      -11.027       33.957       16.235       15.039     1153.067      263.560      226.176        0.188        0.082       44.613       13.084        0.086      335.359        5.940      874.061
01/23/2015  20:05:00       -9.229      -29.883       -6.018       29.856       13.793        9.123      891.385      190.237       83.228        0.109        0.058       31.276        8.529        0.074      335.390        5.990      874.073
01/23/2015  20:06:00      -79.423      -43.064      -17.372       14.528       16.201       11.177      211.069      262.483      124.926        0.453        0.030       90.346        8.631        0.009      335.340        5.906      874.074
01/23/2015  20:07:00      -98.692      -33.179      -17.984       14.901       15.899       13.108      222.037      252.779      171.823        0.591        0.032      104.120        7.732        0.006      335.265        5.783      874.074
01/23/2015  20:08:00      -71.915      -13.978       -7.684       24.190       12.294       10.131      585.172      151.153      102.637        0.313        0.042       73.261       10.040        0.019      335.216        5.701      874.084
01/23/2015  20:09:00      -74.296      -22.690      -11.029        9.577       11.991        8.782       91.711      143.778       77.117        0.323        0.016       77.683        5.267        0.005      335.244        5.747      874.091
01/23/2015  20:10:00      -78.896      -32.168       -6.474       14.692       12.838        7.273      215.850      164.811       52.901        0.387        0.022       85.202        6.096        0.005      335.254        5.764      874.087
01/23/2015  20:11:00      -79.176      -46.986      -10.256       11.799       15.196       10.622      139.218      230.907      112.835        0.453        0.024       92.069        7.007        0.006      335.254        5.764      874.074
01/23/2015  20:12:00      -72.682      -29.862       -8.662       18.550       12.072       13.873      344.087      145.727      192.473        0.347        0.034       78.578        5.562        0.005      335.232        5.727      874.064
01/23/2015  20:13:00      -65.652      -29.793       -8.461       13.372        8.080        8.750      178.822       65.287       76.567        0.279        0.016       72.096        7.036        0.010      335.242        5.744      874.056
01/23/2015  20:14:00      -60.609      -15.196      -10.313       13.417       11.722       10.543      180.003      137.410      111.145        0.222        0.021       62.485        8.655        0.019      335.211        5.693      874.048
01/23/2015  20:15:00      -71.783      -20.741      -11.608        8.661        8.672        7.873       75.004       75.208       61.985        0.296        0.011       74.719        4.019        0.003      335.222        5.711      874.051
01/23/2015  20:16:00      -64.992      -28.138       -8.981        7.730        7.724        8.613       59.759       59.661       74.179        0.264        0.010       70.822        4.741        0.004      335.229        5.722      874.061
01/23/2015  20:17:00      -50.505      -31.380       -2.831       12.882       11.871        8.340      165.942      140.914       69.553        0.196        0.019       59.460        4.291        0.005      335.239        5.740      874.061
01/23/2015  20:18:00      -54.403      -15.352       -4.893       13.533       10.986        8.842      183.131      120.697       78.176        0.180        0.019       56.528        7.641        0.018      335.168        5.622      874.061
01/23/2015  20:19:00      -61.754      -13.851       -9.326       10.164        8.082        6.730      103.310       65.318       45.290        0.215        0.011       63.288        3.621        0.003      335.146        5.586      874.069
01/23/2015  20:20:00      -65.080      -26.325       -9.895       15.660       14.543        8.860      245.224      211.500       78.504        0.278        0.027       70.203        4.533        0.004      335.081        5.481      874.084
01/23/2015  20:21:00      -77.981      -13.649      -13.563       15.936       17.045       13.232      253.968      290.548      175.075        0.359        0.036       79.167        5.413        0.005      335.058        5.439      874.102
01/23/2015  20:22:00      -66.125      -11.632       -5.734       28.549       24.896       13.900      815.022      619.810      193.218        0.308        0.081       67.141       13.045        0.038      334.972        5.297      874.106
01/23/2015  20:23:00      -67.430       -9.473       -5.259       27.345       24.659       19.759      747.723      608.061      390.419        0.320        0.087       68.092       14.834        0.047      334.863        5.117      874.101
01/23/2015  20:24:00      -81.127       19.827      -16.997       31.471       26.283       12.918      990.410      690.789      166.872        0.456        0.092       83.515        4.991        0.004      334.805        5.020      874.093
01/23/2015  20:25:00      -47.000       12.059      -15.370       18.872       16.525       12.512      356.142      273.080      156.549        0.169        0.039       48.522        9.524        0.039      334.846        5.089      874.072
01/23/2015  20:26:00      -55.335       17.789      -11.269       21.101       19.278       13.340      445.260      371.643      177.962        0.225        0.050       58.124        9.502        0.027      334.969        5.292      874.063
01/23/2015  20:27:00      -63.060       25.083      -16.312       15.633       19.579       12.032      244.386      383.338      144.766        0.282        0.039       67.866        9.862        0.021      335.022        5.382      874.056
01/23/2015  20:28:00      -70.142       16.351      -15.834       11.308       18.750        9.162      127.875      351.580       83.938        0.300        0.028       72.023        7.257        0.010      335.040        5.411      874.041
01/23/2015  20:29:00      -57.395      -24.764      -14.800       16.799       12.612       12.077      282.193      159.062      145.865        0.236        0.029       62.510        7.406        0.014      334.835        5.070      874.026
01/23/2015  20:30:00      -60.746      -18.527      -14.732       14.518       12.989       11.416      210.772      168.712      130.331        0.238        0.025       63.509        5.603        0.008      334.687        4.824      874.018
01/23/2015  20:31:00      -68.255      -29.006      -11.880       19.320       18.368       11.415      373.268      337.377      130.308        0.324        0.042       74.163        8.847        0.014      334.692        4.834      874.031
01/23/2015  20:32:00      -56.452      -30.461      -10.052       20.669       16.596       11.968      427.187      275.428      143.236        0.253        0.042       64.146       11.295        0.031      334.652        4.765      874.049
01/23/2015  20:33:00      -67.884      -19.694      -11.122       15.640       14.396       10.186      244.618      207.239      103.754        0.284        0.028       70.683        4.712        0.004      334.679        4.810      874.073
01/23/2015  20:34:00      -66.575      -13.154      -12.018       13.431        9.632        6.720      180.403       92.771       45.154        0.253        0.016       67.862        5.676        0.007      334.753        4.934      874.093
01/23/2015  20:35:00      -81.662      -22.404       -7.499       10.222       11.112       10.387      104.484      123.474      107.895        0.378        0.017       84.680        4.004        0.002      334.684        4.819      874.111
01/23/2015  20:36:00      -99.129      -18.276      -15.517        9.361       10.625        9.514       87.626      112.885       90.523        0.535        0.015      100.800        5.226        0.003      334.658        4.775      874.133
01/23/2015  20:37:00      -87.105      -21.789      -15.143        8.967       11.101        9.617       80.411      123.239       92.496        0.429        0.015       89.789        6.590        0.005      334.658        4.776      874.145
01/23/2015  20:38:00      -75.121      -11.843      -13.139        8.689       11.160        6.411       75.498      124.538       41.097        0.310        0.012       76.049        3.048        0.002      334.754        4.936      874.152
01/23/2015  20:39:00      -67.510      -24.519      -11.606       14.657        9.390        8.764      214.818       88.173       76.809        0.284        0.019       71.825        7.736        0.012      334.800        5.011      874.148
01/23/2015  20:40:00      -69.049      -14.438      -13.994       11.052       10.367        6.458      122.157      107.475       41.704        0.272        0.014       70.542        6.259        0.008      334.796        5.006      874.156
01/23/2015  20:41:00      -61.816      -12.841      -11.704       12.454        9.510        7.502      155.101       90.434       56.284        0.221        0.015       63.135        4.826        0.006      334.901        5.182      874.171
01/23/2015  20:42:00      -77.147      -10.292      -14.465       10.483        9.196        9.251      109.898       84.573       85.580        0.327        0.014       77.830        5.746        0.005      334.839        5.077      874.177
01/23/2015  20:43:00      -79.239       -0.832      -15.773       14.019        9.791        8.952      196.526       95.865       80.139        0.345        0.019       79.244        3.759        0.002      334.832        5.065      874.182
01/23/2015  20:44:00      -81.399       -1.179      -14.640       21.090       16.536       12.744      444.796      273.452      162.403        0.386        0.044       81.408       12.747        0.025      334.762        4.949      874.184
01/23/2015  20:45:00      -74.508      -14.213      -17.534       13.455       11.858        9.620      181.049      140.606       92.541        0.324        0.021       75.851        6.021        0.006      334.703        4.851      874.191
01/23/2015  20:46:00      -85.713      -24.915      -13.452       14.978       19.211       11.579      224.339      369.046      134.075        0.444        0.036       89.261        6.447        0.005      334.563        4.617      874.200
01/23/2015  20:47:00     -108.848       -8.788      -17.628       18.452       17.588       13.093      340.475      309.338      171.437        0.653        0.041      109.202        4.616        0.002      334.544        4.589      874.204
01/23/2015  20:48:00      -69.570       11.996      -12.302       29.670       24.386       19.587      880.302      594.690      383.665        0.350        0.093       70.597       20.035        0.081      334.548        4.592      874.212
01/23/2015  20:49:00      -52.037       18.019       -7.855       14.891       18.156       12.013      221.731      329.651      144.312        0.189        0.035       55.069       10.792        0.038      334.976        5.304      874.230
01/23/2015  20:50:00      -72.260       -0.371      -14.190       20.388       11.667        9.426      415.683      136.123       88.845        0.303        0.032       72.261        8.177        0.013      334.681        4.812      874.229
01/23/2015  20:51:00      -71.600      -13.893      -14.457       13.457       16.817        9.251      181.090      282.799       85.587        0.304        0.027       72.935        7.732        0.011      334.639        4.745      874.219
01/23/2015  20:52:00      -57.497      -18.273      -12.370        8.787       15.453        7.879       77.217      238.799       62.077        0.209        0.019       60.331        7.214        0.014      334.649        4.761      874.220
01/23/2015  20:53:00      -46.226      -24.498       -1.796       18.562       19.488       12.612      344.544      379.770      159.067        0.181        0.044       52.316        9.242        0.031      334.837        5.073      874.219
01/23/2015  20:54:00      -57.578      -25.020      -11.748        8.437       12.912        7.965       71.191      166.727       63.439        0.219        0.015       62.780        5.608        0.008      334.487        4.491      874.217
01/23/2015  20:55:00      -72.670      -10.123      -16.874       13.724       13.654       12.431      188.337      186.434      154.528        0.310        0.026       73.372        6.348        0.007      334.484        4.489      874.222
01/23/2015  20:56:00      -71.876      -13.857      -14.582       15.672       13.346       10.617      245.623      178.120      112.719        0.305        0.027       73.200        7.780        0.011      334.577        4.641      874.233
01/23/2015  20:57:00      -50.331      -16.166      -12.554       12.295       13.897        8.498      151.166      193.126       72.219        0.168        0.021       52.863        5.412        0.010      334.469        4.463      874.235
01/23/2015  20:58:00      -46.294       -9.768      -12.755        8.315       11.585        7.840       69.139      134.212       61.473        0.133        0.013       47.313        6.310        0.018      334.445        4.423      874.236
01/23/2015  20:59:00      -38.026       -2.828       -8.936       16.676       18.526        9.725      278.077      343.199       94.567        0.112        0.036       38.131        5.535        0.021      334.687        4.825      874.240
01/23/2015  21:00:00      -33.136        1.378       -9.457       15.626       25.008       14.345      244.185      625.397      205.767        0.113        0.054       33.164       14.107        0.181      334.785        4.988      874.252
01/23/2015  21:01:00      -25.713        9.330       -4.568       19.874       35.331       14.028      394.981     1248.249      196.789        0.130        0.092       27.353       15.642        0.327      334.771        4.963      874.247
01/23/2015  21:02:00      -31.071       56.429      -10.031       20.592       44.326       17.802      424.040     1964.793      316.922        0.348        0.135       64.418       21.396        0.110      335.149        5.591      874.243
01/23/2015  21:03:00      -17.251       75.700       -9.072       20.357       27.820       14.079      414.402      773.956      198.216        0.375        0.069       77.641       12.955        0.028      335.341        5.911      874.251
01/23/2015  21:04:00      -26.133       53.396       -6.367       22.119       34.197       20.862      489.240     1169.434      435.208        0.283        0.105       59.448       20.584        0.120      335.143        5.582      874.261
01/23/2015  21:05:00      -17.217       26.903        0.950       22.472       40.862       19.380      505.012     1669.732      375.597        0.179        0.128       31.941       15.106        0.224      335.052        5.430      874.261
01/23/2015  21:06:00      -34.022        8.767       -0.398       27.943       26.679       22.197      780.817      711.747      492.716        0.161        0.099       35.133       19.139        0.297      334.881        5.147      874.267
01/23/2015  21:07:00      -22.616       43.856       -7.332       26.295       52.352       19.635      691.411     2740.750      385.552        0.315        0.191       49.344       22.219        0.203      335.170        5.626      874.285
01/23/2015  21:08:00      -39.767        2.198      -10.036       22.017       23.280       15.363      484.759      541.981      236.035        0.147        0.063       39.828        9.336        0.055      334.789        4.994      874.292
01/23/2015  21:09:00      -46.457      -10.362       -3.619       21.906       15.545       15.181      479.877      241.661      230.463        0.162        0.048       47.598        7.739        0.026      334.574        4.636      874.289
01/23/2015  21:10:00      -65.086      -22.782      -11.087       11.996       11.809        8.148      143.908      139.450       66.390        0.261        0.017       68.958        6.927        0.010      334.403        4.351      874.288
01/23/2015  21:11:00      -56.411      -31.241       -8.584       13.842       21.355       11.262      191.600      456.038      126.832        0.250        0.039       64.485        7.842        0.015      334.430        4.397      874.297
01/23/2015  21:12:00      -44.473      -39.139       -5.228       14.592       15.150       16.394      212.915      229.527      268.766        0.212        0.036       59.243        3.592        0.004      334.397        4.344      874.309
01/23/2015  21:13:00      -12.739      -27.967        4.699       17.668       20.201       17.406      312.155      408.065      302.952        0.099        0.051       30.732        4.016        0.017      334.585        4.655      874.322
01/23/2015  21:14:00      -29.348      -47.389      -12.516       15.247       17.901        8.732      232.483      320.441       76.254        0.195        0.031       55.740        4.454        0.006      334.510        4.532      874.330
01/23/2015  21:15:00      -40.307      -34.662      -12.953       12.182        9.373        9.577      148.407       87.848       91.726        0.166        0.016       53.161        6.954        0.017      334.562        4.617      874.322
01/23/2015  21:16:00      -31.617      -35.633      -10.978       14.156       11.048       10.700      200.382      122.050      114.484        0.141        0.022       47.638        5.016        0.011      334.594        4.670      874.300
01/23/2015  21:17:00      -62.911      -26.521      -12.701        9.126       10.452        7.558       83.276      109.245       57.126        0.254        0.012       68.272        2.725        0.002      334.558        4.609      874.299
01/23/2015  21:18:00      -56.076      -19.826       -9.562       10.755       11.084        8.876      115.665      122.845       78.783        0.197        0.016       59.477        5.761        0.009      334.649        4.762      874.295
01/23/2015  21:19:00      -37.699       18.207       -7.359       28.179       33.379       13.418      794.053     1114.146      180.037        0.195        0.104       41.865        8.082        0.037      334.844        5.085      874.287
01/23/2015  21:20:00      -20.713       52.042      -15.253       29.124       26.063       17.030      848.195      679.298      290.016        0.259        0.091       56.012       17.000        0.092      335.270        5.794      874.275
01/23/2015  21:21:00      -33.244       17.116       -7.179       21.467       28.661       16.328      460.848      821.463      266.604        0.150        0.077       37.391       11.690        0.098      334.945        5.253      874.272
01/23/2015  21:22:00      -33.707        6.670       -5.156       22.114       34.389       15.863      489.027     1182.628      251.645        0.156        0.096       34.361       18.111        0.278      334.880        5.145      874.266
01/23/2015  21:23:00      -29.786       13.909       -0.853       24.727       18.224       11.745      611.403      332.108      137.936        0.108        0.054       32.873        9.514        0.084      334.872        5.132      874.271
01/23/2015  21:24:00      -10.412       16.231        3.184       29.321       29.910       16.782      859.739      894.586      281.641        0.121        0.102       19.284       16.927        0.770      335.005        5.352      874.262
01/23/2015  21:25:00      -12.295       13.527      -12.723       27.004       38.857       11.602      729.237     1509.895      134.602        0.143        0.119       18.280       15.406        0.710      335.040        5.410      874.251
01/23/2015  21:26:00      -20.922       25.573      -13.305       31.397       26.819       17.241      985.750      719.281      297.240        0.164        0.100       33.041       14.926        0.204      334.958        5.275      874.243
01/23/2015  21:27:00        8.230       71.324       -6.473       32.388       22.803       12.082     1048.995      519.994      145.963        0.346        0.086       71.797        7.547        0.011      335.288        5.821      874.246
01/23/2015  21:28:00       10.026       13.395        3.453       15.374       15.881        8.156      236.350      252.204       66.520        0.042        0.028       16.732        5.847        0.122      335.112        5.530      874.254
01/23/2015  21:29:00        4.805        9.060        3.005       10.678       12.846        7.620      114.018      165.032       58.061        0.023        0.017       10.255        6.244        0.371      335.050        5.427      874.270
01/23/2015  21:30:00       19.642       28.710        1.899       11.100       12.271        5.642      123.220      150.578       31.833        0.076        0.015       34.787        4.686        0.018      335.084        5.483      874.275
01/23/2015  21:31:00       35.258       26.755       -2.286        9.898       10.591        6.312       97.978      112.160       39.841        0.111        0.012       44.260        5.339        0.015      335.065        5.453      874.273
01/23/2015  21:32:00       27.619       24.623        1.059       18.912       12.956       11.234      357.661      167.858      126.197        0.101        0.033       37.001        9.679        0.068      335.021        5.380      874.277
01/23/2015  21:33:00       27.973       34.597       -7.895       14.637       15.034       10.877      214.246      226.006      118.305        0.130        0.028       44.491        9.221        0.043      335.011        5.364      874.269
01/23/2015  21:34:00       37.872       39.084       -3.338       23.077       23.420       18.103      532.571      548.502      327.732        0.219        0.070       54.423       15.372        0.080      335.024        5.385      874.259
01/23/2015  21:35:00       47.173       48.408       -6.943       23.612       23.159       18.230      557.540      536.343      332.330        0.302        0.071       67.592       12.501        0.034      334.980        5.311      874.236
01/23/2015  21:36:00       52.054       45.352       -2.871       28.741       25.647       18.517      826.044      657.760      342.869        0.330        0.091       69.039       13.300        0.037      334.965        5.286      874.220
01/23/2015  21:37:00       57.635       31.226        8.111       22.208       13.671       11.455      493.216      186.892      131.213        0.259        0.041       65.550        6.801        0.011      334.887        5.156      874.203
01/23/2015  21:38:00       42.304       19.724        3.063       20.245       16.372       13.006      409.868      268.057      169.144        0.152        0.042       46.676        8.786        0.035      334.769        4.961      874.187
01/23/2015  21:39:00       65.155       19.835       10.946       20.316       13.505       13.207      412.740      182.379      174.425        0.276        0.038       68.108        6.603        0.009      334.813        5.033      874.173
01/23/2015  21:40:00       32.978       33.201       37.299       20.626       15.353       13.671      425.412      235.700      186.899        0.221        0.042       46.796       10.716        0.052      334.673        4.801      874.166
01/23/2015  21:41:00       12.367       31.588       48.046       21.100       17.572       12.185      445.208      308.767      148.484        0.218        0.045       33.923        9.908        0.085      334.692        4.832      874.142
01/23/2015  21:42:00       14.546       33.611       49.196       24.727       22.795       15.778      611.447      519.612      248.934        0.257        0.069       36.624       12.938        0.125      334.773        4.967      874.116
01/23/2015  21:43:00       19.694       23.235       42.243       23.630       17.009       10.502      558.376      289.301      110.288        0.183        0.048       30.459        9.208        0.091      334.654        4.769      874.097
01/23/2015  21:44:00       -3.308       22.965       40.368       11.676       20.387       15.374      136.325      415.645      236.345        0.148        0.039       23.202       14.286        0.379      334.572        4.633      874.082
01/23/2015  21:45:00       27.199       47.230       46.249       27.878       19.716       15.023      777.200      388.720      225.681        0.325        0.070       54.502        7.088        0.017      334.731        4.898      874.077
01/23/2015  21:46:00       24.600       23.025       30.435       27.289       26.053       22.754      744.687      678.773      517.733        0.200        0.097       33.694       21.702        0.415      334.708        4.859      874.077
01/23/2015  21:47:00       45.383        9.028       15.843       31.837       27.748       19.167     1013.602      769.978      367.385        0.227        0.108       46.272       18.524        0.160      334.678        4.809      874.079
01/23/2015  21:48:00       48.897        1.979        8.218       23.618       12.035       12.612      557.808      144.849      159.063        0.166        0.043       48.937        8.901        0.033      334.695        4.837      874.075
01/23/2015  21:49:00       50.211       15.607        4.923       16.640       15.322       13.781      276.890      234.759      189.918        0.175        0.035       52.580        9.413        0.032      334.713        4.867      874.081
01/23/2015  21:50:00       38.051       20.910        4.394       10.471       10.052        7.989      109.651      101.042       63.819        0.109        0.014       43.417        4.242        0.010      334.663        4.785      874.085
01/23/2015  21:51:00       40.373       18.363        3.479        8.380        7.973        6.743       70.221       63.569       45.468        0.108        0.009       44.353        3.520        0.006      334.674        4.803      874.094
01/23/2015  21:52:00       32.287       10.188        2.307       10.368        6.192        5.669      107.503       38.337       32.133        0.066        0.009       33.856        2.990        0.008      334.672        4.800      874.106
01/23/2015  21:53:00       18.456        6.954        2.551        7.951        8.175        5.572       63.220       66.826       31.051        0.028        0.008       19.723        3.535        0.032      334.634        4.736      874.110
01/23/2015  21:54:00       24.610        9.029       14.446        7.665       11.160        9.026       58.747      124.540       81.467        0.058        0.013       26.215        7.494        0.082      334.517        4.541      874.116
01/23/2015  21:55:00       24.472       -0.344       10.482       13.888       13.806       12.227      192.878      190.599      149.488        0.062        0.027       24.474        8.445        0.119      334.433        4.402      874.115
01/23/2015  21:56:00       25.447       -0.824        8.931       17.951       11.265        9.908      322.226      126.907       98.173        0.064        0.027       25.461       10.470        0.169      334.412        4.368      874.112
01/23/2015  21:57:00       37.774      -12.833        2.264       16.411       14.482       11.957      269.312      209.742      142.976        0.111        0.031       39.894       10.667        0.071      334.546        4.590      874.099
01/23/2015  21:58:00       14.194       -5.895        3.807       17.372        9.547       11.274      301.783       91.149      127.093        0.039        0.026       15.369       11.668        0.576      334.484        4.488      874.094
01/23/2015  21:59:00       11.281      -12.906        2.717       11.902       10.915        7.349      141.667      119.133       54.003        0.031        0.016       17.141        7.883        0.212      334.435        4.405      874.088
01/23/2015  22:00:00        0.473      -21.839       -3.627       12.819       13.913        8.055      164.324      193.576       64.888        0.046        0.021       21.845        8.849        0.164      334.390        4.330      874.085
01/23/2015  22:01:00      -24.913      -31.714       -8.713        7.978        8.908        6.894       63.656       79.360       47.530        0.095        0.010       40.329        3.310        0.007      334.332        4.235      874.074
01/23/2015  22:02:00      -19.847      -15.617       -5.283        7.286        7.257        5.951       53.084       52.670       35.415        0.040        0.007       25.254        4.059        0.026      334.283        4.153      874.060
01/23/2015  22:03:00      -22.030      -15.627       -1.669       11.509        5.924        4.242      132.460       35.089       17.994        0.046        0.009       27.010        2.610        0.009      334.310        4.200      874.061
01/23/2015  22:04:00      -12.267      -15.087        1.977       10.898       12.543        9.005      118.773      157.334       81.082        0.037        0.018       19.445        7.100        0.133      334.354        4.274      874.056
01/23/2015  22:05:00      -21.319      -36.328       -7.947        9.871        7.978        5.928       97.434       63.641       35.146        0.102        0.010       42.121        4.007        0.009      334.112        3.869      874.046
01/23/2015  22:06:00      -37.283      -33.633       -2.214       10.299        9.458        5.639      106.073       89.463       31.794        0.138        0.011       50.211        3.765        0.006      334.128        3.897      874.044
01/23/2015  22:07:00      -12.162       -3.059        0.094       13.895       12.994        8.154      193.061      168.835       66.488        0.029        0.021       12.541        8.658        0.477      334.346        4.258      874.037
01/23/2015  22:08:00      -26.827      -11.875       -6.004        8.642       10.723        6.204       74.686      114.987       38.486        0.056        0.011       29.338        5.566        0.036      334.240        4.083      874.021
01/23/2015  22:09:00       -7.968       -3.051        0.877        8.065       12.484        8.504       65.047      155.853       72.312        0.018        0.015        8.532        5.390        0.399      334.214        4.041      873.991
01/23/2015  22:10:00        1.450       -4.975       -1.155        7.832        5.670        5.944       61.339       32.144       35.333        0.008        0.006        5.182        5.089        0.965      334.471        4.466      873.965
01/23/2015  22:11:00      -13.099       -2.529        1.257        5.742        5.886        4.749       32.973       34.642       22.556        0.013        0.005       13.341        3.786        0.081      334.302        4.186      873.964
01/23/2015  22:12:00      -14.507        0.347        3.708       17.438       14.438        9.777      304.099      208.470       95.594        0.042        0.030       14.511        7.205        0.247      334.426        4.390      873.973
01/23/2015  22:13:00      -28.377      -14.194        6.010       10.281       12.116        6.687      105.707      146.803       44.712        0.067        0.015       31.729        3.645        0.013      334.064        3.790      873.998
01/23/2015  22:14:00      -18.989        0.950       -0.126       10.316        7.328        5.610      106.412       53.694       31.474        0.028        0.010       19.012        3.303        0.030      334.071        3.804      874.023
01/23/2015  22:15:00       -6.777       24.764       -4.737       17.976       14.442       10.799      323.132      208.568      116.610        0.066        0.032       25.675        6.927        0.073      334.667        4.791      874.045
01/23/2015  22:16:00      -20.526       19.331       -8.349       19.387       16.400       10.496      375.837      268.971      110.176        0.081        0.038       28.196       10.255        0.132      334.702        4.849      874.081
01/23/2015  22:17:00      -49.176       -4.460       -9.990       11.440        5.916        6.631      130.878       34.996       43.968        0.137        0.010       49.378        5.032        0.010      334.193        4.004      874.100
01/23/2015  22:18:00      -51.889      -13.691      -11.792       16.215       10.690       10.055      262.911      114.284      101.109        0.175        0.024       53.665        6.524        0.015      333.715        3.211      874.117
01/23/2015  22:19:00      -56.585       -7.955      -17.722       19.473       14.132       11.444      379.211      199.709      130.958        0.214        0.035       57.142        7.043        0.015      333.708        3.199      874.137
01/23/2015  22:20:00      -77.900      -10.310      -17.225       12.907       12.095       10.883      166.600      146.288      118.443        0.345        0.022       78.580        3.420        0.002      333.517        2.883      874.155
01/23/2015  22:21:00      -80.617      -13.128      -16.357       18.148       14.535       11.810      329.365      211.267      139.478        0.381        0.034       81.679        6.229        0.006      333.411        2.708      874.173
01/23/2015  22:22:00     -130.502        4.541      -24.173       25.748       24.678       13.917      662.968      608.996      193.688        0.955        0.073      130.581        7.961        0.004      333.408        2.703      874.190
01/23/2015  22:23:00     -111.148       16.050      -20.143       28.660       21.727       15.538      821.382      472.079      241.419        0.728        0.077      112.300       11.724        0.011      333.417        2.718      874.211
01/23/2015  22:24:00     -130.413       15.847      -23.425       25.047       13.450       13.708      627.349      180.906      187.910        0.940        0.050      131.372        6.531        0.002      333.498        2.851      874.238
01/23/2015  22:25:00      -97.811       21.325      -19.196       37.156       18.762       16.934     1380.568      352.000      286.763        0.620        0.101      100.109       14.266        0.020      333.575        2.979      874.245
01/23/2015  22:26:00      -95.249        6.736      -17.405       17.134       17.754       11.760      293.589      315.216      138.304        0.508        0.037       95.487        7.013        0.005      333.524        2.893      874.238
01/23/2015  22:27:00      -93.771       -1.083      -20.538       26.676       13.284       14.539      711.602      176.478      211.375        0.516        0.055       93.778       11.718        0.016      333.535        2.914      874.237
01/23/2015  22:28:00      -94.775      -15.499      -18.330       13.760       14.578       13.974      189.339      212.514      195.286        0.508        0.030       96.034        6.627        0.005      333.552        2.941      874.228
01/23/2015  22:29:00      -92.438      -40.054      -14.695       25.001       24.807       16.275      625.033      615.379      264.864        0.593        0.075      100.742       13.343        0.018      333.533        2.909      874.210
01/23/2015  22:30:00      -93.733      -42.897      -19.265       14.490       19.320       12.450      209.953      373.263      155.002        0.587        0.037      103.083        8.027        0.006      333.547        2.932      874.210
01/23/2015  22:31:00      -87.078      -26.596      -18.075       14.434       13.783       10.815      208.345      189.976      116.973        0.457        0.026       91.049        7.862        0.007      333.601        3.023      874.205
01/23/2015  22:32:00      -70.897      -26.954       -9.484       16.166       14.703       10.463      261.335      216.170      109.466        0.321        0.029       75.848        7.338        0.009      333.605        3.030      874.197
01/23/2015  22:33:00      -86.657      -13.603      -10.372       13.270        9.864       10.340      176.085       97.289      106.909        0.409        0.019       87.718        3.674        0.002      334.045        3.759      874.186
01/23/2015  22:34:00      -94.290       -1.659      -13.656       17.553       12.506       11.033      308.119      156.405      121.718        0.483        0.029       94.304        2.864        0.001      334.122        3.886      874.169
01/23/2015  22:35:00      -72.400       -3.612      -15.881        8.531        9.116        8.767       72.779       83.104       76.861        0.287        0.012       72.490        5.142        0.005      333.962        3.622      874.133
01/23/2015  22:36:00      -61.049      -10.757      -15.161       17.778       14.842        7.737      316.073      220.272       59.861        0.233        0.030       61.989       10.032        0.026      334.175        3.974      874.103
01/23/2015  22:37:00       -0.969      -35.324       -1.063       14.537       11.309       12.089      211.324      127.895      146.154        0.087        0.024       35.337        6.155        0.030      334.034        3.741      874.079
01/23/2015  22:38:00        0.969      -29.846       -3.784       25.172       12.386        7.275      633.619      153.401       52.933        0.087        0.042       29.862        6.591        0.049      334.043        3.756      874.053
01/23/2015  22:39:00      -19.474      -15.138       -3.190       14.258       15.291       12.049      203.286      233.813      145.168        0.060        0.029       24.666        9.928        0.162      333.872        3.473      874.032
01/23/2015  22:40:00       15.529       18.576       -7.046       20.245       20.809       10.690      409.850      432.998      114.283        0.080        0.048       24.212        6.526        0.073      334.378        4.311      874.006
01/23/2015  22:41:00       39.914        9.706       -3.403       12.098       14.111       14.288      146.367      199.131      204.148        0.112        0.027       41.077        6.462        0.025      334.352        4.270      873.990
01/23/2015  22:42:00        4.071       -4.134        4.308        8.259        8.335        6.183       68.207       69.470       38.231        0.011        0.009        5.802        5.826        1.008      334.175        3.974      873.975
01/23/2015  22:43:00      -21.595       -3.038        0.098       15.081        8.278        5.678      227.431       68.519       32.238        0.040        0.016       21.808        1.868        0.007      334.110        3.866      873.949
01/23/2015  22:44:00      -64.828      -39.471       -6.816       17.789       15.586        8.865      316.451      242.909       78.588        0.322        0.032       75.899        6.895        0.008      333.622        3.057      873.941
01/23/2015  22:45:00      -96.709      -42.477      -17.244       22.721       19.214       11.954      516.256      369.175      142.905        0.624        0.051      105.626       12.423        0.014      333.529        2.902      873.948
01/23/2015  22:46:00      -68.650      -34.809       -5.224       25.689       22.733       11.821      659.948      516.782      139.740        0.363        0.066       76.970       11.674        0.023      333.443        2.760      873.967
01/23/2015  22:47:00      -72.871        7.696      -13.856       13.008       12.037        7.938      169.197      144.879       63.017        0.297        0.019       73.276        5.472        0.006      333.576        2.982      873.973
01/23/2015  22:48:00      -40.924       -2.035       -7.901       16.197       12.950       10.284      262.356      167.690      105.757        0.114        0.027       40.975        9.044        0.049      333.547        2.933      873.979
01/23/2015  22:49:00      -14.322      -24.664        2.753       10.425        8.446        9.001      108.690       71.335       81.024        0.054        0.013       28.521        6.187        0.047      333.648        3.100      873.983
01/23/2015  22:50:00      -24.823      -30.635       -4.383       10.833       12.211       10.419      117.354      149.112      108.555        0.097        0.019       39.430        7.511        0.036      333.644        3.094      873.990
01/23/2015  22:51:00      -95.110      -29.861      -18.331       25.483       18.132       12.155      649.386      328.769      147.746        0.570        0.056       99.688        7.386        0.005      333.483        2.827      873.972
01/23/2015  22:52:00     -101.646       14.597      -15.199       29.613       19.070       10.448      876.908      363.651      109.161        0.606        0.067      102.689        8.333        0.007      333.357        2.618      873.968
01/23/2015  22:53:00      -83.666        8.102      -15.374       18.274       14.172       14.954      333.930      200.846      223.632        0.403        0.038       84.058       12.149        0.021      333.302        2.526      873.975
01/23/2015  22:54:00      -76.245       -1.267      -14.398       33.449       30.637       18.257     1118.833      938.631      333.302        0.421        0.120       76.255       16.333        0.046      333.316        2.551      873.984
01/23/2015  22:55:00      -71.485       -4.166      -12.175       31.891       21.930       17.208     1017.050      480.914      296.117        0.353        0.090       71.606       14.918        0.043      333.420        2.722      873.983
01/23/2015  22:56:00      -79.005      -15.743      -14.099       30.371       21.931       14.655      922.405      480.972      214.772        0.415        0.081       80.559        9.015        0.013      333.274        2.480      873.988
01/23/2015  22:57:00      -78.464      -20.972      -10.289       24.901       21.996       19.096      620.073      483.843      364.640        0.409        0.073       81.218       15.730        0.038      333.297        2.520      873.993
01/23/2015  22:58:00      -43.913      -12.063      -10.688       26.559       22.108       15.914      705.371      488.763      253.268        0.182        0.072       45.540       13.682        0.090      333.377        2.652      873.991
01/23/2015  22:59:00      -79.470      -16.903       -6.939       19.947       28.517       12.744      397.901      813.235      162.398        0.401        0.069       81.248       11.756        0.021      333.354        2.613      873.987
01/23/2015  23:00:00      -82.791      -27.807      -17.157       13.995       17.136       14.820      195.869      293.641      219.639        0.432        0.035       87.337        3.136        0.001      333.408        2.702      873.977
01/23/2015  23:01:00      -91.016       -0.601       -8.291       12.418       11.490        9.886      154.211      132.014       97.735        0.437        0.019       91.018        6.497        0.005      333.552        2.941      873.980
01/23/2015  23:02:00      -88.863      -20.744      -13.504       17.243       14.447       11.227      297.318      208.710      126.035        0.457        0.032       91.252        9.724        0.011      333.401        2.690      873.975
01/23/2015  23:03:00      -65.640       -4.872      -18.447       10.628        6.976        8.728      112.957       48.667       76.178        0.246        0.012       65.820        3.985        0.004      333.435        2.748      873.965
01/23/2015  23:04:00      -32.535      -26.344       -6.231       11.498       16.067        8.777      132.199      258.136       77.033        0.113        0.023       41.863        6.381        0.023      333.632        3.074      873.967
01/23/2015  23:05:00      -24.078      -26.270       -1.985       13.943       10.781        6.857      194.417      116.224       47.018        0.082        0.018       35.635        6.715        0.036      333.587        3.000      873.981
01/23/2015  23:06:00      -11.914      -13.845        0.299        7.213        8.877        7.365       52.027       78.807       54.237        0.026        0.009       18.265        6.732        0.136      333.878        3.482      874.000
01/23/2015  23:07:00      -19.592      -23.525       -9.199       11.843       11.218        5.317      140.252      125.834       28.268        0.066        0.015       30.615        2.945        0.009      333.883        3.490      874.010
01/23/2015  23:08:00      -46.593      -40.614      -10.019       18.770        9.392        7.272      352.316       88.219       52.875        0.221        0.025       61.810        4.949        0.006      333.539        2.921      874.010
01/23/2015  23:09:00      -82.496      -17.606      -13.250       12.437       10.727        8.062      154.677      115.065       65.000        0.381        0.017       84.354        2.729        0.001      333.400        2.688      874.026
01/23/2015  23:10:00      -61.240      -19.800      -12.014       10.168        9.900        6.608      103.394       98.004       43.667        0.227        0.012       64.361        4.203        0.004      333.418        2.719      874.030
01/23/2015  23:11:00      -66.364      -14.802      -10.504        9.979        8.531        7.952       99.575       72.774       63.227        0.248        0.012       67.994        3.796        0.003      333.287        2.502      874.037
01/23/2015  23:12:00      -80.350      -18.936      -10.455       13.890       12.461        7.978      192.945      155.276       63.651        0.367        0.021       82.551        4.460        0.003      333.280        2.490      874.041
01/23/2015  23:13:00      -79.984      -20.416      -10.581       13.958       16.655       11.828      194.816      277.386      139.912        0.377        0.031       82.549        5.572        0.005      333.339        2.588      874.052
01/23/2015  23:14:00      -56.304      -23.484      -16.169        7.505        8.820        6.649       56.329       77.800       44.207        0.208        0.009       61.006        4.900        0.006      333.312        2.543      874.066
01/23/2015  23:15:00      -58.079      -26.894      -11.636        8.364        8.775        6.444       69.955       77.003       41.524        0.221        0.009       64.003        1.934        0.001      333.250        2.439      874.055
01/23/2015  23:16:00      -71.354      -23.843       -5.710        8.366        6.452        5.771       69.997       41.625       33.308        0.292        0.007       75.232        1.592        0.000      333.204        2.364      874.034
01/23/2015  23:17:00      -65.027      -29.625      -12.118       22.883       10.194        8.344      523.622      103.926       69.626        0.297        0.035       71.458        5.544        0.006      333.303        2.528      874.025
01/23/2015  23:18:00      -87.947      -30.610      -17.671        9.210        7.614        4.194       84.820       57.972       17.589        0.457        0.008       93.122        1.069        0.000      333.435        2.746      874.018
01/23/2015  23:19:00      -78.487      -25.936      -10.937       10.572        8.215        6.253      111.773       67.485       39.099        0.359        0.011       82.662        5.875        0.005      333.421        2.723      874.014
01/23/2015  23:20:00      -81.659      -19.322      -12.814        7.683        7.424        5.798       59.022       55.111       33.618        0.368        0.007       83.914        4.021        0.002      333.412        2.708      874.015
01/23/2015  23:21:00      -86.064       -8.432      -16.152       11.569        7.421        9.927      133.851       55.065       98.553        0.401        0.014       86.476        5.747        0.004      333.481        2.823      874.018
01/23/2015  23:22:00      -63.918      -19.151       -7.988       16.043       14.069       11.998      257.366      197.933      143.960        0.256        0.030       66.726       10.011        0.023      333.469        2.805      874.027
01/23/2015  23:23:00      -63.301      -13.753      -13.695       13.109       16.347        8.990      171.834      267.226       80.826        0.245        0.026       64.777        5.315        0.007      333.403        2.696      874.036
01/23/2015  23:24:00      -45.138      -14.457      -12.488        6.194        6.906        5.657       38.363       47.686       32.000        0.126        0.006       47.396        2.269        0.002      333.365        2.631      874.051
01/23/2015  23:25:00      -49.506      -24.775      -13.341       10.073        7.967        6.544      101.471       63.480       42.826        0.173        0.010       55.359        2.518        0.002      333.362        2.627      874.062
01/23/2015  23:26:00      -63.872      -29.436      -14.644       13.823       13.492        7.676      191.083      182.045       58.917        0.280        0.022       70.328        4.738        0.005      333.244        2.431      874.074
01/23/2015  23:27:00      -85.257       -8.761      -13.170       26.169       18.111       15.117      684.832      328.005      228.536        0.438        0.062       85.706        4.493        0.003      333.229        2.406      874.080
01/23/2015  23:28:00     -117.084        4.674      -16.698       20.607       21.910       14.062      424.651      480.028      197.737        0.756        0.055      117.177        6.587        0.003      333.121        2.228      874.095
01/23/2015  23:29:00      -97.730        0.536       -6.769       30.763       25.840       15.293      946.359      667.709      233.874        0.572        0.092       97.732       16.894        0.030      333.100        2.194      874.105
01/23/2015  23:30:00     -106.745        6.917      -12.308       22.256       20.210       16.383      495.347      408.446      268.402        0.638        0.059      106.969        7.127        0.004      333.110        2.211      874.125
01/23/2015  23:31:00      -81.875        9.482      -18.142       20.294       15.157       11.516      411.831      229.727      132.619        0.395        0.039       82.423        7.329        0.008      333.192        2.346      874.129
01/23/2015  23:32:00      -66.556       -1.839      -12.936       11.003        8.438        9.176      121.069       71.208       84.204        0.244        0.014       66.581        7.034        0.011      333.258        2.453      874.133
01/23/2015  23:33:00      -47.474       45.176       -9.524       16.678       22.388        8.756      278.157      501.214       76.675        0.262        0.043       65.534        5.357        0.007      333.819        3.385      874.130
01/23/2015  23:34:00      -16.638       55.606        0.080       18.402       18.754       15.966      338.633      351.709      254.907        0.216        0.047       58.042       11.877        0.042      333.998        3.681      874.123
01/23/2015  23:35:00        6.924      104.948      -12.516       23.109       19.382       11.796      534.019      375.650      139.138        0.613        0.052      105.176        9.999        0.009      334.379        4.313      874.117
01/23/2015  23:36:00      -21.395      132.891      -15.887       18.533       23.382       13.531      343.483      546.737      183.090        0.972        0.054      134.602       10.845        0.006      334.403        4.353      874.116
01/23/2015  23:37:00      -29.911       90.579      -13.359       27.728       23.178       12.596      768.827      537.212      158.668        0.537        0.073       95.390       11.436        0.014      334.399        4.346      874.118
01/23/2015  23:38:00      -29.994       92.465      -12.453       20.320       34.942       12.166      412.903     1220.939      148.004        0.569        0.089       97.208       13.505        0.019      334.356        4.275      874.113
01/23/2015  23:39:00      -19.705      116.463      -11.886       17.867       21.759       16.541      319.230      473.445      273.598        0.758        0.053      118.118       10.991        0.009      334.330        4.231      874.116
01/23/2015  23:40:00      -19.023      120.776      -16.889       19.074       20.512       12.932      363.829      420.732      167.233        0.809        0.048      122.265        9.221        0.006      334.465        4.456      874.112
01/23/2015  23:41:00      -21.738      116.647      -17.702       14.234       15.273       11.064      202.599      233.266      122.407        0.748        0.028      118.656        4.940        0.002      334.446        4.424      874.108
01/23/2015  23:42:00      -26.263      134.719      -16.110       12.390       21.042        9.597      153.516      442.754       92.101        0.989        0.034      137.255        8.238        0.004      334.425        4.389      874.096
01/23/2015  23:43:00      -24.587      151.934      -18.391       15.900       16.944       11.801      252.806      287.115      139.262        1.235        0.034      153.911       10.169        0.004      334.476        4.472      874.074
01/23/2015  23:44:00      -10.621      147.432      -18.387       13.977       14.015        8.976      195.355      196.427       80.562        1.133        0.024      147.814        7.408        0.003      334.535        4.571      874.056
01/23/2015  23:45:00      -27.304      142.263      -21.260       18.268       13.583        9.127      333.728      184.501       83.299        1.102        0.030      144.860        2.275        0.000      334.569        4.629      874.046
01/23/2015  23:46:00      -30.541      120.281      -17.676       22.879       22.197       20.577      523.427      492.713      423.399        0.858        0.072      124.098       11.912        0.009      334.711        4.865      874.046
01/23/2015  23:47:00      -21.584      124.620      -21.203       17.912       17.207       10.302      320.838      296.069      106.133        0.858        0.036      126.476        5.326        0.002      334.691        4.831      874.045
01/23/2015  23:48:00      -47.562      100.606      -23.717       18.882       24.659       16.979      356.525      608.050      288.296        0.710        0.063      111.282       13.495        0.015      334.629        4.728      874.044
01/23/2015  23:49:00      -23.519       88.824       -4.373       30.810       32.257       22.583      949.237     1040.523      509.974        0.548        0.125       91.885       19.361        0.044      334.749        4.927      874.036
01/23/2015  23:50:00      -38.242       13.937       -7.020       22.237       32.012       14.774      494.466     1024.764      218.268        0.172        0.087       40.703       11.855        0.085      334.061        3.784      874.026
01/23/2015  23:51:00      -54.610      -21.185      -11.382       17.277       21.044       10.874      298.506      442.853      118.246        0.221        0.043       58.575        9.414        0.026      333.430        2.740      874.004
01/23/2015  23:52:00      -74.535      -48.500      -18.451       16.720       23.266       13.907      279.564      541.324      193.411        0.463        0.051       88.925        9.971        0.013      333.344        2.597      873.985
01/23/2015  23:53:00     -100.992      -44.610      -17.616       23.372       19.019       13.472      546.236      361.727      181.504        0.679        0.054      110.406        8.716        0.006      333.287        2.503      873.979
01/23/2015  23:54:00     -113.334      -47.412      -16.442       24.414       16.943       14.038      596.036      287.070      197.077        0.822        0.054      122.851       10.900        0.008      333.320        2.557      873.966
01/23/2015  23:55:00     -132.740      -41.098      -19.621       14.716       14.754       11.305      216.558      217.670      127.806        1.013        0.028      138.957        8.776        0.004      333.416        2.716      873.955
01/23/2015  23:56:00     -110.936      -49.818      -10.075       18.705       19.244       13.463      349.879      370.322      181.253        0.790        0.045      121.608       10.826        0.008      333.455        2.780      873.941
01/23/2015  23:57:00     -110.516      -45.631       -8.027       19.488       15.922       13.568      379.781      253.497      184.085        0.759        0.041      119.566       11.322        0.009      333.473        2.810      873.949
01/23/2015  23:58:00      -73.935      -55.923       -1.297       20.619       24.173       16.423      425.140      584.329      269.702        0.494        0.064       92.703       13.637        0.022      333.479        2.820      873.954
01/23/2015  23:59:00      -74.001      -64.244       -5.315       19.442       18.993       13.330      378.003      360.752      177.696        0.527        0.046       97.997       12.092        0.015      333.477        2.816      873.962
